[[{"header":{"parameterUnit":"m.s-1","parameterCategory":1,"la1":31.0,"la2":29.5877,"lo1":-88.7671,"lo2":-86.6584,"dy":0.0162,"dx":0.0185,"nx":115,"ny":88,"refTime":"2023-07-14T18:00:00:Z","depth":0,"parameterNumber":2,"parameterNumberName":"U-component_of_WINDS"},"data":[0.0,0.0,0.0,0.0,0.0,0.0,0.0,0.0,0.0,0.0,0.0,0.0,0.0,0.0,0.0,0.0,0.0,0.0,0.0,0.0,0.0,0.0,0.0,0.0,0.0,0.0,0.0,0.0,0.0,0.0,0.0,0.0,0.0,0.0,0.0,0.0,0.0,0.0,0.0,0.0,0.0,0.0,0.0,0.0,0.0,0.0,0.0,0.0,0.0,0.0,0.0,0.0,0.0,0.0,0.0,0.0,0.0,0.0,0.0,0.0,0.0,0.0,0.0,0.0,0.0,0.0,0.0,0.0,0.0,0.0,0.0,0.0,0.0,0.0,0.0,0.0,0.0,0.0,0.0,0.0,0.0,0.0,0.0,0.0,0.0,0.0,0.0,0.0,0.0,0.0,0.0,0.0,0.0,0.0,0.0,0.0,0.0,0.0,0.0,0.0,0.0,0.0,0.0,0.0,0.0,0.0,0.0,0.0,0.0,0.0,0.0,0.0,0.0,0.0,0.0,0.0,0.0,0.0,0.0,0.0,0.0,0.0,0.0,0.0,0.0,0.0,0.0,0.0,0.0,0.0,0.0,0.0,0.0,0.0,0.0,0.0,0.0,0.0,0.0,0.0,0.0,0.0,0.0,0.0,0.0,0.0,0.0,0.0,0.0,0.0,0.0,0.0,0.0,0.0,0.0,0.0,0.0,0.0,0.0,0.0,0.0,0.0,0.0,0.0,0.0,0.0,0.0,0.0,0.0,0.0,0.0,0.0,0.0,0.0,0.0,0.0,0.0,0.0,0.0,0.0,0.0,0.0,0.0,0.0,0.0,0.0,0.0,0.0,0.0,0.0,0.0,0.0,0.0,0.0,0.0,0.0,0.0,0.0,0.0,0.0,0.0,0.0,0.0,0.0,0.0,0.0,0.0,0.0,0.0,0.0,0.0,0.0,0.0,0.0,0.0,0.0,0.0,0.0,0.0,0.0,0.0,0.0,0.0,0.0,0.0,0.0,0.0,0.0,0.0,0.0,0.0,0.0,0.0,0.0,0.0,0.0,0.0,0.0,0.0,0.0,0.0,0.0,0.0,0.0,0.0,0.0,0.0,0.0,0.0,0.0,0.0,0.0,0.0,0.0,0.0,0.0,0.0,0.0,0.0,0.0,0.0,0.0,0.0,0.0,0.0,0.0,0.0,0.0,0.0,0.0,0.0,0.0,0.0,0.0,0.0,0.0,0.0,0.0,0.0,0.0,0.0,0.0,0.0,0.0,0.0,0.0,0.0,0.0,0.0,0.0,0.0,0.0,0.0,0.0,0.0,0.0,0.0,0.0,0.0,0.0,0.0,0.0,0.0,0.0,0.0,0.0,0.0,0.0,0.0,0.0,0.0,0.0,0.0,0.0,0.0,0.0,0.0,0.0,0.0,0.0,0.0,0.0,0.0,0.0,0.0,0.0,0.0,0.0,0.0,0.0,0.0,0.0,0.0,0.0,0.0,0.0,0.0,0.0,0.0,0.0,0.0,0.0,0.0,0.0,0.0,0.0,0.0,0.0,0.0,0.0,0.0,0.0,0.0,0.0,0.0,0.0,0.0,0.0,0.0,0.0,0.0,0.0,0.0,0.0,0.0,0.0,0.0,0.0,0.0,0.0,0.0,0.0,0.0,0.0,0.0,0.0,0.0,0.0,0.0,0.0,0.0,0.0,0.0,0.0,0.0,0.0,0.0,0.0,0.0,0.0,0.0,0.0,0.0,0.0,0.0,0.0,0.0,0.0,0.0,0.0,0.0,0.0,0.0,0.0,0.0,0.0,0.0,0.0,0.0,0.0,0.0,0.0,0.0,0.0,0.0,0.0,0.0,0.0,0.0,0.0,0.0,0.0,0.0,0.0,0.0,0.0,0.0,0.0,0.0,0.0,0.0,0.0,0.0,0.0,0.0,0.0,0.0,0.0,0.0,0.0,0.0,0.0,0.0,0.0,0.0,0.0,0.0,0.0,0.0,0.0,0.0,0.0,0.0,0.0,0.0,0.0,0.0,0.0,0.0,0.0,0.0,0.0,0.0,0.0,0.0,0.0,0.0,0.0,0.0,0.0,0.0,0.0,0.0,0.0,0.0,0.0,0.0,0.0,0.0,0.0,0.0,0.0,0.0,0.0,0.0,0.0,0.0,0.0,0.0,0.0,0.0,0.0,0.0,0.0,0.0,0.0,0.0,0.0,0.0,0.0,0.0,0.0,0.0,0.0,0.0,0.0,0.0,0.0,0.0,0.0,0.0,0.0,0.0,0.0,0.0,0.0,0.0,0.0,0.0,0.0,0.0,0.0,0.0,0.0,0.0,0.0,0.0,0.0,0.0,0.0,0.0,0.0,0.0,0.0,0.0,0.0,0.0,0.0,0.0,0.0,0.0,0.0,0.0,0.0,0.0,0.0,0.0,0.0,0.0,0.0,0.0,0.0,0.0,0.0,0.0,0.0,0.0,0.0,0.0,0.0,0.0,0.0,0.0,0.0,0.0,0.0,0.0,0.0,0.0,0.0,0.0,0.0,0.0,0.0,0.0,0.0,0.0,0.0,0.0,0.0,0.0,0.0,0.0,0.0,0.0,0.0,0.0,0.0,0.0,0.0,0.0,0.0,0.0,0.0,0.0,0.0,0.0,0.0,0.0,0.0,0.0,0.0,0.0,0.0,0.0,0.0,0.0,0.0,0.0,0.0,0.0,0.0,0.0,0.0,0.0,0.0,0.0,0.0,0.0,0.0,0.0,0.0,0.0,0.0,0.0,0.0,0.0,0.0,0.0,0.0,0.0,0.0,0.0,0.0,0.0,0.0,0.0,0.0,0.0,0.0,0.0,0.0,0.0,0.0,0.0,0.0,0.0,0.0,0.0,0.0,0.0,0.0,0.0,0.0,0.0,0.0,0.0,0.0,0.0,0.0,0.0,0.0,0.0,0.0,0.0,0.0,0.0,0.0,0.0,0.0,0.0,0.0,0.0,0.0,0.0,0.0,0.0,0.0,0.0,0.0,0.0,0.0,0.0,0.0,0.0,0.0,0.0,0.0,0.0,0.0,0.0,0.0,0.0,0.0,0.0,0.0,0.0,0.0,0.0,0.0,0.0,0.0,0.0,0.0,0.0,0.0,0.0,0.0,0.0,0.0,0.0,0.0,0.0,0.0,0.0,0.0,0.0,0.0,0.0,0.0,0.0,0.0,0.0,0.0,0.0,0.0,0.0,0.0,0.0,0.0,0.0,0.0,0.0,0.0,0.0,0.0,0.0,0.0,0.0,0.0,0.0,0.0,0.0,0.0,0.0,0.0,0.0,0.0,0.0,0.0,0.0,0.0,0.0,0.0,0.0,0.0,0.0,0.0,0.0,0.0,0.0,0.0,0.0,0.0,0.0,0.0,0.0,0.0,0.0,0.0,0.0,0.0,0.0,0.0,0.0,0.0,0.0,0.0,0.0,0.0,0.0,0.0,0.0,0.0,0.0,0.0,0.0,0.0,0.0,0.0,0.0,0.0,0.0,0.0,0.0,0.0,0.0,0.0,0.0,0.0,0.0,0.0,0.0,0.0,0.0,0.0,0.0,0.0,0.0,0.0,0.0,0.0,0.0,0.0,0.0,0.0,0.0,0.0,0.0,0.0,0.0,0.0,0.0,0.0,0.0,0.0,0.0,0.0,0.0,0.0,0.0,0.0,0.0,0.0,0.0,0.0,0.0,0.0,0.0,0.0,0.0,0.0,0.0,0.0,0.0,0.0,0.0,0.0,0.0,0.0,0.0,0.0,0.0,0.0,0.0,0.0,0.0,0.0,0.0,0.0,0.0,0.0,0.0,0.0,0.0,0.0,0.0,0.0,0.0,0.0,0.0,0.0,0.0,0.0,0.0,0.0,0.0,0.0,0.0,0.0,0.0,0.0,0.0,0.0,0.0,0.0,0.0,0.0,0.0,0.0,0.0,0.0,0.0,0.0,0.0,0.0,0.0,0.0,0.0,0.0,0.0,0.0,0.0,0.0,0.0,0.0,0.0,0.0,0.0,0.0,0.0,0.0,0.0,0.0,0.0,0.0,0.0,0.0,0.0,0.0,0.0,0.0,0.0,0.0,0.0,0.0,0.0,0.0,0.0,0.0,0.0,0.0,0.0,0.0,0.0,0.0,0.0,0.0,0.0,0.0,0.0,0.0,0.0,0.0,0.0,0.0,0.0,0.0,0.0,0.0,0.0,0.0,0.0,0.0,0.0,0.0,0.0,0.0,0.0,0.0,0.0,0.0,0.0,0.0,0.0,0.0,-0.7608,0.0,0.0,0.0,0.0,0.0,0.0,0.0,0.0,0.0,0.0,0.0,0.0,0.0,0.0,0.0,0.0,0.0,0.0,0.0,0.0,0.0,0.0,0.0,0.0,0.0,0.0,0.0,0.0,0.0,0.0,0.0,0.0,0.0,0.0,0.0,0.0,0.0,0.0,0.0,0.0,0.0,0.0,0.0,0.0,0.0,0.0,0.0,0.0,0.0,0.0,0.0,0.0,0.0,0.0,0.0,0.0,0.0,0.0,0.0,0.0,0.0,0.0,0.0,0.0,0.0,0.0,0.0,0.0,0.0,0.0,0.0,0.0,0.0,0.0,0.0,0.0,0.0,0.0,0.0,0.0,0.0,0.0,0.0,0.0,0.0,0.0,0.0,0.0,0.0,0.0,0.0,0.0,0.0,0.0,0.0,0.0,0.0,0.0,0.0,0.0,0.0,0.0,0.0,0.0,0.0,0.0,0.0,0.0,0.0,0.0,-0.6595,-0.6768,-0.6927,-0.7116,-0.7255,0.0,0.0,0.0,0.0,0.0,0.0,0.0,0.0,0.0,0.0,0.0,0.0,0.0,0.0,0.0,0.0,0.0,0.0,0.0,0.0,0.0,0.0,0.0,0.0,0.0,0.0,0.0,0.0,0.0,0.0,0.0,0.0,0.0,0.0,0.0,0.0,0.0,0.0,0.0,0.0,0.0,0.0,0.0,0.0,0.0,0.0,0.0,0.0,0.0,0.0,0.0,0.0,0.0,0.0,0.0,0.0,0.0,0.0,0.0,0.0,0.0,0.0,0.0,0.0,0.0,0.0,0.0,0.0,0.0,0.0,0.0,0.0,0.0,0.0,0.0,0.0,0.0,0.0,0.0,0.0,0.0,0.0,0.0,0.0,0.0,0.0,0.0,0.0,0.0,0.0,0.0,0.0,0.0,0.0,0.0,0.0,0.0,0.0,0.0,0.0,0.0,0.0,0.0,0.0,0.0,0.0,0.0,0.0,0.0,0.0,0.0,0.0,-0.6665,-0.6786,-0.6867,0.0,0.0,0.0,0.0,0.0,0.0,0.0,0.0,0.0,0.0,0.0,0.0,0.0,0.0,0.0,0.0,0.0,0.0,0.0,0.0,0.0,0.0,0.0,0.0,0.0,0.0,0.0,0.0,0.0,0.0,0.0,0.0,0.0,0.0,0.0,0.0,0.0,0.0,0.0,0.0,0.0,0.0,0.0,0.0,0.0,0.0,0.0,0.0,0.0,0.0,0.0,0.0,0.0,0.0,0.0,0.0,0.0,0.0,0.0,0.0,0.0,0.0,0.0,0.0,0.0,0.0,0.0,0.0,0.0,0.0,0.0,0.0,0.0,0.0,0.0,0.0,0.0,0.0,0.0,0.0,0.0,0.0,0.0,0.0,0.0,0.0,0.0,0.0,0.0,0.0,0.0,0.0,0.0,0.0,0.0,0.0,0.0,0.0,0.0,0.0,0.0,0.0,0.0,0.0,0.0,0.0,0.0,0.0,0.0,0.0,-0.6114,-0.6237,-0.6268,0.0,-0.6443,0.0,0.0,0.0,0.0,0.0,0.0,0.0,0.0,0.0,0.0,0.0,0.0,0.0,0.0,0.0,0.0,0.0,0.0,0.0,0.0,0.0,0.0,0.0,0.0,0.0,0.0,0.0,0.0,0.0,0.0,0.0,0.0,0.0,0.0,0.0,0.0,0.0,0.0,0.0,0.0,0.0,0.0,0.0,0.0,0.0,0.0,0.0,0.0,0.0,0.0,0.0,0.0,0.0,0.0,0.0,0.0,0.0,0.0,0.0,0.0,0.0,0.0,0.0,0.0,0.0,0.0,0.0,0.0,0.0,0.0,0.0,0.0,0.0,0.0,0.0,0.0,0.0,0.0,0.0,0.0,0.0,0.0,0.0,0.0,0.0,0.0,0.0,0.0,0.0,0.0,0.0,0.0,0.0,0.0,0.0,0.0,0.0,0.0,0.0,0.0,0.0,0.0,0.0,0.0,0.0,0.0,0.0,0.0,0.0,0.0,-0.5974,-0.6029,-0.606,-0.6114,0.0,0.0,0.0,0.0,0.0,0.0,0.0,0.0,0.0,0.0,0.0,0.0,0.0,0.0,0.0,0.0,0.0,0.0,0.0,0.0,0.0,0.0,0.0,0.0,0.0,0.0,0.0,0.0,0.0,0.0,0.0,0.0,0.0,0.0,0.0,0.0,0.0,0.0,0.0,0.0,0.0,0.0,0.0,0.0,0.0,0.0,0.0,0.0,0.0,0.0,0.0,0.0,0.0,0.0,0.0,0.0,0.0,0.0,0.0,0.0,0.0,0.0,0.0,0.0,0.0,0.0,0.0,0.0,0.0,0.0,0.0,0.0,0.0,0.0,0.0,0.0,0.0,0.0,0.0,0.0,0.0,0.0,0.0,0.0,0.0,0.0,0.0,0.0,0.0,0.0,0.0,0.0,0.0,0.0,0.0,0.0,0.0,0.0,0.0,0.0,0.0,0.0,0.0,0.0,0.0,0.0,0.0,0.0,0.0,0.0,-0.5787,-0.5826,-0.585,-0.5936,-0.5967,-0.5967,0.0,0.0,0.0,0.0,0.0,0.0,0.0,0.0,0.0,0.0,0.0,0.0,0.0,0.0,0.0,0.0,0.0,0.0,0.0,0.0,0.0,0.0,0.0,0.0,0.0,0.0,0.0,0.0,0.0,0.0,0.0,0.0,0.0,0.0,0.0,0.0,0.0,0.0,0.0,0.0,0.0,0.0,0.0,0.0,0.0,0.0,0.0,0.0,0.0,0.0,0.0,0.0,0.0,0.0,0.0,0.0,0.0,0.0,0.0,0.0,0.0,0.0,0.0,0.0,0.0,0.0,0.0,0.0,0.0,0.0,0.0,0.0,0.0,0.0,0.0,0.0,0.0,0.0,0.0,0.0,0.0,0.0,0.0,0.0,0.0,0.0,0.0,0.0,0.0,0.0,0.0,0.0,0.0,0.0,0.0,0.0,0.0,0.0,0.0,0.0,0.0,0.0,0.0,0.0,0.0,0.0,0.0,0.0,-0.5522,-0.5522,-0.5561,-0.5676,-0.5833,-0.5881,0.0,0.0,0.0,0.0,0.0,0.0,0.0,0.0,0.0,0.0,0.0,0.0,0.0,0.0,0.0,0.0,0.0,0.0,0.0,0.0,0.0,0.0,0.0,0.0,0.0,0.0,0.0,0.0,0.0,0.0,0.0,0.0,0.0,0.0,0.0,0.0,0.0,0.0,0.0,0.0,0.0,0.0,0.0,0.0,0.0,0.0,0.0,0.0,0.0,0.0,0.0,0.0,0.0,0.0,0.0,0.0,0.0,0.0,0.0,0.0,0.0,0.0,0.0,0.0,0.0,0.0,0.0,0.0,0.0,0.0,0.0,0.0,0.0,0.0,0.0,0.0,0.0,0.0,0.0,0.0,0.0,0.0,0.0,0.0,0.0,0.0,0.0,0.0,0.0,0.0,0.0,0.0,0.0,0.0,0.0,0.0,0.0,0.0,0.0,0.0,0.0,0.0,0.0,0.0,0.0,0.0,0.0,0.0,0.0,-0.5194,-0.5358,-0.546,-0.5498,-0.5592,-0.5631,0.0,0.0,0.0,0.0,0.0,0.0,0.0,0.0,0.0,0.0,0.0,0.0,0.0,0.0,0.0,0.0,0.0,0.0,0.0,0.0,0.0,0.0,0.0,0.0,0.0,0.0,0.0,0.0,0.0,0.0,0.0,0.0,0.0,0.0,0.0,0.0,0.0,0.0,0.0,0.0,0.0,0.0,0.0,0.0,0.0,0.0,0.0,0.0,0.0,0.0,0.0,0.0,0.0,0.0,0.0,0.0,0.0,0.0,0.0,0.0,0.0,0.0,0.0,0.0,0.0,0.0,0.0,0.0,0.0,0.0,0.0,0.0,0.0,0.0,0.0,0.0,0.0,0.0,0.0,0.0,0.0,0.0,0.0,0.0,0.0,0.0,0.0,0.0,0.0,0.0,0.0,0.0,0.0,0.0,0.0,0.0,0.0,0.0,0.0,0.0,0.0,0.0,0.0,0.0,0.0,0.0,0.0,0.0,0.0,-0.4877,0.0,-0.5264,-0.5264,-0.5372,-0.5397,0.0,0.0,0.0,0.0,0.0,0.0,0.0,0.0,0.0,0.0,0.0,0.0,0.0,0.0,0.0,0.0,0.0,0.0,0.0,0.0,0.0,0.0,0.0,0.0,0.0,0.0,0.0,0.0,0.0,0.0,0.0,0.0,0.0,0.0,0.0,0.0,0.0,0.0,0.0,0.0,0.0,0.0,0.0,0.0,0.0,0.0,0.0,0.0,0.0,0.0,0.0,0.0,0.0,0.0,0.0,0.0,0.0,0.0,0.0,0.0,0.0,0.0,0.0,0.0,0.0,0.0,0.0,0.0,0.0,0.0,0.0,0.0,0.0,0.0,0.0,0.0,0.0,0.0,0.0,0.0,0.0,0.0,0.0,0.0,0.0,0.0,0.0,0.0,0.0,0.0,0.0,0.0,0.0,0.0,0.0,0.0,0.0,0.0,0.0,0.0,0.0,0.0,0.0,0.0,0.0,0.0,0.0,0.0,-0.4517,-0.4614,-0.4818,-0.4965,-0.5004,-0.5222,-0.5259,0.0,0.0,0.0,0.0,0.0,0.0,0.0,0.0,0.0,0.0,0.0,0.0,0.0,0.0,0.0,0.0,0.0,0.0,0.0,0.0,0.0,0.0,0.0,0.0,0.0,0.0,0.0,0.0,0.0,0.0,0.0,0.0,0.0,0.0,0.0,0.0,0.0,0.0,0.0,0.0,0.0,0.0,0.0,0.0,0.0,0.0,0.0,0.0,0.0,0.0,0.0,0.0,0.0,0.0,0.0,0.0,0.0,0.0,0.0,0.0,0.0,0.0,0.0,0.0,0.0,0.0,0.0,0.0,0.0,0.0,0.0,0.0,0.0,0.0,0.0,0.0,0.0,0.0,0.0,0.0,0.0,0.0,0.0,0.0,0.0,0.0,0.0,0.0,0.0,0.0,0.0,0.0,0.0,0.0,0.0,0.0,0.0,0.0,0.0,0.0,0.0,0.0,0.0,0.0,0.0,0.0,0.0,0.0,0.0,-0.4887,-0.5025,-0.5127,-0.521,-0.5382,-0.532,0.0,0.0,0.0,0.0,0.0,0.0,0.0,0.0,0.0,0.0,0.0,0.0,0.0,0.0,0.0,0.0,0.0,0.0,0.0,0.0,0.0,0.0,0.0,0.0,0.0,0.0,0.0,0.0,0.0,0.0,0.0,0.0,0.0,0.0,0.0,0.0,0.0,0.0,0.0,0.0,0.0,0.0,0.0,0.0,0.0,0.0,0.0,0.0,0.0,0.0,0.0,0.0,0.0,0.0,0.0,0.0,0.0,0.0,0.0,0.0,0.0,0.0,0.0,0.0,0.0,0.0,0.0,0.0,0.0,0.0,0.0,0.0,0.0,0.0,0.0,0.0,0.0,0.0,0.0,0.0,0.0,0.0,0.0,0.0,0.0,0.0,0.0,0.0,0.0,0.0,0.0,0.0,0.0,0.0,0.0,0.0,0.0,0.0,0.0,0.0,0.0,0.0,0.0,0.0,0.0,0.0,0.0,0.0,0.0,-0.5277,-0.5233,-0.5305,-0.5508,-0.5551,-0.5419,-0.5105,0.0,0.0,0.0,0.0,0.0,0.0,0.0,0.0,0.0,0.0,0.0,0.0,0.0,0.0,0.0,0.0,0.0,0.0,0.0,0.0,0.0,0.0,0.0,0.0,0.0,0.0,0.0,0.0,0.0,0.0,0.0,0.0,0.0,0.0,0.0,0.0,0.0,0.0,0.0,0.0,0.0,0.0,0.0,0.0,0.0,0.0,0.0,0.0,0.0,0.0,0.0,0.0,0.0,0.0,0.0,0.0,0.0,0.0,0.0,0.0,0.0,0.0,0.0,0.0,0.0,0.0,0.0,0.0,0.0,0.0,0.0,0.0,0.0,0.0,0.0,0.0,0.0,0.0,0.0,0.0,0.0,0.0,0.0,0.0,0.0,0.0,0.0,0.0,0.0,0.0,0.0,0.0,0.0,0.0,0.0,0.0,0.0,0.0,0.0,0.0,0.0,0.0,0.0,0.0,0.0,0.0,0.0,0.0,-0.5849,-0.5462,-0.548,-0.5923,-0.5802,-0.561,0.0,0.0,0.0,0.0,0.0,0.0,0.0,0.0,0.0,0.0,0.0,0.0,0.0,0.0,0.0,0.0,0.0,0.0,0.0,0.0,0.0,0.0,0.0,0.0,0.0,0.0,0.0,0.0,0.0,0.0,0.0,0.0,0.0,0.0,0.0,0.0,0.0,0.0,0.0,0.0,0.0,0.0,0.0,0.0,0.0,0.0,0.0,0.0,0.0,0.0,0.0,0.0,0.0,0.0,0.0,0.0,0.0,0.0,0.0,0.0,0.0,0.0,0.0,0.0,0.0,0.0,0.0,0.0,0.0,0.0,0.0,0.0,0.0,0.0,0.0,0.0,0.0,0.0,0.0,0.0,0.0,0.0,0.0,0.0,0.0,0.0,0.0,0.0,0.0,0.0,0.0,0.0,0.0,0.0,0.0,0.0,0.0,0.0,0.0,0.0,0.0,0.0,0.0,0.0,0.0,0.0,0.0,0.0,0.0,-0.632,-0.6336,-0.6401,-0.6405,-0.6026,-0.5722,0.0,0.0,0.0,0.0,0.0,0.0,0.0,0.0,0.0,0.0,0.0,0.0,0.0,0.0,0.0,0.0,0.0,0.0,0.0,0.0,0.0,0.0,0.0,0.0,0.0,0.0,0.0,0.0,0.0,0.0,0.0,0.0,0.0,0.0,0.0,0.0,0.0,0.0,0.0,0.0,0.0,0.0,0.0,0.0,0.0,0.0,0.0,0.0,0.0,0.0,0.0,0.0,0.0,0.0,0.0,0.0,0.0,0.0,0.0,0.0,0.0,0.0,0.0,0.0,0.0,0.0,0.0,0.0,0.0,0.0,0.0,0.0,0.0,0.0,0.0,0.0,0.0,0.0,0.0,0.0,0.0,0.0,0.0,0.0,0.0,0.0,0.0,0.0,0.0,0.0,0.0,0.0,0.0,0.0,0.0,0.0,0.0,0.0,0.0,0.0,0.0,0.0,0.0,0.0,0.0,0.0,0.0,0.0,-0.6028,-0.6468,-0.6787,-0.6993,-0.6988,-0.648,-0.6064,0.0,0.0,0.0,0.0,0.0,0.0,0.0,0.0,0.0,0.0,0.0,0.0,0.0,0.0,0.0,0.0,0.0,0.0,0.0,0.0,0.0,0.0,0.0,0.0,0.0,0.0,0.0,0.0,0.0,0.0,0.0,0.0,0.0,0.0,0.0,0.0,0.0,0.0,0.0,0.0,0.0,0.0,0.0,0.0,0.0,0.0,0.0,0.0,0.0,0.0,0.0,0.0,0.0,0.0,0.0,0.0,0.0,0.0,0.0,0.0,0.0,0.0,0.0,0.0,0.0,0.0,0.0,0.0,0.0,0.0,0.0,0.0,0.0,0.0,0.0,0.0,0.0,0.0,0.0,0.0,0.0,0.0,0.0,0.0,0.0,0.0,0.0,0.0,0.0,0.0,0.0,0.0,0.0,0.0,0.0,0.0,0.0,0.0,0.0,0.0,0.0,0.0,0.0,0.0,0.0,0.0,0.0,0.0,-0.6142,-0.6538,-0.6975,-0.7265,-0.7442,-0.6981,-0.6527,0.0,0.0,0.0,0.0,0.0,0.0,0.0,0.0,0.0,0.0,0.0,0.0,0.0,0.0,0.0,0.0,0.0,0.0,0.0,0.0,0.0,0.0,0.0,0.0,0.0,0.0,0.0,0.0,0.0,0.0,0.0,0.0,0.0,0.0,0.0,0.0,0.0,0.0,0.0,0.0,0.0,0.0,0.0,0.0,0.0,0.0,0.0,0.0,0.0,0.0,0.0,0.0,0.0,0.0,0.0,0.0,0.0,0.0,0.0,0.0,0.0,0.0,0.0,0.0,0.0,0.0,0.0,0.0,0.0,0.0,0.0,0.0,0.0,0.0,0.0,0.0,0.0,0.0,0.0,0.0,0.0,0.0,0.0,0.0,0.0,0.0,0.0,0.0,0.0,0.0,0.0,0.0,0.0,0.0,0.0,0.0,0.0,0.0,0.0,0.0,0.0,0.0,0.0,0.0,0.0,0.0,0.0,0.0,-0.6186,-0.6775,-0.7053,-0.7265,-0.7521,-0.6856,-0.6421,0.0,0.0,0.0,0.0,0.0,0.0,0.0,0.0,0.0,0.0,0.0,0.0,0.0,0.0,0.0,0.0,0.0,0.0,0.0,0.0,0.0,0.0,0.0,0.0,0.0,0.0,0.0,0.0,0.0,0.0,0.0,0.0,0.0,0.0,0.0,0.0,0.0,0.0,0.0,0.0,0.0,0.0,0.0,0.0,0.0,0.0,0.0,0.0,-0.2239,0.0,0.0,0.0,0.0,0.0,0.0,0.0,0.0,0.0,0.0,0.0,0.0,0.0,0.0,0.0,0.0,0.0,0.0,0.0,0.0,0.0,0.0,0.0,0.0,0.0,0.0,0.0,0.0,0.0,0.0,0.0,0.0,0.0,0.0,0.0,0.0,0.0,0.0,0.0,0.0,0.0,0.0,0.0,0.0,0.0,0.0,0.0,0.0,0.0,0.0,0.0,0.0,0.0,0.0,0.0,0.0,0.0,0.0,0.0,-0.5827,-0.6572,-0.6907,-0.7278,-0.7735,-0.7338,-0.6884,0.0,0.0,0.0,0.0,0.0,0.0,0.0,0.0,0.0,0.0,0.0,0.0,0.0,0.0,0.0,0.0,0.0,0.0,0.0,0.0,0.0,0.0,0.0,0.0,0.0,0.0,0.0,0.0,0.0,0.0,0.0,0.0,0.0,0.0,0.0,0.0,0.0,0.0,0.0,0.0,0.0,0.0,0.0,0.0,0.0,0.0,0.0,0.0,0.0,0.0,0.0,0.0,0.0,0.0,0.0,0.0,0.0,0.0,0.0,0.0,0.0,0.0,0.0,0.0,0.0,0.0,0.0,0.0,0.0,0.0,0.0,0.0,0.0,0.0,0.0,0.0,0.0,0.0,0.0,0.0,0.0,0.0,0.0,0.0,0.0,0.0,0.0,0.0,0.0,0.0,0.0,0.0,0.0,0.0,0.0,0.0,0.0,0.0,0.0,0.0,0.0,0.0,0.0,0.0,0.0,0.0,0.0,-0.4548,-0.5216,-0.6058,-0.6581,-0.7162,-0.7934,-0.7853,-0.7371,-0.6552,0.0,0.0,0.0,0.0,0.0,0.0,0.0,0.0,0.0,0.0,0.0,0.0,0.0,0.0,0.0,0.0,0.0,0.0,0.0,0.0,0.0,0.0,0.0,0.0,0.0,0.0,0.0,0.0,0.0,0.0,0.0,0.0,0.0,0.0,0.0,0.0,0.0,0.0,-0.4075,-0.3749,0.0,0.0,0.0,0.0,0.0,0.0,0.0,0.0,-0.1831,0.0,0.0,0.0,0.0,0.0,0.0,0.0,0.0,0.0,0.0,0.0,0.0,0.0,0.0,0.0,0.0,0.0,0.0,0.0,0.0,0.0,0.0,0.0,0.0,0.0,0.0,0.0,0.0,0.0,0.0,0.0,0.0,0.0,0.0,0.0,0.0,0.0,0.0,0.0,0.0,0.0,0.0,0.0,0.0,0.0,0.0,0.0,0.0,0.0,0.0,0.0,0.0,0.0,0.0,0.0,0.0,-0.3834,-0.4022,-0.4581,-0.5525,-0.6069,-0.673,-0.7287,-0.7455,-0.73,-0.6759,0.0,0.0,0.0,0.0,0.0,0.0,0.0,0.0,0.0,0.0,0.0,0.0,0.0,0.0,0.0,0.0,0.0,0.0,0.0,0.0,0.0,0.0,0.0,0.0,0.0,0.0,0.0,0.0,0.0,0.0,0.0,0.0,0.0,0.0,0.0,0.0,0.0,0.0,0.0,-0.3535,-0.32,0.0,0.0,0.0,0.0,0.0,0.0,0.0,0.0,-0.1804,0.0,0.0,0.0,0.0,0.0,0.0,0.0,0.0,0.0,0.0,0.0,0.0,0.0,0.0,0.0,0.0,0.0,0.0,0.0,0.0,0.0,0.0,0.0,0.0,0.0,0.0,0.0,0.0,0.0,0.0,0.0,0.0,0.0,0.0,0.0,0.0,0.0,0.0,0.0,0.0,0.0,0.0,0.0,0.0,0.0,0.0,0.0,0.0,0.0,0.0,0.0,0.0,0.0,0.0,0.0,-0.3079,-0.3445,-0.3966,-0.4739,-0.5202,-0.5796,-0.6385,-0.6722,-0.6668,0.0,0.0,0.0,0.0,0.0,0.0,0.0,0.0,0.0,0.0,0.0,0.0,0.0,0.0,0.0,0.0,0.0,0.0,0.0,0.0,0.0,0.0,0.0,0.0,0.0,0.0,0.0,0.0,0.0,0.0,0.0,0.0,0.0,0.0,0.0,0.0,0.0,0.0,0.0,0.0,-0.3108,-0.2871,-0.2873,0.0,0.0,0.0,0.0,0.0,0.0,-0.1902,-0.1818,0.0,0.0,0.0,0.0,0.0,0.0,0.0,0.0,0.0,0.0,0.0,0.0,0.0,0.0,0.0,0.0,0.0,0.0,0.0,0.0,0.0,0.0,0.0,0.0,0.0,0.0,0.0,0.0,0.0,0.0,0.0,0.0,0.0,0.0,0.0,0.0,0.0,0.0,0.0,0.0,0.0,0.0,0.0,0.0,0.0,0.0,0.0,0.0,0.0,0.0,0.0,0.0,0.0,0.0,0.0,-0.2384,-0.2936,-0.3426,-0.3904,-0.4377,-0.4841,-0.5372,-0.5881,-0.5905,0.0,0.0,0.0,0.0,0.0,0.0,0.0,0.0,0.0,0.0,0.0,0.0,0.0,0.0,0.0,0.0,0.0,0.0,0.0,0.0,0.0,0.0,0.0,0.0,0.0,0.0,0.0,0.0,0.0,0.0,0.0,0.0,0.0,0.0,0.0,0.0,0.0,0.0,0.0,0.0,0.0,-0.2592,-0.2789,-0.246,0.0,0.0,0.0,0.0,-0.1942,-0.197,0.0,0.0,0.0,0.0,0.0,0.0,0.0,0.0,0.0,0.0,0.0,0.0,0.0,0.0,0.0,0.0,0.0,0.0,0.0,0.0,0.0,0.0,0.0,0.0,0.0,0.0,0.0,0.0,0.0,0.0,0.0,0.0,0.0,0.0,0.0,0.0,0.0,0.0,0.0,0.0,0.0,0.0,0.0,0.0,0.0,0.0,0.0,0.0,0.0,0.0,0.0,0.0,0.0,0.0,0.0,0.0,-0.219,-0.2518,-0.2835,-0.3207,-0.3834,-0.4377,-0.4756,-0.5191,-0.5308,0.0,0.0,0.0,0.0,0.0,0.0,0.0,0.0,0.0,0.0,0.0,0.0,0.0,0.0,0.0,0.0,0.0,0.0,0.0,0.0,0.0,0.0,0.0,0.0,0.0,0.0,0.0,0.0,0.0,0.0,0.0,0.0,0.0,0.0,0.0,0.0,0.0,0.0,0.0,0.0,0.0,-0.2553,-0.2799,-0.2444,-0.2139,0.0,0.0,-0.2061,-0.2013,-0.2069,0.0,0.0,0.0,0.0,0.0,0.0,0.0,0.0,0.0,0.0,0.0,0.0,0.0,0.0,0.0,0.0,0.0,0.0,0.0,0.0,0.0,0.0,0.0,0.0,0.0,0.0,0.0,0.0,0.0,0.0,0.0,0.0,0.0,0.0,0.0,0.0,0.0,0.0,0.0,0.0,0.0,0.0,0.0,0.0,0.0,0.0,0.0,0.0,0.0,0.0,0.0,0.0,0.0,0.0,0.0,-0.209,-0.2183,-0.2397,-0.2611,-0.2743,-0.3057,-0.3288,-0.3443,-0.3897,-0.4102,0.0,0.0,0.0,0.0,0.0,0.0,0.0,0.0,0.0,0.0,0.0,0.0,0.0,0.0,0.0,0.0,0.0,0.0,0.0,0.0,0.0,0.0,0.0,0.0,0.0,0.0,0.0,0.0,0.0,0.0,0.0,0.0,0.0,0.0,0.0,0.0,0.0,0.0,0.0,0.0,0.0,0.0,-0.2586,-0.2393,0.0,0.0,0.0,-0.2132,-0.2131,0.0,0.0,0.0,0.0,0.0,0.0,0.0,0.0,0.0,0.0,0.0,0.0,0.0,0.0,0.0,0.0,0.0,0.0,0.0,0.0,0.0,0.0,0.0,0.0,0.0,0.0,0.0,0.0,0.0,0.0,0.0,0.0,0.0,0.0,0.0,0.0,0.0,0.0,0.0,0.0,0.0,0.0,0.0,0.0,0.0,0.0,0.0,0.0,0.0,0.0,0.0,0.0,0.0,0.0,0.0,0.0,0.0,-0.2223,-0.2388,-0.251,-0.251,-0.251,-0.251,-0.2506,-0.295,0.0,0.0,0.0,0.0,0.0,0.0,0.0,0.0,0.0,0.0,0.0,0.0,0.0,0.0,0.0,0.0,0.0,0.0,0.0,0.0,0.0,0.0,0.0,0.0,0.0,0.0,0.0,-0.2178,0.0,0.0,0.0,0.0,0.0,0.0,0.0,0.0,0.0,0.0,0.0,0.0,0.0,0.0,-0.2314,-0.2458,-0.2346,-0.2173,0.0,0.0,-0.2179,-0.2256,-0.2249,-0.2226,0.0,0.0,0.0,0.0,0.0,0.0,0.0,0.0,0.0,0.0,0.0,0.0,0.0,0.0,0.0,0.0,0.0,0.0,0.0,0.0,0.0,0.0,0.0,0.0,0.0,0.0,0.0,0.0,0.0,0.0,0.0,0.0,0.0,0.0,0.0,0.0,0.0,0.0,0.0,0.0,0.0,0.0,0.0,0.0,0.0,0.0,0.0,0.0,0.0,0.0,0.0,0.0,0.0,0.0,0.0,-0.2224,-0.2388,-0.251,-0.251,-0.251,-0.251,-0.2508,-0.2682,-0.2861,0.0,0.0,0.0,0.0,0.0,0.0,0.0,0.0,0.0,0.0,0.0,0.0,0.0,0.0,0.0,0.0,0.0,0.0,0.0,0.0,0.0,0.0,0.0,0.0,0.0,0.0,0.0,0.0,0.0,0.0,0.0,0.0,0.0,0.0,0.0,0.0,0.0,0.0,0.0,0.0,0.0,-0.2389,-0.2398,-0.2283,-0.217,0.0,0.0,-0.2256,-0.2305,-0.2369,-0.2347,-0.2237,0.0,0.0,0.0,0.0,0.0,0.0,0.0,0.0,0.0,0.0,0.0,0.0,0.0,0.0,0.0,0.0,0.0,0.0,0.0,0.0,0.0,0.0,0.0,0.0,0.0,0.0,0.0,0.0,0.0,0.0,0.0,0.0,0.0,0.0,0.0,0.0,0.0,0.0,0.0,0.0,0.0,0.0,0.0,0.0,0.0,0.0,0.0,0.0,0.0,0.0,0.0,0.0,0.0,-0.2031,-0.2221,-0.239,-0.251,-0.251,-0.251,-0.251,-0.251,-0.2618,-0.2617,0.0,0.0,0.0,0.0,0.0,0.0,0.0,0.0,0.0,0.0,0.0,0.0,0.0,0.0,0.0,0.0,0.0,0.0,0.0,0.0,0.0,0.0,0.0,0.0,0.0,0.0,0.0,0.0,-0.1965,-0.1996,-0.1877,0.0,0.0,0.0,0.0,0.0,0.0,0.0,0.0,0.0,0.0,-0.2346,-0.2521,-0.2364,0.0,0.0,-0.2332,-0.2322,-0.2334,-0.2353,-0.2307,-0.2127,-0.2058,0.0,0.0,0.0,0.0,0.0,0.0,0.0,0.0,0.0,0.0,0.0,0.0,0.0,0.0,0.0,0.0,0.0,0.0,0.0,0.0,0.0,0.0,0.0,0.0,0.0,0.0,0.0,0.0,0.0,0.0,0.0,0.0,0.0,0.0,0.0,0.0,0.0,0.0,0.0,0.0,0.0,0.0,0.0,0.0,0.0,0.0,0.0,0.0,0.0,0.0,0.0,0.0,-0.2095,-0.2221,-0.2388,-0.251,-0.251,-0.251,-0.251,-0.2507,-0.2579,-0.2546,0.0,0.0,0.0,0.0,0.0,0.0,0.0,0.0,0.0,0.0,0.0,0.0,0.0,0.0,0.0,0.0,0.0,0.0,0.0,0.0,0.0,0.0,0.0,0.0,0.0,0.0,0.0,0.0,-0.186,-0.1857,-0.1696,0.0,0.0,0.0,0.0,0.0,0.0,0.0,0.0,0.0,0.0,-0.2394,-0.2458,-0.2442,-0.2394,-0.2394,-0.2364,-0.2332,-0.2312,-0.2293,-0.2238,-0.211,0.0,0.0,0.0,0.0,0.0,0.0,0.0,0.0,0.0,0.0,0.0,0.0,0.0,0.0,0.0,0.0,0.0,0.0,0.0,0.0,0.0,0.0,0.0,0.0,0.0,0.0,0.0,0.0,0.0,0.0,-0.1327,0.0,0.0,0.0,0.0,0.0,0.0,0.0,0.0,0.0,0.0,0.0,0.0,0.0,0.0,0.0,0.0,0.0,0.0,0.0,0.0,0.0,0.0,-0.2098,-0.2223,-0.239,-0.251,-0.251,-0.251,-0.251,-0.251,-0.2507,-0.2525,-0.2616,0.0,0.0,0.0,0.0,0.0,0.0,0.0,0.0,0.0,0.0,0.0,0.0,0.0,0.0,0.0,0.0,0.0,0.0,0.0,0.0,0.0,0.0,0.0,0.0,0.0,0.0,-0.1721,-0.1764,-0.1755,0.0,0.0,0.0,0.0,0.0,0.0,0.0,0.0,0.0,0.0,-0.2447,-0.2543,-0.2331,-0.2335,-0.2338,-0.2338,-0.224,-0.2181,-0.217,-0.2198,-0.2223,0.0,0.0,0.0,0.0,0.0,0.0,0.0,0.0,0.0,0.0,0.0,0.0,0.0,0.0,0.0,0.0,0.0,0.0,0.0,0.0,0.0,0.0,0.0,0.0,0.0,0.0,0.0,-0.1771,-0.1736,0.0,0.0,0.0,0.0,0.0,0.0,0.0,0.0,0.0,0.0,0.0,-0.2027,-0.2223,0.0,0.0,0.0,0.0,0.0,0.0,0.0,0.0,0.0,0.0,0.0,0.0,-0.2093,-0.2217,-0.2409,-0.251,-0.251,-0.251,-0.251,-0.251,-0.251,-0.253,-0.2625,0.0,0.0,0.0,0.0,0.0,0.0,0.0,0.0,0.0,0.0,0.0,0.0,0.0,0.0,0.0,0.0,0.0,0.0,0.0,0.0,0.0,0.0,0.0,0.0,0.0,-0.1845,0.0,0.0,0.0,0.0,0.0,0.0,0.0,0.0,0.0,0.0,0.0,-0.212,-0.2202,-0.2256,-0.2297,-0.2199,-0.2203,-0.2289,0.0,0.0,0.0,0.0,0.0,0.0,0.0,0.0,0.0,0.0,0.0,0.0,0.0,0.0,-0.0934,-0.0903,-0.0856,-0.0695,-0.0348,0.0,0.0,0.0,0.0,0.0,0.0,0.0,0.0,0.0,0.0,0.0,0.0,0.0,0.0,-0.2017,0.0,-0.1958,0.0,0.0,0.0,0.0,0.0,0.0,0.0,0.0,-0.1952,-0.2089,-0.2248,-0.2481,-0.2527,0.0,-0.2256,-0.2097,0.0,0.0,0.0,0.0,0.0,0.0,0.0,0.0,-0.2154,-0.2207,-0.2473,-0.2574,-0.2493,-0.2574,-0.2572,-0.2574,-0.2574,-0.2616,-0.2611,-0.2466,-0.2397,0.0,0.0,0.0,0.0,0.0,0.0,0.0,0.0,0.0,0.0,0.0,0.0,0.0,0.0,0.0,0.0,0.0,0.0,0.0,0.0,0.0,0.0,0.0,-0.189,0.0,0.0,0.0,0.0,0.0,0.0,0.0,0.0,0.0,-0.1877,-0.1971,-0.2079,-0.2196,-0.2215,-0.2208,-0.2184,0.0,0.0,0.0,0.0,0.0,0.0,0.0,-0.2128,-0.2067,-0.2083,-0.2045,-0.1746,-0.1527,-0.1315,-0.1063,0.0,0.0,-0.1062,-0.1069,-0.0957,-0.0829,-0.0765,-0.0764,-0.0701,-0.0764,-0.0509,0.0,0.0,0.0,0.0,0.0,0.0,0.0,0.0,-0.2168,-0.2304,0.0,-0.2238,0.0,0.0,0.0,0.0,0.0,-0.1644,0.0,0.0,-0.1971,-0.2015,-0.2281,-0.2564,-0.2718,-0.2734,-0.2502,-0.2398,-0.2332,-0.211,0.0,0.0,0.0,0.0,0.0,0.0,-0.2221,-0.2201,-0.2492,-0.2692,-0.2606,-0.2691,-0.2691,-0.2691,-0.2691,-0.2688,-0.2684,-0.2676,-0.2578,-0.2568,-0.2419,0.0,0.0,0.0,0.0,0.0,0.0,0.0,0.0,0.0,0.0,0.0,0.0,0.0,0.0,0.0,0.0,0.0,0.0,0.0,0.0,-0.1887,0.0,0.0,0.0,0.0,0.0,0.0,0.0,0.0,0.0,0.0,-0.1902,-0.2109,-0.2221,-0.2225,0.0,0.0,0.0,0.0,-0.2268,-0.2165,-0.2133,-0.2134,-0.2075,-0.2137,-0.2109,-0.2153,0.0,0.0,-0.1825,-0.168,-0.1504,-0.1191,-0.1149,-0.1151,-0.1093,-0.1154,-0.1087,-0.1087,-0.1089,-0.1085,-0.1086,-0.1091,-0.0952,-0.2415,0.0,0.0,0.0,0.0,-0.2228,-0.2278,-0.2185,-0.2377,-0.2526,-0.2634,-0.2464,0.0,0.0,0.0,0.0,0.0,0.0,-0.1635,-0.1755,-0.2057,-0.2103,-0.2041,-0.2467,-0.2714,-0.2861,-0.2696,-0.2606,-0.2587,-0.252,-0.2339,-0.212,0.0,0.0,0.0,0.0,-0.2364,-0.2442,-0.2554,-0.2694,-0.2778,-0.2694,-0.2694,-0.2694,-0.2694,-0.2694,-0.2692,-0.2724,-0.2655,-0.2564,-0.246,0.0,0.0,0.0,0.0,0.0,0.0,0.0,0.0,0.0,0.0,0.0,0.0,0.0,0.0,0.0,0.0,0.0,0.0,0.0,-0.1939,-0.2088,-0.1996,0.0,0.0,0.0,0.0,0.0,0.0,0.0,0.0,0.0,-0.2135,-0.2147,-0.217,0.0,0.0,-0.2172,-0.214,-0.2144,-0.2203,-0.2194,-0.2157,0.0,0.0,-0.2221,-0.2136,-0.2028,-0.1821,-0.1723,-0.1573,-0.1503,-0.136,-0.1217,-0.1226,-0.1301,-0.1211,-0.1206,-0.1205,-0.1206,-0.1282,-0.1281,-0.1282,-0.1206,-0.1053,-0.2716,-0.2327,-0.2427,-0.2378,-0.2322,-0.2409,-0.2447,-0.2422,-0.2621,-0.2699,-0.2744,-0.2501,-0.2292,-0.2132,-0.1858,0.0,0.0,0.0,-0.1895,-0.2021,-0.2129,-0.2075,-0.2018,-0.2547,-0.2814,-0.2902,-0.2839,-0.2764,-0.2763,-0.274,-0.2606,-0.2372,0.0,0.0,-0.2315,-0.2398,-0.2426,-0.2551,-0.2636,-0.2764,-0.2851,-0.2764,-0.2766,-0.2764,-0.2764,-0.2764,-0.2764,-0.2741,-0.2695,-0.2621,-0.2549,-0.2413,0.0,0.0,0.0,0.0,0.0,0.0,0.0,0.0,0.0,0.0,0.0,-0.1594,0.0,0.0,0.0,0.0,-0.1978,-0.2041,-0.2076,-0.2082,0.0,0.0,0.0,0.0,0.0,0.0,0.0,-0.1936,-0.2065,-0.2176,-0.2165,-0.2213,-0.2213,-0.2202,-0.2249,-0.2195,-0.2176,0.0,-0.2264,-0.2279,-0.2268,-0.2293,-0.2388,-0.2394,-0.2318,-0.2116,-0.1937,-0.1738,-0.1582,-0.1521,-0.1453,-0.1293,-0.1293,-0.1293,-0.1293,-0.1293,-0.1284,-0.1341,-0.1336,-0.1336,-0.1336,-0.1336,-0.11,-0.298,-0.2767,-0.2689,-0.2684,-0.2714,-0.2661,-0.2669,-0.2719,-0.2721,-0.2806,-0.2891,-0.2548,-0.2266,-0.2216,-0.2011,0.0,-0.2294,-0.2294,-0.2404,-0.2621,-0.2198,-0.2028,-0.2031,-0.2591,-0.2877,-0.2879,-0.2936,-0.2875,-0.2871,-0.2816,-0.2762,-0.2706,-0.26,-0.2511,-0.2451,-0.2553,-0.2558,-0.2537,-0.2818,-0.2873,-0.2873,-0.2875,-0.2875,-0.2873,-0.2875,-0.2873,-0.2872,-0.282,-0.279,-0.2785,-0.2629,-0.2533,-0.2508,0.0,0.0,0.0,0.0,0.0,0.0,0.0,0.0,0.0,0.0,0.0,0.0,0.0,0.0,0.0,-0.2185,0.0,-0.2182,-0.21,0.0,0.0,0.0,-0.189,-0.2117,-0.2078,-0.2172,-0.2228,0.0,0.0,-0.2264,0.0,-0.2224,-0.2356,-0.2352,-0.2304,-0.2266,-0.2327,-0.2416,-0.2369,-0.2406,-0.2459,-0.2516,-0.2564,-0.2525,-0.2322,-0.2271,-0.2094,-0.1758,-0.1676,-0.1512,-0.1344,-0.1348,-0.1346,-0.1348,-0.1343,-0.1331,-0.1277,-0.1343,-0.1341,-0.1337,-0.1336,-0.1258,-0.3326,-0.3211,-0.3199,-0.2982,-0.2686,-0.2856,-0.2951,-0.2871,-0.2963,-0.3056,-0.3057,-0.2965,-0.2749,-0.2517,-0.2505,-0.2395,-0.2193,-0.2018,-0.1935,-0.2033,-0.2121,-0.2121,-0.221,-0.2667,-0.2942,-0.2943,-0.2867,-0.2875,-0.2873,-0.2858,-0.2846,-0.2832,-0.2845,-0.2777,-0.2635,-0.2657,-0.2723,-0.283,-0.286,-0.2875,-0.2875,-0.2875,-0.2875,-0.2875,-0.2875,-0.2875,-0.2875,-0.2861,-0.2853,-0.2852,-0.2811,-0.2723,-0.2586,-0.2371,0.0,0.0,0.0,0.0,0.0,0.0,0.0,0.0,0.0,-0.1725,-0.1797,0.0,-0.2037,0.0,-0.2282,-0.236,-0.2319,-0.2274,0.0,0.0,-0.2159,-0.2151,-0.2195,-0.2215,-0.2277,-0.229,-0.2371,-0.2448,-0.2508,-0.2516,-0.2538,-0.2595,-0.2486,-0.2405,-0.2422,-0.2499,-0.2553,-0.2544,-0.2586,-0.2632,-0.2646,-0.2493,-0.2425,-0.2353,-0.2104,-0.185,-0.1682,-0.1514,-0.1347,-0.1348,-0.1348,-0.1348,-0.135,-0.1348,-0.1345,-0.1328,-0.1308,-0.1284,-0.1341,-0.1337,-0.1337,-0.3413,-0.3409,-0.3376,-0.3199,-0.3004,-0.3124,-0.3089,-0.2991,-0.3061,-0.3146,-0.3146,-0.2954,-0.2841,-0.2627,-0.2626,-0.261,-0.2583,-0.2489,-0.2397,-0.2396,-0.2212,-0.2305,-0.2489,-0.2859,-0.2951,-0.2952,-0.2951,-0.2952,-0.2952,-0.2951,-0.2951,-0.2952,-0.2984,-0.295,-0.2856,-0.285,-0.2884,-0.2951,-0.2952,-0.2951,-0.2952,-0.2952,-0.2926,-0.2875,-0.2847,-0.2808,-0.2755,-0.2726,-0.2713,-0.2713,-0.2711,-0.2668,-0.2564,-0.2392,-0.2208,0.0,0.0,0.0,0.0,0.0,0.0,0.0,0.0,0.0,0.0,0.0,-0.2158,-0.2192,-0.2331,-0.2397,-0.2341,-0.2261,-0.2328,-0.2315,-0.2313,-0.2334,-0.2388,-0.2454,-0.2495,-0.2495,-0.2552,-0.2604,-0.2636,-0.2642,-0.2664,-0.2723,-0.2646,-0.2583,-0.2591,-0.2623,-0.2651,-0.2679,-0.2711,-0.2744,-0.2767,-0.2686,-0.26,-0.2426,-0.2166,-0.1905,-0.1732,-0.1473,-0.13,-0.1387,-0.13,-0.13,-0.13,-0.1386,-0.1383,-0.1367,-0.1353,-0.1332,-0.1304,-0.1297,-0.1297,-0.3435,-0.3435,-0.3436,-0.3436,-0.3421,-0.3256,-0.3082,-0.3073,-0.3119,-0.3188,-0.3179,-0.2889,-0.2787,-0.2772,-0.2772,-0.2865,-0.3146,-0.3049,-0.3049,-0.3049,-0.2476,-0.2476,-0.2859,-0.3049,-0.3146,-0.3146,-0.3146,-0.3146,-0.3146,-0.3146,-0.3146,-0.3146,-0.3153,-0.3155,-0.3157,-0.3068,-0.3064,-0.3049,-0.3042,-0.3037,-0.3037,-0.3118,-0.2966,-0.2867,-0.2796,-0.271,-0.2606,-0.2544,-0.251,-0.2511,-0.2518,-0.2525,-0.253,-0.2372,-0.2255,0.0,-0.2035,0.0,0.0,0.0,0.0,0.0,0.0,0.0,0.0,-0.227,-0.2211,-0.2217,-0.2383,-0.2426,-0.2384,-0.238,-0.2422,-0.2519,-0.2534,-0.2576,-0.2677,-0.2694,-0.2695,-0.2702,-0.2704,-0.2706,-0.2717,-0.2715,-0.2738,-0.2785,-0.2788,-0.2762,-0.2728,-0.2718,-0.2737,-0.2789,-0.2796,-0.2811,-0.2852,-0.2868,-0.2777,-0.2511,-0.2237,-0.2064,-0.188,-0.1612,-0.1434,-0.1433,-0.1431,-0.1433,-0.1436,-0.1433,-0.1425,-0.1401,-0.1394,-0.1382,-0.1353,-0.1343,-0.1348,-0.3553,-0.3553,-0.3555,-0.3555,-0.3546,-0.3463,-0.3297,-0.315,-0.3349,-0.3316,-0.327,-0.3168,-0.3114,-0.3027,-0.3025,-0.3097,-0.305,-0.2859,-0.2762,-0.2762,-0.2476,-0.2286,-0.2476,-0.2954,-0.3146,-0.3146,-0.3146,-0.3146,-0.3146,-0.3146,-0.3146,-0.3146,-0.3098,-0.3123,-0.3125,0.0,0.0,0.0,-0.3094,-0.2976,-0.2971,-0.2882,-0.2823,-0.2798,-0.2692,0.0,-0.2601,-0.2544,-0.251,-0.2511,-0.2557,0.0,0.0,0.0,0.0,0.0,0.0,0.0,0.0,0.0,0.0,0.0,-0.2249,-0.2258,-0.2322,-0.2405,-0.2481,-0.2529,-0.2555,-0.2583,-0.2621,-0.2625,-0.2634,-0.2654,-0.2658,-0.2668,-0.2691,-0.2695,-0.271,-0.276,-0.2766,-0.2785,-0.2827,-0.2841,-0.2842,-0.285,-0.2857,-0.2853,-0.2839,-0.2832,-0.2843,-0.2854,-0.2853,-0.2858,-0.2873,-0.2694,-0.2604,-0.2425,-0.2155,-0.1885,-0.1795,-0.1615,-0.1436,-0.1436,-0.1436,-0.1436,-0.1436,-0.1436,-0.1433,-0.1427,-0.1426,-0.1411,-0.1275,-0.1348,-0.1348,-0.3587,0.0,-0.3587,-0.3587,0.0,-0.3555,-0.3525,-0.3386,-0.3437,-0.3395,-0.3367,-0.3365,-0.3332,-0.3273,-0.3243,-0.3213,-0.3183,-0.3054,-0.2942,-0.2942,-0.2844,-0.2745,-0.2745,-0.304,-0.3237,-0.3237,-0.3139,-0.3139,-0.3138,-0.3138,-0.3139,-0.3139,-0.317,-0.3184,-0.3185,-0.3215,-0.3199,-0.3139,-0.3109,-0.3093,-0.309,-0.3034,-0.2976,-0.2914,0.0,0.0,0.0,0.0,0.0,0.0,0.0,0.0,0.0,0.0,0.0,-0.2553,-0.247,-0.2436,-0.2465,-0.2493,-0.2538,-0.2516,-0.2628,-0.2594,-0.2477,-0.2576,-0.2644,-0.2646,-0.2646,-0.2672,-0.2729,-0.2737,-0.2749,-0.2778,-0.2782,-0.2782,-0.2782,-0.2782,-0.2794,-0.282,-0.2828,-0.2841,-0.2871,-0.2875,-0.2875,-0.2875,-0.2875,-0.2876,-0.2875,-0.2875,-0.2875,-0.2784,-0.2694,-0.2694,-0.2604,-0.2425,-0.2335,-0.2334,-0.2064,-0.1795,-0.1795,-0.1615,-0.1436,-0.1436,-0.1436,-0.1436,-0.1436,-0.1436,-0.1436,-0.1436,-0.1436,-0.1428,-0.1396,-0.1391,-0.1391,-0.3587,-0.3587,-0.3587,-0.3587,-0.3587,-0.3587,-0.3587,-0.358,0.0,0.0,0.0,-0.3428,-0.3422,-0.3409,-0.3358,-0.3338,-0.3332,-0.3274,-0.3247,-0.3245,-0.3236,-0.323,-0.323,-0.323,-0.323,-0.323,-0.323,-0.323,-0.323,-0.323,-0.323,-0.323,-0.323,-0.323,-0.323,-0.323,-0.323,-0.323,-0.3219,-0.3215,-0.3214,-0.3194,-0.3134,-0.3129,-0.2965,-0.2882,-0.2788,-0.2723,-0.2694,-0.2694,-0.2703,-0.2713,-0.2722,-0.2687,-0.2669,-0.2677,-0.2634,-0.2646,-0.2733,-0.274,-0.2778,-0.2869,-0.2875,-0.2811,-0.2659,-0.2741,-0.2779,-0.2728,-0.2725,-0.2745,-0.2794,-0.2798,-0.282,-0.2869,-0.2875,-0.2873,-0.2873,-0.2875,-0.2869,-0.2875,-0.2872,-0.2875,-0.2875,-0.2875,-0.2875,-0.2876,-0.2886,-0.2895,-0.2899,-0.289,-0.2694,-0.2604,-0.2524,-0.2439,-0.2258,-0.2179,-0.2176,-0.2095,-0.191,-0.1724,-0.1723,-0.1537,-0.1444,-0.1446,-0.144,-0.1436,-0.1436,-0.1436,-0.1436,-0.1436,-0.1436,-0.1436,-0.1436,-0.1435,-0.1433,-0.3587,-0.3587,-0.3587,-0.3587,-0.3587,-0.3587,-0.3587,-0.3586,-0.3568,-0.3534,-0.3484,-0.3485,-0.3458,-0.3412,-0.3403,-0.3399,-0.3397,-0.3337,-0.3308,-0.3305,-0.3253,-0.323,-0.323,-0.323,-0.323,-0.323,-0.323,-0.323,-0.323,-0.323,-0.323,-0.323,-0.323,-0.323,-0.323,-0.323,-0.323,-0.323,-0.3179,-0.3153,-0.3151,-0.305,-0.3082,-0.2967,-0.2871,-0.2801,-0.2783,-0.2729,-0.2694,-0.2695,-0.2741,-0.2793,-0.2846,-0.2886,-0.2932,-0.3074,-0.3071,-0.3052,-0.3014,-0.3011,-0.2906,-0.2877,-0.2875,-0.2861,-0.2839,-0.285,-0.2858,-0.2849,-0.2843,-0.285,-0.2861,-0.2858,-0.2862,-0.2872,-0.2875,-0.2875,-0.2875,-0.2875,-0.2875,-0.2875,-0.2875,-0.2877,-0.2879,-0.288,-0.2886,-0.2886,-0.2922,-0.2963,-0.2986,-0.2753,-0.2521,-0.2521,-0.2371,-0.2209,-0.2123,-0.2059,-0.1976,-0.1893,-0.1698,-0.16,-0.16,-0.1489,-0.1475,-0.1474,-0.1457,-0.1442,-0.144,-0.1436,-0.1441,-0.1442,-0.1443,-0.1442,-0.1442,-0.1441,-0.1438,-0.3587,-0.3587,-0.3587,-0.3587,-0.3587,-0.3587,-0.3587,-0.3587,-0.3587,-0.3572,-0.3548,-0.3546,-0.3531,-0.3506,-0.3473,-0.3458,-0.3455,-0.3398,-0.3371,-0.3368,-0.3342,-0.3225,-0.3222,-0.3193,-0.3279,-0.3174,-0.3245,-0.323,-0.323,-0.323,-0.323,-0.323,-0.323,-0.323,-0.323,-0.323,-0.323,-0.3229,-0.3203,-0.3189,-0.3188,-0.3135,-0.3106,-0.3105,-0.3052,-0.3026,-0.3025,-0.2999,-0.2984,-0.2985,-0.3011,-0.304,-0.3065,-0.3061,-0.307,-0.3094,-0.3067,-0.3037,-0.3103,-0.3008,-0.3091,-0.2971,-0.297,-0.2969,-0.2969,-0.291,-0.2875,-0.2875,-0.2875,-0.2875,-0.2875,-0.2875,-0.2875,-0.2875,-0.2875,-0.2875,-0.2875,-0.2875,-0.2875,-0.2877,-0.2902,-0.292,-0.292,-0.2948,-0.2969,-0.2971,-0.3088,-0.3021,-0.3046,-0.2725,-0.2414,-0.2416,-0.2339,-0.2163,-0.1883,-0.1705,-0.1716,-0.1717,-0.1622,-0.1526,-0.1525,-0.1512,-0.1507,-0.1505,-0.1492,-0.1486,-0.1484,-0.1485,-0.1485,-0.1484,-0.1485,-0.1485,-0.1484,-0.1473,-0.1455,-0.3587,-0.3587,-0.3587,-0.3587,-0.3587,-0.3587,-0.3587,-0.3587,-0.3587,-0.3587,-0.3587,-0.3587,-0.3587,-0.3582,-0.3538,-0.3518,-0.351,-0.3458,-0.3431,-0.3431,-0.331,-0.3305,-0.3301,-0.3258,-0.3238,-0.3232,-0.319,-0.3264,-0.3253,-0.3251,-0.3244,-0.3232,-0.323,-0.323,-0.323,-0.323,-0.323,-0.323,-0.323,-0.323,-0.323,-0.323,-0.323,-0.323,-0.3229,-0.323,-0.323,-0.323,-0.323,-0.323,-0.323,-0.323,-0.3229,-0.3187,-0.3159,-0.3155,-0.3116,-0.3083,-0.307,-0.3151,-0.3146,-0.3146,-0.3146,-0.3144,-0.3137,-0.2967,-0.2913,-0.2913,-0.292,-0.2917,-0.292,-0.2918,-0.2914,-0.2914,-0.2913,-0.292,-0.2914,-0.2913,-0.2914,-0.2918,-0.2952,-0.298,-0.2986,-0.3113,-0.3144,-0.3063,-0.307,-0.2976,-0.2988,-0.2608,-0.2319,-0.2222,-0.2216,-0.2017,-0.1537,-0.1545,-0.1549,-0.1547,-0.1549,-0.1552,-0.155,-0.1545,-0.1536,-0.1535,-0.1528,-0.1521,-0.1524,-0.1524,-0.1522,-0.1519,-0.1519,-0.1522,-0.1519,-0.1506,-0.1477,-0.3589,-0.3587,-0.359,-0.3587,-0.3587,-0.3587,-0.3587,-0.3587,-0.3587,-0.3587,-0.3587,-0.3587,-0.3587,-0.3587,-0.358,-0.3576,-0.3572,-0.3515,-0.3489,-0.3482,-0.3436,-0.3413,-0.3418,-0.3407,-0.3405,-0.3402,-0.3394,-0.336,-0.3315,-0.3313,-0.3286,-0.3237,-0.323,-0.3232,-0.323,-0.323,-0.323,-0.323,-0.323,-0.323,-0.323,-0.323,-0.323,-0.323,-0.323,-0.323,-0.323,-0.323,-0.323,-0.323,-0.323,-0.323,-0.323,-0.3225,-0.3221,-0.3219,-0.3215,-0.3191,-0.3135,-0.308,-0.315,-0.3146,-0.3151,-0.3151,-0.3151,-0.3137,-0.3127,-0.3031,-0.3126,-0.3025,-0.3126,-0.3122,-0.3116,-0.3018,-0.3022,-0.3033,-0.3025,-0.3127,-0.3127,-0.3127,-0.3031,-0.304,-0.3042,-0.3055,-0.3078,-0.3028,-0.2838,-0.2752,-0.2784,-0.2495,-0.2297,-0.2099,-0.1883,-0.1667,-0.157,-0.1592,-0.1597,-0.1603,-0.1606,-0.1601,-0.1594,-0.1581,-0.1568,-0.1566,-0.1549,-0.1536,-0.1533,-0.1526,-0.153,-0.1539,-0.1537,-0.153,-0.1527,-0.1525,-0.1502,-0.3673,-0.3642,-0.364,-0.362,-0.359,-0.3587,-0.3587,-0.3587,-0.3587,-0.3587,-0.3587,-0.3587,-0.3587,-0.3587,-0.3587,-0.3587,-0.3586,-0.3561,-0.355,-0.3549,-0.3526,-0.3515,-0.3512,-0.3477,-0.3462,-0.3458,-0.3429,-0.3399,-0.338,-0.3375,-0.3345,-0.329,-0.3285,-0.3267,-0.3234,-0.323,-0.323,-0.323,-0.323,-0.323,-0.323,-0.323,-0.323,-0.323,-0.323,-0.323,-0.323,-0.323,-0.323,-0.323,-0.323,-0.323,-0.323,-0.323,-0.323,-0.323,-0.323,-0.3221,-0.3195,-0.317,-0.3157,-0.3155,-0.3155,-0.3155,-0.3155,-0.3157,-0.3155,-0.3149,-0.3091,-0.3146,-0.3147,-0.3146,-0.3146,-0.3049,-0.2954,-0.2765,-0.2762,-0.2671,-0.267,-0.2765,-0.2791,-0.2909,-0.2816,-0.2741,-0.2669,-0.2691,-0.2593,-0.2502,-0.252,-0.2322,-0.2122,-0.2019,-0.1806,-0.16,-0.1598,-0.1607,-0.1615,-0.1617,-0.1617,-0.1617,-0.1614,-0.1609,-0.1598,-0.1598,-0.1584,-0.1576,-0.1583,-0.158,-0.158,-0.1577,-0.1578,-0.1575,-0.1558,-0.1553,-0.1533,-0.3744,-0.3704,-0.3685,-0.3653,-0.3612,-0.3594,-0.3587,-0.3587,-0.3587,-0.3587,-0.3587,-0.3587,-0.3587,-0.3587,-0.3587,-0.3587,-0.3587,-0.3587,-0.3587,-0.3587,-0.3587,-0.3587,-0.3582,-0.3545,-0.3521,-0.3623,-0.3482,-0.3452,-0.3436,-0.3417,-0.3388,-0.3352,-0.3346,-0.3324,-0.3285,-0.3281,-0.3279,-0.3281,-0.3281,-0.3273,-0.326,-0.3255,-0.3248,-0.3233,-0.323,-0.323,-0.323,-0.323,-0.323,-0.323,-0.323,-0.323,-0.323,-0.323,-0.323,-0.323,-0.323,-0.323,-0.323,-0.323,-0.323,-0.323,-0.323,-0.323,-0.323,-0.313,-0.313,-0.312,-0.2952,-0.2909,-0.31,-0.3098,-0.3098,-0.3098,-0.2807,-0.271,-0.2617,-0.2422,-0.2329,-0.252,-0.2551,-0.2669,-0.2574,-0.2497,-0.2416,-0.2417,-0.232,-0.2321,-0.2221,-0.202,-0.192,-0.192,-0.1717,-0.1616,-0.1617,-0.1616,-0.1617,-0.1617,-0.1617,-0.1617,-0.1617,-0.1616,-0.1616,-0.1608,-0.1615,-0.1615,-0.1605,-0.1611,-0.1614,-0.1616,-0.1614,-0.1607,-0.1589,-0.1585,-0.1575,-0.3768,-0.3756,-0.3702,-0.3676,-0.3668,-0.3612,-0.3587,-0.3587,-0.3587,-0.3587,-0.3587,-0.3587,-0.3587,-0.3587,-0.3587,-0.3587,-0.3587,-0.3587,-0.3587,-0.3587,-0.3587,-0.3587,-0.3587,-0.3585,-0.3582,-0.3575,-0.3568,-0.3541,-0.3492,-0.3443,-0.3412,-0.3409,-0.3407,-0.3406,-0.3395,-0.3391,-0.3401,-0.3391,-0.339,-0.3373,-0.3326,-0.3319,-0.3292,-0.3247,-0.3232,-0.323,-0.323,-0.323,-0.323,-0.323,-0.323,-0.323,-0.323,-0.323,-0.323,-0.323,-0.323,-0.323,-0.323,-0.323,-0.323,-0.323,-0.323,-0.323,-0.323,-0.3029,-0.2927,-0.2826,-0.2613,-0.2707,-0.3008,-0.3099,-0.3106,-0.3108,-0.2913,-0.271,-0.2712,-0.2401,-0.2413,-0.2409,-0.2408,-0.241,-0.2415,-0.242,-0.2321,-0.2321,-0.2121,-0.2021,-0.2021,-0.1819,-0.1718,-0.1617,-0.1617,-0.1617,-0.1617,-0.1617,-0.1617,-0.1617,-0.1617,-0.1617,-0.1617,-0.1617,-0.1617,-0.1617,-0.1617,-0.1617,-0.1617,-0.1617,-0.1616,-0.1617,-0.1617,-0.161,-0.1605,-0.1611,-0.1605,-0.3862,-0.3818,-0.3719,-0.3679,-0.3672,-0.3613,-0.3587,-0.3587,-0.3587,-0.3587,-0.3587,-0.3587,-0.3587,-0.3587,-0.3587,-0.3587,-0.3587,-0.3587,-0.3587,-0.3587,-0.3587,-0.3587,-0.3587,-0.3587,-0.3587,-0.3587,-0.3587,-0.3576,-0.3557,-0.3533,-0.3504,-0.3471,-0.3465,-0.345,-0.3418,-0.3413,-0.3413,-0.3413,-0.3413,-0.3401,-0.3382,-0.3379,-0.3368,-0.3345,-0.327,-0.323,-0.323,-0.323,-0.323,-0.323,-0.323,-0.323,-0.323,-0.323,-0.323,-0.323,-0.323,-0.323,-0.323,-0.323,-0.323,-0.323,-0.323,-0.323,-0.323,-0.313,-0.3029,-0.2826,-0.2725,-0.2725,-0.2624,-0.2725,-0.2725,-0.2624,-0.2424,-0.2323,-0.2223,-0.202,-0.1919,-0.2121,-0.2121,-0.2122,-0.2121,-0.202,-0.1919,-0.1919,-0.1819,-0.1718,-0.1718,-0.1617,-0.1617,-0.1617,-0.1617,-0.1617,-0.1617,-0.1617,-0.1617,-0.1617,-0.1617,-0.1617,-0.1617,-0.1617,-0.1617,-0.1617,-0.1617,-0.1617,-0.1617,-0.1617,-0.1617,-0.1617,-0.1617,-0.1617,-0.1616,-0.1617,-0.1617,-0.3927,-0.3875,-0.3758,-0.3707,-0.3698,-0.3621,-0.3587,-0.3587,-0.3587,-0.3587,-0.3587,-0.3587,-0.3587,-0.3587,-0.3587,-0.3587,-0.3587,-0.3587,-0.3587,-0.3587,-0.3587,-0.3587,-0.3587,-0.3587,-0.3587,-0.3587,-0.3587,-0.3587,-0.3587,-0.3587,-0.3565,-0.3529,-0.3525,-0.3507,-0.3474,-0.3469,-0.347,-0.3469,-0.3469,-0.3462,-0.3444,-0.3439,-0.3429,-0.3403,-0.3331,-0.3279,-0.326,-0.3241,-0.323,-0.323,-0.323,-0.323,-0.323,-0.323,-0.323,-0.323,-0.323,-0.323,-0.323,-0.323,-0.323,-0.323,-0.323,-0.313,-0.313,-0.3029,-0.2826,-0.2624,-0.2423,-0.2322,-0.2221,-0.212,-0.222,-0.2321,-0.2121,-0.2022,-0.2022,-0.1718,-0.1718,-0.1819,-0.192,-0.192,-0.1819,-0.1718,-0.1617,-0.1617,-0.1617,-0.1617,-0.1617,-0.1617,-0.1617,-0.1617,-0.1617,-0.1617,-0.1617,-0.1617,-0.1617,-0.1617,-0.1617,-0.1617,-0.1617,-0.1617,-0.1617,-0.1617,-0.1617,-0.1617,-0.1617,-0.1617,-0.1617,-0.1617,-0.1617,-0.1617,-0.1617,-0.1617,-0.1617,-0.395,-0.3928,-0.3819,-0.3763,-0.3744,-0.3636,-0.3587,-0.3587,-0.3587,-0.3587,-0.3587,-0.3587,-0.3587,-0.3587,-0.3587,-0.3587,-0.3587,-0.3587,-0.3587,-0.3587,-0.3587,-0.3587,-0.3587,-0.3587,-0.3587,-0.3587,-0.3587,-0.3587,-0.3587,-0.3587,-0.3583,-0.3585,-0.3579,-0.3574,-0.3582,-0.357,-0.3576,-0.3572,-0.357,-0.3549,-0.3504,-0.3497,-0.3476,-0.3431,-0.3412,-0.338,-0.3327,-0.3268,-0.3238,-0.3236,-0.3232,-0.323,-0.323,-0.323,-0.323,-0.323,-0.323,-0.323,-0.323,-0.323,-0.323,-0.323,-0.323,-0.313,-0.2826,-0.2624,-0.2423,-0.2122,-0.192,-0.1718,-0.1717,-0.1717,-0.1818,-0.222,-0.2122,-0.1921,-0.192,-0.1718,-0.1617,-0.1617,-0.1617,-0.1617,-0.1617,-0.1617,-0.1617,-0.1617,-0.1617,-0.1617,-0.1617,-0.1617,-0.1617,-0.1617,-0.1617,-0.1617,-0.1617,-0.1617,-0.1617,-0.1617,-0.1617,-0.1617,-0.1617,-0.1617,-0.1617,-0.1617,-0.1617,-0.1617,-0.1617,-0.1617,-0.1617,-0.1617,-0.1617,-0.1617,-0.1617,-0.1617,-0.1617,-0.395,-0.3935,-0.382,-0.3768,-0.3753,-0.3639,-0.3587,-0.3587,-0.3587,-0.3587,-0.3587,-0.3587,-0.3587,-0.3587,-0.3587,-0.3587,-0.3587,-0.3587,-0.3587,-0.3587,-0.3587,-0.3587,-0.3587,-0.3587,-0.3587,-0.3587,-0.3587,-0.3587,-0.3587,-0.3587,-0.3587,-0.3587,-0.3587,-0.3587,-0.3587,-0.3587,-0.3587,-0.3587,-0.3587,-0.3576,-0.356,-0.3559,-0.3549,-0.3531,-0.3493,-0.3459,-0.3437,-0.3346,-0.3297,-0.3293,-0.3253,-0.323,-0.323,-0.323,-0.323,-0.323,-0.323,-0.323,-0.323,-0.323,-0.323,-0.323,-0.323,-0.3029,-0.2826,-0.2725,-0.2424,-0.2122,-0.192,-0.1819,-0.1617,-0.1617,-0.1717,-0.1818,-0.1819,-0.1718,-0.1718,-0.1617,-0.1617,-0.1617,-0.1617,-0.1617,-0.1617,-0.1617,-0.1617,-0.1617,-0.1617,-0.1617,-0.1617,-0.1617,-0.1617,-0.1617,-0.1617,-0.1617,-0.1617,-0.1617,-0.1617,-0.1617,-0.1617,-0.1617,-0.1617,-0.1617,-0.1617,-0.1617,-0.1617,-0.1617,-0.1617,-0.1617,-0.1617,-0.1617,-0.1617,-0.1617,-0.1617,-0.1617,-0.1617,-0.3937,-0.3906,-0.3811,-0.3755,-0.3726,-0.3627,-0.3587,-0.3587,-0.3587,-0.3587,-0.3587,-0.3587,-0.3587,-0.3587,-0.3587,-0.3587,-0.3587,-0.3587,-0.3587,-0.3587,-0.3587,-0.3587,-0.3587,-0.3587,-0.3587,-0.3587,-0.3587,-0.3587,-0.3587,-0.3587,-0.3587,-0.3587,-0.3587,-0.3587,-0.3587,-0.3587,-0.3587,-0.3587,-0.3587,-0.3587,-0.3587,-0.3587,-0.3587,-0.3582,-0.3549,-0.3531,-0.3523,-0.3436,-0.3377,-0.335,-0.3296,-0.3256,-0.3234,-0.323,-0.323,-0.323,-0.323,-0.323,-0.323,-0.323,-0.323,-0.323,-0.323,-0.313,-0.2826,-0.2725,-0.2423,-0.2123,-0.192,-0.1819,-0.1617,-0.1617,-0.1617,-0.1617,-0.1617,-0.1617,-0.1617,-0.1617,-0.1617,-0.1617,-0.1617,-0.1617,-0.1617,-0.1617,-0.1617,-0.1617,-0.1617,-0.1617,-0.1617,-0.1617,-0.1617,-0.1617,-0.1617,-0.1617,-0.1617,-0.1617,-0.1617,-0.1617,-0.1617,-0.1617,-0.1617,-0.1617,-0.1617,-0.1617,-0.1617,-0.1617,-0.1617,-0.1617,-0.1617,-0.1617,-0.1617,-0.1617,-0.1617,-0.1617,-0.1617,-0.3912,-0.3854,-0.379,-0.373,-0.3679,-0.3615,-0.3587,-0.3587,-0.3587,-0.3587,-0.3587,-0.3587,-0.3587,-0.3587,-0.3587,-0.3587,-0.3587,-0.3587,-0.3587,-0.3587,-0.3587,-0.3587,-0.3587,-0.3587,-0.3587,-0.3587,-0.3587,-0.3587,-0.3587,-0.3587,-0.3587,-0.3587,-0.3587,-0.3587,-0.3587,-0.3587,-0.3587,-0.3587,-0.3587,-0.3587,-0.3587,-0.3587,-0.3587,-0.3587,-0.3583,-0.3579,-0.3568,-0.3522,-0.3467,-0.3414,-0.3353,-0.3301,-0.3251,-0.3236,-0.3241,-0.3234,-0.323,-0.323,-0.323,-0.323,-0.323,-0.323,-0.323,-0.3029,-0.2826,-0.2522,-0.2322,-0.2021,-0.1718,-0.1617,-0.1617,-0.1617,-0.1617,-0.1617,-0.1617,-0.1617,-0.1617,-0.1617,-0.1617,-0.1617,-0.1617,-0.1617,-0.1617,-0.1617,-0.1617,-0.1617,-0.1617,-0.1617,-0.1617,-0.1617,-0.1617,-0.1617,-0.1617,-0.1617,-0.1617,-0.1617,-0.1617,-0.1617,-0.1617,-0.1617,-0.1617,-0.1617,-0.1617,-0.1617,-0.1617,-0.1617,-0.1617,-0.1617,-0.1617,-0.1617,-0.1617,-0.1617,-0.1617,-0.1617,-0.1617,-0.3875,-0.3849,-0.3747,-0.3694,-0.367,-0.3613,-0.3587,-0.3587,-0.3587,-0.3587,-0.3587,-0.3587,-0.3587,-0.3587,-0.3587,-0.3587,-0.3587,-0.3587,-0.3587,-0.3587,-0.3587,-0.3587,-0.3587,-0.3587,-0.3587,-0.3587,-0.3587,-0.3587,-0.3587,-0.3587,-0.3587,-0.3587,-0.3587,-0.3587,-0.3587,-0.3587,-0.3587,-0.3587,-0.3587,-0.3587,-0.3587,-0.3587,-0.3587,-0.3587,-0.3587,-0.3587,-0.3587,-0.3572,-0.3514,-0.3421,-0.3399,-0.3361,-0.3305,-0.3297,-0.3279,-0.3241,-0.3234,-0.3232,-0.3232,-0.323,-0.323,-0.323,-0.323,-0.3029,-0.2522,-0.2422,-0.2221,-0.1819,-0.1617,-0.1617,-0.1617,-0.1617,-0.1617,-0.1617,-0.1617,-0.1617,-0.1617,-0.1617,-0.1617,-0.1617,-0.1617,-0.1617,-0.1617,-0.1617,-0.1617,-0.1617,-0.1617,-0.1617,-0.1617,-0.1617,-0.1617,-0.1617,-0.1617,-0.1617,-0.1617,-0.1617,-0.1617,-0.1617,-0.1617,-0.1617,-0.1617,-0.1617,-0.1617,-0.1617,-0.1617,-0.1617,-0.1617,-0.1617,-0.1617,-0.1617,-0.1617,-0.1617,-0.1617,-0.1617,-0.1617,-0.3845,-0.3813,-0.3718,-0.3664,-0.3638,-0.3602,-0.3587,-0.3587,-0.3587,-0.3587,-0.3587,-0.3587,-0.3587,-0.3587,-0.3587,-0.3587,-0.3587,-0.3587,-0.3587,-0.3587,-0.3587,-0.3587,-0.3587,-0.3587,-0.3587,-0.3587,-0.3587,-0.3587,-0.3587,-0.3587,-0.3587,-0.3587,-0.3587,-0.3587,-0.3587,-0.3587,-0.3587,-0.3587,-0.3587,-0.3587,-0.3587,-0.3587,-0.3587,-0.3587,-0.3587,-0.3587,-0.3587,-0.3587,-0.3542,-0.347,-0.3446,-0.342,-0.3367,-0.336,-0.3331,-0.3274,-0.3268,-0.326,-0.3236,-0.323,-0.323,-0.323,-0.323,-0.3029,-0.2624,-0.2522,-0.2221,-0.192,-0.1718,-0.1617,-0.1617,-0.1617,-0.1617,-0.1617,-0.1617,-0.1617,-0.1617,-0.1617,-0.1617,-0.1617,-0.1617,-0.1617,-0.1617,-0.1617,-0.1617,-0.1617,-0.1617,-0.1617,-0.1617,-0.1617,-0.1617,-0.1617,-0.1617,-0.1617,-0.1617,-0.1617,-0.1617,-0.1617,-0.1617,-0.1617,-0.1617,-0.1617,-0.1617,-0.1617,-0.1617,-0.1617,-0.1617,-0.1617,-0.1617,-0.1617,-0.1617,-0.1617,-0.1617,-0.1617,-0.1617,-0.3815,-0.3753,-0.3695,-0.3638,-0.3594,-0.3587,-0.3587,-0.3587,-0.3587,-0.3587,-0.3587,-0.3587,-0.3587,-0.3587,-0.3587,-0.3587,-0.3587,-0.3587,-0.3587,-0.3587,-0.3587,-0.3587,-0.3587,-0.3587,-0.3587,-0.3587,-0.3587,-0.3587,-0.3587,-0.3587,-0.3587,-0.3587,-0.3587,-0.3587,-0.3587,-0.3587,-0.3587,-0.3587,-0.3587,-0.3587,-0.3587,-0.3587,-0.3587,-0.3587,-0.3587,-0.3587,-0.3587,-0.3585,-0.3559,-0.3508,-0.3506,-0.3477,-0.3431,-0.3421,-0.3391,-0.3345,-0.3327,-0.3307,-0.3153,-0.3147,-0.3136,-0.3133,-0.313,-0.3029,-0.2725,-0.2522,-0.2221,-0.192,-0.1718,-0.1617,-0.1617,-0.1617,-0.1617,-0.1617,-0.1617,-0.1617,-0.1617,-0.1617,-0.1617,-0.1617,-0.1617,-0.1617,-0.1617,-0.1617,-0.1617,-0.1617,-0.1617,-0.1617,-0.1617,-0.1617,-0.1617,-0.1617,-0.1617,-0.1617,-0.1617,-0.1617,-0.1617,-0.1617,-0.1617,-0.1617,-0.1617,-0.1617,-0.1617,-0.1617,-0.1617,-0.1617,-0.1617,-0.1617,-0.1617,-0.1617,-0.1617,-0.1617,-0.1617,-0.1617,-0.1617,-0.3753,-0.3692,-0.3631,-0.36,-0.3589,-0.3587,-0.3587,-0.3587,-0.3587,-0.3587,-0.3587,-0.3587,-0.3587,-0.3587,-0.3587,-0.3587,-0.3587,-0.3587,-0.3587,-0.3587,-0.3587,-0.3587,-0.3587,-0.3587,-0.3587,-0.3587,-0.3587,-0.3587,-0.3587,-0.3587,-0.3587,-0.3587,-0.3587,-0.3587,-0.3587,-0.3587,-0.3587,-0.3587,-0.3587,-0.3587,-0.3587,-0.3587,-0.3587,-0.3587,-0.3587,-0.3587,-0.3587,-0.3587,-0.358,-0.3571,-0.3561,-0.3533,-0.3492,-0.348,-0.3451,-0.3409,-0.3391,-0.326,-0.3003,-0.2986,-0.2971,-0.2938,-0.2929,-0.2725,-0.2522,-0.2422,-0.212,-0.1818,-0.1617,-0.1617,-0.1617,-0.1617,-0.1617,-0.1617,-0.1617,-0.1617,-0.1617,-0.1617,-0.1617,-0.1617,-0.1617,-0.1617,-0.1617,-0.1617,-0.1617,-0.1617,-0.1617,-0.1617,-0.1617,-0.1617,-0.1617,-0.1617,-0.1617,-0.1617,-0.1617,-0.1617,-0.1617,-0.1617,-0.1617,-0.1617,-0.1617,-0.1617,-0.1617,-0.1617,-0.1617,-0.1617,-0.1617,-0.1617,-0.1617,-0.1617,-0.1617,-0.1617,-0.1617,-0.1617,-0.1617,-0.3707,-0.3673,-0.3613,-0.3587,-0.3587,-0.3587,-0.3587,-0.3587,-0.3587,-0.3587,-0.3587,-0.3587,-0.3587,-0.3587,-0.3587,-0.3587,-0.3587,-0.3587,-0.3587,-0.3587,-0.3587,-0.3587,-0.3587,-0.3587,-0.3587,-0.3587,-0.3587,-0.3587,-0.3587,-0.3587,-0.3587,-0.3587,-0.3587,-0.3587,-0.3587,-0.3587,-0.3587,-0.3587,-0.3587,-0.3587,-0.3587,-0.3587,-0.3587,-0.3587,-0.3587,-0.3587,-0.3587,-0.3587,-0.3587,-0.3587,-0.3586,-0.3575,-0.3548,-0.3538,-0.3508,-0.3465,-0.3451,-0.3316,-0.3061,-0.2919,-0.2893,-0.2661,-0.264,-0.2426,-0.2323,-0.2222,-0.202,-0.1718,-0.1617,-0.1617,-0.1617,-0.1617,-0.1617,-0.1617,-0.1617,-0.1617,-0.1617,-0.1617,-0.1617,-0.1617,-0.1617,-0.1617,-0.1617,-0.1617,-0.1617,-0.1617,-0.1617,-0.1617,-0.1617,-0.1617,-0.1617,-0.1617,-0.1617,-0.1617,-0.1617,-0.1617,-0.1617,-0.1617,-0.1617,-0.1617,-0.1617,-0.1617,-0.1617,-0.1617,-0.1617,-0.1617,-0.1617,-0.1617,-0.1617,-0.1617,-0.1617,-0.1617,-0.1617,-0.1617,-0.1617,-0.3673,-0.3661,-0.3609,-0.3587,-0.3587,-0.3587,-0.3587,-0.3587,-0.3587,-0.3587,-0.3587,-0.3587,-0.3587,-0.3587,-0.3587,-0.3587,-0.3587,-0.3587,-0.3587,-0.3587,-0.3587,-0.3587,-0.3587,-0.3587,-0.3587,-0.3587,-0.3587,-0.3587,-0.3587,-0.3587,-0.3587,-0.3587,-0.3587,-0.3587,-0.3587,-0.3587,-0.3587,-0.3587,-0.3587,-0.3587,-0.3587,-0.3587,-0.3587,-0.3587,-0.3587,-0.3587,-0.3587,-0.3587,-0.3587,-0.3587,-0.3587,-0.3587,-0.3587,-0.3585,-0.3568,-0.3512,-0.3401,-0.3264,-0.2896,-0.2752,-0.262,-0.2398,-0.2357,-0.2234,-0.2133,-0.2026,-0.192,-0.1718,-0.1617,-0.1617,-0.1617,-0.1617,-0.1617,-0.1617,-0.1617,-0.1617,-0.1617,-0.1617,-0.1617,-0.1617,-0.1617,-0.1617,-0.1617,-0.1617,-0.1617,-0.1617,-0.1617,-0.1617,-0.1617,-0.1617,-0.1617,-0.1617,-0.1617,-0.1617,-0.1617,-0.1617,-0.1617,-0.1617,-0.1617,-0.1617,-0.1617,-0.1617,-0.1617,-0.1617,-0.1617,-0.1617,-0.1617,-0.1617,-0.1617,-0.1617,-0.1617,-0.1617,-0.1617,-0.1617,-0.1617,-0.3649,-0.3602,-0.3591,-0.3587,-0.3587,-0.3587,-0.3587,-0.3587,-0.3587,-0.3587,-0.3587,-0.3587,-0.3587,-0.3587,-0.3587,-0.3587,-0.3587,-0.3587,-0.3587,-0.3587,-0.3587,-0.3587,-0.3587,-0.3587,-0.3587,-0.3587,-0.3587,-0.3587,-0.3587,-0.3587,-0.3587,-0.3587,-0.3587,-0.3587,-0.3587,-0.3587,-0.3587,-0.3587,-0.3587,-0.3587,-0.3587,-0.3587,-0.3587,-0.3587,-0.3587,-0.3587,-0.3587,-0.3587,-0.3587,-0.3587,-0.3587,-0.3587,-0.3587,-0.3587,-0.3579,-0.3458,-0.3339,-0.3094,-0.2728,-0.2496,-0.2258,-0.2229,-0.219,-0.217,-0.2059,-0.204,-0.1826,-0.1718,-0.1617,-0.1617,-0.1617,-0.1617,-0.1617,-0.1617,-0.1617,-0.1617,-0.1617,-0.1617,-0.1617,-0.1617,-0.1617,-0.1617,-0.1617,-0.1617,-0.1617,-0.1617,-0.1617,-0.1617,-0.1617,-0.1617,-0.1617,-0.1617,-0.1617,-0.1617,-0.1617,-0.1617,-0.1617,-0.1617,-0.1617,-0.1617,-0.1617,-0.1617,-0.1617,-0.1617,-0.1617,-0.1617,-0.1617,-0.1617,-0.1617,-0.1617,-0.1617,-0.1617,-0.1617,-0.1617,-0.1617,-0.3615,-0.3589,-0.3587,-0.3587,-0.3587,-0.3587,-0.3587,-0.3587,-0.3587,-0.3587,-0.3587,-0.3587,-0.3587,-0.3587,-0.3587,-0.3587,-0.3587,-0.3587,-0.3587,-0.3587,-0.3587,-0.3587,-0.3587,-0.3587,-0.3587,-0.3587,-0.3587,-0.3587,-0.3587,-0.3587,-0.3587,-0.3587,-0.3587,-0.3587,-0.3587,-0.3587,-0.3587,-0.3587,-0.3587,-0.3587,-0.3587,-0.3587,-0.3587,-0.3587,-0.3587,-0.3587,-0.3587,-0.3587,-0.3587,-0.3587,-0.3587,-0.3587,-0.3587,-0.3475,-0.3362,-0.3362,-0.3138,-0.2908,-0.2547,-0.2202,-0.2176,-0.1944,-0.1912,-0.1895,-0.1885,-0.1866,-0.1838,-0.1621,-0.1617,-0.1617,-0.1617,-0.1617,-0.1617,-0.1617,-0.1617,-0.1617,-0.1617,-0.1617,-0.1617,-0.1617,-0.1617,-0.1617,-0.1617,-0.1617,-0.1617,-0.1617,-0.1617,-0.1617,-0.1617,-0.1617,-0.1617,-0.1617,-0.1617,-0.1617,-0.1617,-0.1617,-0.1617,-0.1617,-0.1617,-0.1617,-0.1617,-0.1617,-0.1617,-0.1617,-0.1617,-0.1617,-0.1617,-0.1617,-0.1617,-0.1617,-0.1617,-0.1617,-0.1617,-0.1617,-0.1617,-0.3587,-0.3587,-0.3587,-0.3587,-0.3587,-0.3587,-0.3587,-0.3587,-0.3587,-0.3587,-0.3587,-0.3587,-0.3587,-0.3587,-0.3587,-0.3587,-0.3587,-0.3587,-0.3587,-0.3587,-0.3587,-0.3587,-0.3587,-0.3587,-0.3587,-0.3587,-0.3587,-0.3587,-0.3587,-0.3587,-0.3587,-0.3587,-0.3587,-0.3587,-0.3587,-0.3587,-0.3587,-0.3587,-0.3587,-0.3587,-0.3587,-0.3587,-0.3587,-0.3587,-0.3587,-0.3587,-0.3587,-0.3587,-0.3587,-0.3587,-0.3587,-0.3587,-0.3475,-0.325,-0.3026,-0.2914,-0.2913,-0.2691,-0.2347,-0.2109,-0.1982,-0.1867,-0.173,-0.1717,-0.1703,-0.1787,-0.1651,-0.1631,-0.1618,-0.1617,-0.1617,-0.1617,-0.1617,-0.1617,-0.1617,-0.1617,-0.1617,-0.1617,-0.1617,-0.1617,-0.1617,-0.1617,-0.1617,-0.1617,-0.1617,-0.1617,-0.1617,-0.1617,-0.1617,-0.1617,-0.1617,-0.1617,-0.1617,-0.1617,-0.1617,-0.1617,-0.1617,-0.1617,-0.1617,-0.1617,-0.1617,-0.1617,-0.1617,-0.1617,-0.1617,-0.1617,-0.1617,-0.1617,-0.1617,-0.1617,-0.1617,-0.1617,-0.1617,-0.1617,-0.1617,-0.3587,-0.3587,-0.3587,-0.3587,-0.3587,-0.3587,-0.3587,-0.3587,-0.3587,-0.3587,-0.3587,-0.3587,-0.3587,-0.3587,-0.3587,-0.3587,-0.3587,-0.3587,-0.3587,-0.3587,-0.3587,-0.3587,-0.3587,-0.3587,-0.3587,-0.3587,-0.3587,-0.3587,-0.3587,-0.3587,-0.3587,-0.3587,-0.3587,-0.3587,-0.3587,-0.3587,-0.3587,-0.3587,-0.3587,-0.3587,-0.3587,-0.3587,-0.3587,-0.3587,-0.3587,-0.3587,-0.3587,-0.3587,-0.3587,-0.3587,-0.3587,-0.3475,-0.325,-0.3138,-0.2803,-0.2467,-0.2356,-0.2244,-0.2131,-0.2011,-0.1895,-0.1779,-0.176,-0.1748,-0.1729,-0.1699,-0.1668,-0.1658,-0.1635,-0.1619,-0.1618,-0.1617,-0.1617,-0.1617,-0.1617,-0.1617,-0.1617,-0.1617,-0.1617,-0.1617,-0.1617,-0.1617,-0.1617,-0.1617,-0.1617,-0.1617,-0.1617,-0.1617,-0.1617,-0.1617,-0.1617,-0.1617,-0.1617,-0.1617,-0.1617,-0.1617,-0.1617,-0.1617,-0.1617,-0.1617,-0.1617,-0.1617,-0.1617,-0.1617,-0.1617,-0.1617,-0.1617,-0.1617,-0.1617,-0.1617,-0.1617,-0.1617,-0.1617,-0.1617,-0.1617,-0.3587,-0.3587,-0.3587,-0.3587,-0.3587,-0.3587,-0.3587,-0.3587,-0.3587,-0.3587,-0.3587,-0.3587,-0.3587,-0.3587,-0.3587,-0.3587,-0.3587,-0.3587,-0.3587,-0.3587,-0.3587,-0.3587,-0.3587,-0.3587,-0.3587,-0.3587,-0.3587,-0.3587,-0.3587,-0.3587,-0.3587,-0.3587,-0.3587,-0.3587,-0.3587,-0.3587,-0.3587,-0.3587,-0.3587,-0.3587,-0.3587,-0.3587,-0.3587,-0.3587,-0.3587,-0.3587,-0.3587,-0.3587,-0.3587,-0.3587,-0.3475,-0.325,-0.3026,-0.2803,-0.2468,-0.2244,-0.2019,-0.2019,-0.1907,-0.1795,-0.1795,-0.1794,-0.1781,-0.1769,-0.175,-0.1727,-0.1691,-0.1663,-0.1651,-0.1637,-0.1622,-0.1617,-0.1617,-0.1617,-0.1617,-0.1617,-0.1617,-0.1617,-0.1617,-0.1617,-0.1617,-0.1617,-0.1617,-0.1617,-0.1617,-0.1617,-0.1617,-0.1617,-0.1617,-0.1617,-0.1617,-0.1617,-0.1617,-0.1617,-0.1617,-0.1617,-0.1617,-0.1617,-0.1617,-0.1617,-0.1617,-0.1617,-0.1617,-0.1617,-0.1617,-0.1617,-0.1617,-0.1617,-0.1617,-0.1617,-0.1617,-0.1617,-0.1617,-0.1617,-0.1617,-0.3587,-0.3587,-0.3587,-0.3587,-0.3587,-0.3587,-0.3587,-0.3587,-0.3587,-0.3587,-0.3587,-0.3587,-0.3587,-0.3587,-0.3587,-0.3587,-0.3587,-0.3587,-0.3587,-0.3587,-0.3587,-0.3587,-0.3587,-0.3587,-0.3587,-0.3587,-0.3587,-0.3587,-0.3587,-0.3587,-0.3587,-0.3587,-0.3587,-0.3587,-0.3587,-0.3587,-0.3587,-0.3475,-0.3475,-0.3363,-0.3363,-0.3362,-0.3475,-0.3475,-0.3587,-0.3587,-0.3475,-0.3587,-0.3587,-0.3251,-0.325,-0.3026,-0.2802,-0.2468,-0.2244,-0.2131,-0.1907,-0.1795,-0.1795,-0.1795,-0.1795,-0.1795,-0.1794,-0.1783,-0.1767,-0.1755,-0.1739,-0.1693,-0.1677,-0.1658,-0.1637,-0.163,-0.1625,-0.1622,-0.1617,-0.1617,-0.1617,-0.1617,-0.1617,-0.1617,-0.1617,-0.1617,-0.1617,-0.1617,-0.1617,-0.1617,-0.1617,-0.1617,-0.1617,-0.1617,-0.1617,-0.1617,-0.1617,-0.1617,-0.1617,-0.1617,-0.1617,-0.1617,-0.1617,-0.1617,-0.1617,-0.1617,-0.1617,-0.1617,-0.1617,-0.1617,-0.1617,-0.1617,-0.1617,-0.1617,-0.1617,-0.1617,-0.1617,-0.1617,-0.1617,-0.3587,-0.3587,-0.3587,-0.3587,-0.3587,-0.3587,-0.3587,-0.3587,-0.3587,-0.3587,-0.3587,-0.3587,-0.3587,-0.3587,-0.3587,-0.3587,-0.3587,-0.3587,-0.3587,-0.3587,-0.3587,-0.3587,-0.3587,-0.3587,-0.3587,-0.3587,-0.3587,-0.3587,-0.3587,-0.3587,-0.3587,-0.3587,-0.3587,-0.3587,-0.3587,-0.3587,-0.3475,-0.325,-0.325,-0.3027,-0.3029,-0.3027,-0.3138,-0.325,-0.3362,-0.3475,-0.3138,-0.3363,-0.3365,-0.2917,-0.2915,-0.2802,-0.2467,-0.2244,-0.2019,-0.1907,-0.1795,-0.1795,-0.1795,-0.1795,-0.1795,-0.1795,-0.1794,-0.1793,-0.1784,-0.1762,-0.1746,-0.1735,-0.1712,-0.1689,-0.167,-0.1657,-0.1642,-0.1631,-0.1624,-0.1617,-0.1617,-0.1617,-0.1617,-0.1617,-0.1617,-0.1617,-0.1617,-0.1617,-0.1617,-0.1617,-0.1617,-0.1617,-0.1617,-0.1617,-0.1617,-0.1617,-0.1617,-0.1617,-0.1617,-0.1617,-0.1617,-0.1617,-0.1617,-0.1617,-0.1617,-0.1617,-0.1617,-0.1617,-0.1617,-0.1617,-0.1617,-0.1617,-0.1617,-0.1617,-0.1617,-0.1617,-0.1617,-0.1617,-0.1617,-0.3587,-0.3587,-0.3587,-0.3587,-0.3587,-0.3587,-0.3587,-0.3587,-0.3587,-0.3587,-0.3587,-0.3587,-0.3587,-0.3587,-0.3587,-0.3587,-0.3587,-0.3587,-0.3587,-0.3587,-0.3587,-0.3587,-0.3587,-0.3587,-0.3587,-0.3587,-0.3587,-0.3587,-0.3587,-0.3587,-0.3587,-0.3587,-0.3587,-0.3587,-0.3587,-0.3587,-0.3362,-0.3138,-0.3026,-0.2915,-0.2806,-0.2806,-0.2805,-0.2917,-0.2917,-0.3029,-0.2915,-0.2917,-0.2918,-0.2693,-0.2579,-0.2356,-0.2244,-0.2019,-0.1907,-0.1795,-0.1795,-0.1795,-0.1795,-0.1795,-0.1795,-0.1795,-0.1795,-0.1795,-0.1795,-0.1782,-0.1766,-0.1753,-0.1741,-0.172,-0.1694,-0.1673,-0.1654,-0.1643,-0.1634,-0.1626,-0.1621,-0.1623,-0.1618,-0.1618,-0.1618,-0.1617,-0.1617,-0.1617,-0.1617,-0.1617,-0.1617,-0.1617,-0.1617,-0.1617,-0.1617,-0.1617,-0.1617,-0.1617,-0.1617,-0.1617,-0.1617,-0.1617,-0.1617,-0.1617,-0.1617,-0.1617,-0.1617,-0.1617,-0.1617,-0.1617,-0.1617,-0.1617,-0.1617,-0.1617,-0.1617,-0.1617,-0.1617,-0.1617,-0.1617,-0.3587,-0.3587,-0.3587,-0.3587,-0.3587,-0.3587,-0.3587,-0.3587,-0.3587,-0.3587,-0.3587,-0.3587,-0.3587,-0.3587,-0.3587,-0.3587,-0.3587,-0.3587,-0.3587,-0.3587,-0.3587,-0.3587,-0.3587,-0.3587,-0.3587,-0.3587,-0.3587,-0.3587,-0.3587,-0.3587,-0.3587,-0.3587,-0.3587,-0.3587,-0.3587,-0.3475,-0.325,-0.2914,-0.2802,-0.2691,-0.2468,-0.2468,-0.2581,-0.2581,-0.2693,-0.2693,-0.2692,-0.2692,-0.258,-0.2468,-0.2244,-0.2132,-0.2019,-0.1907,-0.1795,-0.1795,-0.1795,-0.1795,-0.1795,-0.1795,-0.1795,-0.1795,-0.1795,-0.1795,-0.1795,-0.1795,-0.1781,-0.177,-0.1763,-0.175,-0.1721,-0.1705,-0.1687,-0.1678,-0.1666,-0.1657,-0.1642,-0.1638,-0.1627,-0.162,-0.1618,-0.1617,-0.1617,-0.1617,-0.1617,-0.1617,-0.1617,-0.1617,-0.1617,-0.1617,-0.1617,-0.1617,-0.1617,-0.1617,-0.1617,-0.1617,-0.1617,-0.1617,-0.1617,-0.1617,-0.1617,-0.1617,-0.1617,-0.1617,-0.1617,-0.1617,-0.1617,-0.1617,-0.1617,-0.1617,-0.1617,-0.1617,-0.1617,-0.1617,-0.1617,-0.3587,-0.3587,-0.3587,-0.3587,-0.3587,-0.3587,-0.3587,-0.3587,-0.3587,-0.3587,-0.3587,-0.3587,-0.3587,-0.3587,-0.3587,-0.3587,-0.3587,-0.3587,-0.3587,-0.3587,-0.3587,-0.3587,-0.3587,-0.3587,-0.3587,-0.3587,-0.3587,-0.3587,-0.3587,-0.3587,-0.3587,-0.3587,-0.3587,-0.3475,-0.3587,-0.325,-0.2802,-0.2356,-0.2244,-0.2132,-0.2019,-0.2132,-0.2244,-0.2244,-0.2468,-0.2356,-0.2356,-0.2468,-0.2356,-0.2019,-0.2132,-0.2019,-0.1907,-0.1795,-0.1795,-0.1795,-0.1795,-0.1795,-0.1795,-0.1795,-0.1795,-0.1795,-0.1795,-0.1795,-0.1795,-0.1794,-0.1794,-0.1782,-0.1786,-0.1776,-0.1759,-0.1743,-0.1723,-0.171,-0.1697,-0.1682,-0.1667,-0.1651,-0.164,-0.163,-0.1622,-0.1617,-0.1617,-0.1617,-0.1617,-0.1617,-0.1617,-0.1617,-0.1617,-0.1617,-0.1617,-0.1617,-0.1617,-0.1617,-0.1617,-0.1617,-0.1617,-0.1617,-0.1617,-0.1617,-0.1617,-0.1617,-0.1617,-0.1617,-0.1617,-0.1617,-0.1617,-0.1617,-0.1617,-0.1617,-0.1617,-0.1617,-0.1617,-0.1617,-0.1617,-0.3587,-0.3587,-0.3587,-0.3587,-0.3587,-0.3587,-0.3587,-0.3587,-0.3587,-0.3587,-0.3587,-0.3587,-0.3587,-0.3587,-0.3587,-0.3587,-0.3587,-0.3587,-0.3587,-0.3587,-0.3587,-0.3587,-0.3587,-0.3587,-0.3587,-0.3587,-0.3587,-0.3587,-0.3587,-0.3587,-0.3587,-0.3587,-0.3362,-0.325,-0.325,-0.3138,-0.2803,-0.2356,-0.2132,-0.2131,-0.1795,-0.1907,-0.1907,-0.2019,-0.2132,-0.2131,-0.2019,-0.2132,-0.2019,-0.1795,-0.1907,-0.1907,-0.1795,-0.1795,-0.1795,-0.1795,-0.1795,-0.1795,-0.1795,-0.1795,-0.1795,-0.1795,-0.1795,-0.1795,-0.1795,-0.1795,-0.1795,-0.1795,-0.1795,-0.1786,-0.1782,-0.1758,-0.174,-0.1732,-0.1719,-0.1703,-0.1687,-0.1669,-0.1654,-0.1645,-0.1636,-0.1623,-0.1618,-0.1617,-0.1617,-0.1617,-0.1617,-0.1617,-0.1617,-0.1617,-0.1617,-0.1617,-0.1617,-0.1617,-0.1617,-0.1617,-0.1617,-0.1617,-0.1617,-0.1617,-0.1617,-0.1617,-0.1617,-0.1617,-0.1617,-0.1617,-0.1617,-0.1617,-0.1617,-0.1617,-0.1617,-0.1617,-0.1617,-0.1617,-0.1617,-0.3587,-0.3587,-0.3587,-0.3587,-0.3587,-0.3587,-0.3587,-0.3587,-0.3587,-0.3587,-0.3587,-0.3587,-0.3587,-0.3587,-0.3587,-0.3587,-0.3587,-0.3587,-0.3587,-0.3587,-0.3587,-0.3587,-0.3587,-0.3699,-0.3587,-0.3587,-0.3587,-0.3587,-0.3587,-0.3587,-0.3587,-0.3475,-0.325,-0.3138,-0.3026,-0.2803,-0.2579,-0.2132,-0.2019,-0.2019,-0.1795,-0.1795,-0.1795,-0.1795,-0.1795,-0.1795,-0.1795,-0.1795,-0.1795,-0.1795,-0.1795,-0.1795,-0.1795,-0.1795,-0.1795,-0.1795,-0.1795,-0.1795,-0.1795,-0.1795,-0.1795,-0.1795,-0.1795,-0.1795,-0.1795,-0.1795,-0.1795,-0.1795,-0.1795,-0.1795,-0.179,-0.1767,-0.1763,-0.1755,-0.175,-0.1735,-0.1717,-0.1699,-0.1679,-0.1669,-0.165,-0.1635,-0.1618,-0.1618,-0.1617,-0.1617,-0.1617,-0.1617,-0.1617,-0.1617,-0.1617,-0.1617,-0.1617,-0.1617,-0.1617,-0.1617,-0.1617,-0.1617,-0.1617,-0.1617,-0.1617,-0.1617,-0.1617,-0.1617,-0.1617,-0.1617,-0.1617,-0.1617,-0.1617,-0.1617,-0.1617,-0.1617,-0.1617,-0.1617,-0.1617,-0.3587,-0.3587,-0.3587,-0.3587,-0.3587,-0.3587,-0.3587,-0.3587,-0.3587,-0.3587,-0.3587,-0.3587,-0.3587,-0.3587,-0.3587,-0.3587,-0.3699,-0.3699,-0.3811,-0.3921,-0.4255,-0.4032,-0.3807,-0.392,-0.4365,-0.4033,-0.3921,-0.4033,-0.3699,-0.3587,-0.3587,-0.3475,-0.3251,-0.3027,-0.2692,-0.2467,-0.2132,-0.1907,-0.1907,-0.1907,-0.1795,-0.1795,-0.1795,-0.1795,-0.1795,-0.1795,-0.1795,-0.1795,-0.1795,-0.1795,-0.1795,-0.1795,-0.1795,-0.1795,-0.1795,-0.1795,-0.1795,-0.1795,-0.1795,-0.1795,-0.1795,-0.1795,-0.1795,-0.1795,-0.1795,-0.1795,-0.1795,-0.1795,-0.1795,-0.1795,-0.1791,-0.179,-0.1789,-0.1787,-0.1787,-0.1772,-0.1755,-0.1735,-0.1819,-0.1692,-0.1669,-0.1649,-0.1624,-0.1617,-0.1617,-0.1617,-0.1617,-0.1617,-0.1617,-0.1617,-0.1617,-0.1617,-0.1617,-0.1617,-0.1617,-0.1617,-0.1617,-0.1617,-0.1617,-0.1617,-0.1617,-0.1617,-0.1617,-0.1617,-0.1617,-0.1617,-0.1617,-0.1617,-0.1617,-0.1617,-0.1617,-0.1617,-0.1617,-0.1617,-0.1617,-0.3587,-0.3587,-0.3587,-0.3587,-0.3587,-0.3587,-0.3587,-0.3587,-0.3587,-0.3587,-0.3587,-0.3587,-0.3587,-0.3587,-0.3587,-0.3587,-0.3921,-0.4367,-0.4815,-0.5037,-0.5367,-0.4795,-0.4682,-0.5133,-0.5806,-0.581,-0.5367,-0.4812,-0.4702,-0.4257,-0.3699,-0.3587,-0.3141,-0.2806,-0.2581,-0.2244,-0.1907,-0.1795,-0.1795,-0.1795,-0.1795,-0.1795,-0.1795,-0.1795,-0.1795,-0.1795,-0.1795,-0.1795,-0.1795,-0.1795,-0.1795,-0.1795,-0.1795,-0.1795,-0.1795,-0.1795,-0.1795,-0.1795,-0.1795,-0.1795,-0.1795,-0.1795,-0.1795,-0.1795,-0.1795,-0.1795,-0.1795,-0.1795,-0.1795,-0.1795,-0.1795,-0.1795,-0.1795,-0.1795,-0.1795,-0.1787,-0.1771,-0.1759,-0.1737,-0.1825,-0.1694,-0.1654,-0.1629,-0.1617,-0.1617,-0.1617,-0.1617,-0.1617,-0.1617,-0.1617,-0.1617,-0.1617,-0.1617,-0.1617,-0.1617,-0.1617,-0.1617,-0.1617,-0.1617,-0.1617,-0.1617,-0.1617,-0.1617,-0.1617,-0.1617,-0.1617,-0.1617,-0.1617,-0.1617,-0.1617,-0.1617,-0.1617,-0.1617,-0.1617,-0.1617,-0.3587,-0.3587,-0.3587,-0.3587,-0.3587,-0.3587,-0.3587,-0.3587,-0.3587,-0.3587,-0.3587,-0.3587,-0.3587,-0.3698,-0.4145,-0.4369,-0.4479,-0.5479,-0.6035,-0.6255,-0.6919,-0.613,-0.6015,-0.6463,-0.7485,-0.7487,-0.7038,-0.6035,-0.5701,-0.4925,-0.4257,-0.3362,-0.2918,-0.2693,-0.2356,-0.2019,-0.1907,-0.1795,-0.1795,-0.1795,-0.1795,-0.1795,-0.1795,-0.1795,-0.1795,-0.1795,-0.1795,-0.1795,-0.1795,-0.1795,-0.1795,-0.1795,-0.1795,-0.1795,-0.1795,-0.1795,-0.1795,-0.1795,-0.1795,-0.1795,-0.1795,-0.1795,-0.1795,-0.1795,-0.1795,-0.1795,-0.1795,-0.1795,-0.1795,-0.1795,-0.1795,-0.1795,-0.1795,-0.1795,-0.1795,-0.1795,-0.1786,-0.1778,-0.1761,-0.1851,-0.1708,-0.1666,-0.164,-0.1626,-0.1617,-0.1617,-0.1617,-0.1617,-0.1617,-0.1617,-0.1617,-0.1617,-0.1617,-0.1617,-0.1617,-0.1617,-0.1617,-0.1617,-0.1617,-0.1617,-0.1617,-0.1617,-0.1617,-0.1617,-0.1617,-0.1617,-0.1617,-0.1617,-0.1617,-0.1617,-0.1617,-0.1617,-0.1617,-0.1617,-0.1617,-0.3587,-0.3587,-0.3587,-0.3587,-0.3587,-0.3587,-0.3587,-0.3587,-0.381,-0.381,-0.4035,-0.3811,-0.3921,-0.4479,-0.5146,-0.5481,-0.5813,-0.67,-0.7254,-0.7252,-0.7805,-0.7575,-0.7575,-0.7584,-0.8819,-0.9286,-0.8843,-0.7485,-0.6811,-0.5922,-0.481,-0.3361,-0.3139,-0.2805,-0.2244,-0.2019,-0.1795,-0.1795,-0.1795,-0.1795,-0.1795,-0.1795,-0.1795,-0.1795,-0.1795,-0.1795,-0.1795,-0.1795,-0.1795,-0.1795,-0.1795,-0.1795,-0.1795,-0.1795,-0.1795,-0.1795,-0.1795,-0.1795,-0.1795,-0.1795,-0.1795,-0.1795,-0.1795,-0.1795,-0.1795,-0.1795,-0.1795,-0.1795,-0.1795,-0.1795,-0.1795,-0.1795,-0.1795,-0.1795,-0.1795,-0.1795,-0.1791,-0.1783,-0.1772,-0.1752,-0.1725,-0.1684,-0.1654,-0.164,-0.1626,-0.1622,-0.1617,-0.1617,-0.1617,-0.1617,-0.1617,-0.1617,-0.1617,-0.1617,-0.1617,-0.1617,-0.1617,-0.1617,-0.1617,-0.1617,-0.1617,-0.1617,-0.1617,-0.1617,-0.1617,-0.1617,-0.1617,-0.1617,-0.1617,-0.1617,-0.1617,-0.1617,-0.1617,-0.1617,-0.1617,-0.3587,-0.3587,-0.3587,-0.3587,-0.3587,-0.3587,-0.3583,-0.3689,-0.4587,-0.5487,-0.5942,-0.5489,-0.5369,-0.6033,-0.6475,-0.67,-0.7033,-0.7922,-0.8367,-0.8806,-0.9137,-0.9247,-0.9691,-0.9467,-1.0147,-1.0268,-0.9827,-0.8712,-0.7476,-0.6697,-0.5919,-0.4585,-0.4029,-0.3471,-0.2244,-0.1907,-0.1795,-0.1795,-0.1795,-0.1795,-0.1795,-0.1795,-0.1795,-0.1795,-0.1795,-0.1795,-0.1795,-0.1795,-0.1795,-0.1795,-0.1795,-0.1795,-0.1795,-0.1795,-0.1795,-0.1795,-0.1795,-0.1795,-0.1795,-0.1795,-0.1795,-0.1795,-0.1795,-0.1795,-0.1795,-0.1795,-0.1795,-0.1795,-0.1795,-0.1795,-0.1795,-0.1795,-0.1795,-0.1795,-0.1795,-0.1795,-0.1795,-0.1788,-0.178,-0.1761,-0.1737,-0.1707,-0.1675,-0.1653,-0.1639,-0.1628,-0.162,-0.1617,-0.1617,-0.1617,-0.1617,-0.1617,-0.1617,-0.1617,-0.1617,-0.1617,-0.1617,-0.1617,-0.1617,-0.1617,-0.1617,-0.1617,-0.1617,-0.1617,-0.1617,-0.1617,-0.1617,-0.1617,-0.1617,-0.1617,-0.1617,-0.1617,-0.1617,-0.1617,-0.1617,-0.3587,-0.3587,-0.3587,-0.3921,-0.4367,-0.4369,-0.4136,-0.4012,-0.5357,-0.7157,-0.8288,-0.7046,-0.6586,-0.7252,-0.7584,-0.7916,-0.814,-0.914,-0.9585,-1.0025,-1.0245,-1.0468,-1.0692,-1.0692,-1.0582,-1.07,-1.0602,-0.9596,-0.814,-0.7695,-0.703,-0.525,-0.4582,-0.3804,-0.2354,-0.1907,-0.1795,-0.1795,-0.1795,-0.1795,-0.1795,-0.1795,-0.1795,-0.1795,-0.1795,-0.1795,-0.1795,-0.1795,-0.1795,-0.1795,-0.1795,-0.1795,-0.1795,-0.1795,-0.1795,-0.1795,-0.1795,-0.1795,-0.1795,-0.1795,-0.1795,-0.1795,-0.1795,-0.1795,-0.1795,-0.1795,-0.1795,-0.1795,-0.1795,-0.1795,-0.1795,-0.1795,-0.1795,-0.1795,-0.1795,-0.1795,-0.1795,-0.1792,-0.1787,-0.178,-0.1755,-0.1725,-0.1694,-0.1665,-0.1649,-0.1624,-0.1618,-0.1618,-0.1618,-0.1617,-0.1617,-0.1617,-0.1617,-0.1617,-0.1617,-0.1617,-0.1617,-0.1617,-0.1617,-0.1617,-0.1617,-0.1617,-0.1617,-0.1617,-0.1617,-0.1617,-0.1617,-0.1617,-0.1617,-0.1617,-0.1617,-0.1617,-0.1617,-0.1617,-0.1617,-0.3587,-0.3587,-0.381,-0.4367,-0.5371,-0.5592,-0.5131,-0.4557,-0.6347,-0.8598,-1.0063,-0.8481,-0.7695,-0.7919,-0.8585,-0.892,-0.9364,-1.0029,-1.0468,-1.0578,-1.0582,-1.0692,-1.0692,-1.0692,-1.0692,-1.0692,-1.0696,-1.0143,-0.914,-0.8916,-0.7913,-0.547,-0.4582,-0.4026,-0.2577,-0.2019,-0.213,-0.1907,-0.1795,-0.1795,-0.1795,-0.1795,-0.1795,-0.1795,-0.1795,-0.1795,-0.1795,-0.1795,-0.1795,-0.1795,-0.1795,-0.1795,-0.1795,-0.1795,-0.1795,-0.1795,-0.1795,-0.1795,-0.1795,-0.1795,-0.1795,-0.1795,-0.1795,-0.1795,-0.1795,-0.1795,-0.1795,-0.1795,-0.1795,-0.1795,-0.1795,-0.1795,-0.1795,-0.1795,-0.1795,-0.1795,-0.1795,-0.1795,-0.1793,-0.1792,-0.1771,-0.1742,-0.1715,-0.1686,-0.1662,-0.1635,-0.162,-0.1619,-0.1618,-0.1618,-0.1617,-0.1617,-0.1617,-0.1617,-0.1617,-0.1617,-0.1617,-0.1617,-0.1617,-0.1617,-0.1617,-0.1617,-0.1617,-0.1617,-0.1617,-0.1617,-0.1617,-0.1617,-0.1617,-0.1617,-0.1617,-0.1617,-0.1617,-0.1617,-0.1617,-0.3587,-0.3699,-0.459,-0.526,-0.5592,-0.6366,-0.6682,-0.6669,-0.7907,-0.9368,-1.0257,-1.0476,-1.0025,-1.0025,-1.0135,-1.0249,-1.0139,-1.0692,-1.0692,-1.0692,-1.0692,-1.0692,-1.0692,-1.0692,-1.0692,-1.0692,-1.0692,-1.0578,-1.0029,-1.0025,-0.9357,-0.7249,-0.7138,-0.5915,-0.358,-0.3024,-0.2689,-0.213,-0.1795,-0.1795,-0.1795,-0.1795,-0.1795,-0.1795,-0.1795,-0.1795,-0.1795,-0.1795,-0.1795,-0.1795,-0.1795,-0.1795,-0.1795,-0.1795,-0.1795,-0.1795,-0.1795,-0.1795,-0.1795,-0.1795,-0.1795,-0.1795,-0.1795,-0.1795,-0.1795,-0.1795,-0.1795,-0.1795,-0.1795,-0.1795,-0.1795,-0.1795,-0.1795,-0.1795,-0.1795,-0.1795,-0.1795,-0.1795,-0.1794,-0.1794,-0.1787,-0.1763,-0.174,-0.1717,-0.1701,-0.1674,-0.1649,-0.1644,-0.1626,-0.1622,-0.1618,-0.1617,-0.1617,-0.1617,-0.1617,-0.1617,-0.1617,-0.1617,-0.1617,-0.1617,-0.1617,-0.1617,-0.1617,-0.1617,-0.1617,-0.1617,-0.1617,-0.1617,-0.1617,-0.1617,-0.1617,-0.1617,-0.1617,-0.1617,-0.1617]},{"header":{"parameterUnit":"m.s-1","parameterCategory":1,"la1":31.0,"la2":29.5877,"lo1":-88.7671,"lo2":-86.6584,"dy":0.0162,"dx":0.0185,"nx":115,"ny":88,"refTime":"2023-07-14T18:00:00:Z","depth":0,"parameterNumber":3,"parameterNumberName":"V-component_of_WINDS"},"data":[0.0,0.0,0.0,0.0,0.0,0.0,0.0,0.0,0.0,0.0,0.0,0.0,0.0,0.0,0.0,0.0,0.0,0.0,0.0,0.0,0.0,0.0,0.0,0.0,0.0,0.0,0.0,0.0,0.0,0.0,0.0,0.0,0.0,0.0,0.0,0.0,0.0,0.0,0.0,0.0,0.0,0.0,0.0,0.0,0.0,0.0,0.0,0.0,0.0,0.0,0.0,0.0,0.0,0.0,0.0,0.0,0.0,0.0,0.0,0.0,0.0,0.0,0.0,0.0,0.0,0.0,0.0,0.0,0.0,0.0,0.0,0.0,0.0,0.0,0.0,0.0,0.0,0.0,0.0,0.0,0.0,0.0,0.0,0.0,0.0,0.0,0.0,0.0,0.0,0.0,0.0,0.0,0.0,0.0,0.0,0.0,0.0,0.0,0.0,0.0,0.0,0.0,0.0,0.0,0.0,0.0,0.0,0.0,0.0,0.0,0.0,0.0,0.0,0.0,0.0,0.0,0.0,0.0,0.0,0.0,0.0,0.0,0.0,0.0,0.0,0.0,0.0,0.0,0.0,0.0,0.0,0.0,0.0,0.0,0.0,0.0,0.0,0.0,0.0,0.0,0.0,0.0,0.0,0.0,0.0,0.0,0.0,0.0,0.0,0.0,0.0,0.0,0.0,0.0,0.0,0.0,0.0,0.0,0.0,0.0,0.0,0.0,0.0,0.0,0.0,0.0,0.0,0.0,0.0,0.0,0.0,0.0,0.0,0.0,0.0,0.0,0.0,0.0,0.0,0.0,0.0,0.0,0.0,0.0,0.0,0.0,0.0,0.0,0.0,0.0,0.0,0.0,0.0,0.0,0.0,0.0,0.0,0.0,0.0,0.0,0.0,0.0,0.0,0.0,0.0,0.0,0.0,0.0,0.0,0.0,0.0,0.0,0.0,0.0,0.0,0.0,0.0,0.0,0.0,0.0,0.0,0.0,0.0,0.0,0.0,0.0,0.0,0.0,0.0,0.0,0.0,0.0,0.0,0.0,0.0,0.0,0.0,0.0,0.0,0.0,0.0,0.0,0.0,0.0,0.0,0.0,0.0,0.0,0.0,0.0,0.0,0.0,0.0,0.0,0.0,0.0,0.0,0.0,0.0,0.0,0.0,0.0,0.0,0.0,0.0,0.0,0.0,0.0,0.0,0.0,0.0,0.0,0.0,0.0,0.0,0.0,0.0,0.0,0.0,0.0,0.0,0.0,0.0,0.0,0.0,0.0,0.0,0.0,0.0,0.0,0.0,0.0,0.0,0.0,0.0,0.0,0.0,0.0,0.0,0.0,0.0,0.0,0.0,0.0,0.0,0.0,0.0,0.0,0.0,0.0,0.0,0.0,0.0,0.0,0.0,0.0,0.0,0.0,0.0,0.0,0.0,0.0,0.0,0.0,0.0,0.0,0.0,0.0,0.0,0.0,0.0,0.0,0.0,0.0,0.0,0.0,0.0,0.0,0.0,0.0,0.0,0.0,0.0,0.0,0.0,0.0,0.0,0.0,0.0,0.0,0.0,0.0,0.0,0.0,0.0,0.0,0.0,0.0,0.0,0.0,0.0,0.0,0.0,0.0,0.0,0.0,0.0,0.0,0.0,0.0,0.0,0.0,0.0,0.0,0.0,0.0,0.0,0.0,0.0,0.0,0.0,0.0,0.0,0.0,0.0,0.0,0.0,0.0,0.0,0.0,0.0,0.0,0.0,0.0,0.0,0.0,0.0,0.0,0.0,0.0,0.0,0.0,0.0,0.0,0.0,0.0,0.0,0.0,0.0,0.0,0.0,0.0,0.0,0.0,0.0,0.0,0.0,0.0,0.0,0.0,0.0,0.0,0.0,0.0,0.0,0.0,0.0,0.0,0.0,0.0,0.0,0.0,0.0,0.0,0.0,0.0,0.0,0.0,0.0,0.0,0.0,0.0,0.0,0.0,0.0,0.0,0.0,0.0,0.0,0.0,0.0,0.0,0.0,0.0,0.0,0.0,0.0,0.0,0.0,0.0,0.0,0.0,0.0,0.0,0.0,0.0,0.0,0.0,0.0,0.0,0.0,0.0,0.0,0.0,0.0,0.0,0.0,0.0,0.0,0.0,0.0,0.0,0.0,0.0,0.0,0.0,0.0,0.0,0.0,0.0,0.0,0.0,0.0,0.0,0.0,0.0,0.0,0.0,0.0,0.0,0.0,0.0,0.0,0.0,0.0,0.0,0.0,0.0,0.0,0.0,0.0,0.0,0.0,0.0,0.0,0.0,0.0,0.0,0.0,0.0,0.0,0.0,0.0,0.0,0.0,0.0,0.0,0.0,0.0,0.0,0.0,0.0,0.0,0.0,0.0,0.0,0.0,0.0,0.0,0.0,0.0,0.0,0.0,0.0,0.0,0.0,0.0,0.0,0.0,0.0,0.0,0.0,0.0,0.0,0.0,0.0,0.0,0.0,0.0,0.0,0.0,0.0,0.0,0.0,0.0,0.0,0.0,0.0,0.0,0.0,0.0,0.0,0.0,0.0,0.0,0.0,0.0,0.0,0.0,0.0,0.0,0.0,0.0,0.0,0.0,0.0,0.0,0.0,0.0,0.0,0.0,0.0,0.0,0.0,0.0,0.0,0.0,0.0,0.0,0.0,0.0,0.0,0.0,0.0,0.0,0.0,0.0,0.0,0.0,0.0,0.0,0.0,0.0,0.0,0.0,0.0,0.0,0.0,0.0,0.0,0.0,0.0,0.0,0.0,0.0,0.0,0.0,0.0,0.0,0.0,0.0,0.0,0.0,0.0,0.0,0.0,0.0,0.0,0.0,0.0,0.0,0.0,0.0,0.0,0.0,0.0,0.0,0.0,0.0,0.0,0.0,0.0,0.0,0.0,0.0,0.0,0.0,0.0,0.0,0.0,0.0,0.0,0.0,0.0,0.0,0.0,0.0,0.0,0.0,0.0,0.0,0.0,0.0,0.0,0.0,0.0,0.0,0.0,0.0,0.0,0.0,0.0,0.0,0.0,0.0,0.0,0.0,0.0,0.0,0.0,0.0,0.0,0.0,0.0,0.0,0.0,0.0,0.0,0.0,0.0,0.0,0.0,0.0,0.0,0.0,0.0,0.0,0.0,0.0,0.0,0.0,0.0,0.0,0.0,0.0,0.0,0.0,0.0,0.0,0.0,0.0,0.0,0.0,0.0,0.0,0.0,0.0,0.0,0.0,0.0,0.0,0.0,0.0,0.0,0.0,0.0,0.0,0.0,0.0,0.0,0.0,0.0,0.0,0.0,0.0,0.0,0.0,0.0,0.0,0.0,0.0,0.0,0.0,0.0,0.0,0.0,0.0,0.0,0.0,0.0,0.0,0.0,0.0,0.0,0.0,0.0,0.0,0.0,0.0,0.0,0.0,0.0,0.0,0.0,0.0,0.0,0.0,0.0,0.0,0.0,0.0,0.0,0.0,0.0,0.0,0.0,0.0,0.0,0.0,0.0,0.0,0.0,0.0,0.0,0.0,0.0,0.0,0.0,0.0,0.0,0.0,0.0,0.0,0.0,0.0,0.0,0.0,0.0,0.0,0.0,0.0,0.0,0.0,0.0,0.0,0.0,0.0,0.0,0.0,0.0,0.0,0.0,0.0,0.0,0.0,0.0,0.0,0.0,0.0,0.0,0.0,0.0,0.0,0.0,0.0,0.0,0.0,0.0,0.0,0.0,0.0,0.0,0.0,0.0,0.0,0.0,0.0,0.0,0.0,0.0,0.0,0.0,0.0,0.0,0.0,0.0,0.0,0.0,0.0,0.0,0.0,0.0,0.0,0.0,0.0,0.0,0.0,0.0,0.0,0.0,0.0,0.0,0.0,0.0,0.0,0.0,0.0,0.0,0.0,0.0,0.0,0.0,0.0,0.0,0.0,0.0,0.0,0.0,0.0,0.0,0.0,0.0,0.0,0.0,0.0,0.0,0.0,0.0,0.0,0.0,0.0,0.0,0.0,0.0,0.0,0.0,0.0,0.0,0.0,0.0,0.0,0.0,0.0,0.0,0.0,0.0,0.0,0.0,0.0,0.0,0.0,0.0,0.0,0.0,0.0,0.0,0.0,0.0,0.0,0.0,0.0,0.0,0.0,0.0,0.0,0.0,0.0,0.0,0.0,0.0,0.0,0.0,0.0,0.0,0.0,0.0,0.0,0.0,0.0,0.0,0.0,0.0,0.0,0.0,0.0,0.0,0.0,0.0,0.0,0.0,0.0,0.0,0.0,0.0,0.0,0.0,-1.3379,0.0,0.0,0.0,0.0,0.0,0.0,0.0,0.0,0.0,0.0,0.0,0.0,0.0,0.0,0.0,0.0,0.0,0.0,0.0,0.0,0.0,0.0,0.0,0.0,0.0,0.0,0.0,0.0,0.0,0.0,0.0,0.0,0.0,0.0,0.0,0.0,0.0,0.0,0.0,0.0,0.0,0.0,0.0,0.0,0.0,0.0,0.0,0.0,0.0,0.0,0.0,0.0,0.0,0.0,0.0,0.0,0.0,0.0,0.0,0.0,0.0,0.0,0.0,0.0,0.0,0.0,0.0,0.0,0.0,0.0,0.0,0.0,0.0,0.0,0.0,0.0,0.0,0.0,0.0,0.0,0.0,0.0,0.0,0.0,0.0,0.0,0.0,0.0,0.0,0.0,0.0,0.0,0.0,0.0,0.0,0.0,0.0,0.0,0.0,0.0,0.0,0.0,0.0,0.0,0.0,0.0,0.0,0.0,0.0,0.0,-1.3906,-1.3801,-1.3743,-1.3669,-1.3573,0.0,0.0,0.0,0.0,0.0,0.0,0.0,0.0,0.0,0.0,0.0,0.0,0.0,0.0,0.0,0.0,0.0,0.0,0.0,0.0,0.0,0.0,0.0,0.0,0.0,0.0,0.0,0.0,0.0,0.0,0.0,0.0,0.0,0.0,0.0,0.0,0.0,0.0,0.0,0.0,0.0,0.0,0.0,0.0,0.0,0.0,0.0,0.0,0.0,0.0,0.0,0.0,0.0,0.0,0.0,0.0,0.0,0.0,0.0,0.0,0.0,0.0,0.0,0.0,0.0,0.0,0.0,0.0,0.0,0.0,0.0,0.0,0.0,0.0,0.0,0.0,0.0,0.0,0.0,0.0,0.0,0.0,0.0,0.0,0.0,0.0,0.0,0.0,0.0,0.0,0.0,0.0,0.0,0.0,0.0,0.0,0.0,0.0,0.0,0.0,0.0,0.0,0.0,0.0,0.0,0.0,0.0,0.0,0.0,0.0,0.0,0.0,-1.3894,-1.3836,-1.3774,0.0,0.0,0.0,0.0,0.0,0.0,0.0,0.0,0.0,0.0,0.0,0.0,0.0,0.0,0.0,0.0,0.0,0.0,0.0,0.0,0.0,0.0,0.0,0.0,0.0,0.0,0.0,0.0,0.0,0.0,0.0,0.0,0.0,0.0,0.0,0.0,0.0,0.0,0.0,0.0,0.0,0.0,0.0,0.0,0.0,0.0,0.0,0.0,0.0,0.0,0.0,0.0,0.0,0.0,0.0,0.0,0.0,0.0,0.0,0.0,0.0,0.0,0.0,0.0,0.0,0.0,0.0,0.0,0.0,0.0,0.0,0.0,0.0,0.0,0.0,0.0,0.0,0.0,0.0,0.0,0.0,0.0,0.0,0.0,0.0,0.0,0.0,0.0,0.0,0.0,0.0,0.0,0.0,0.0,0.0,0.0,0.0,0.0,0.0,0.0,0.0,0.0,0.0,0.0,0.0,0.0,0.0,0.0,0.0,0.0,-1.4145,-1.4091,-1.4078,0.0,-1.3977,0.0,0.0,0.0,0.0,0.0,0.0,0.0,0.0,0.0,0.0,0.0,0.0,0.0,0.0,0.0,0.0,0.0,0.0,0.0,0.0,0.0,0.0,0.0,0.0,0.0,0.0,0.0,0.0,0.0,0.0,0.0,0.0,0.0,0.0,0.0,0.0,0.0,0.0,0.0,0.0,0.0,0.0,0.0,0.0,0.0,0.0,0.0,0.0,0.0,0.0,0.0,0.0,0.0,0.0,0.0,0.0,0.0,0.0,0.0,0.0,0.0,0.0,0.0,0.0,0.0,0.0,0.0,0.0,0.0,0.0,0.0,0.0,0.0,0.0,0.0,0.0,0.0,0.0,0.0,0.0,0.0,0.0,0.0,0.0,0.0,0.0,0.0,0.0,0.0,0.0,0.0,0.0,0.0,0.0,0.0,0.0,0.0,0.0,0.0,0.0,0.0,0.0,0.0,0.0,0.0,0.0,0.0,0.0,0.0,0.0,-1.4247,-1.4203,-1.419,-1.4145,0.0,0.0,0.0,0.0,0.0,0.0,0.0,0.0,0.0,0.0,0.0,0.0,0.0,0.0,0.0,0.0,0.0,0.0,0.0,0.0,0.0,0.0,0.0,0.0,0.0,0.0,0.0,0.0,0.0,0.0,0.0,0.0,0.0,0.0,0.0,0.0,0.0,0.0,0.0,0.0,0.0,0.0,0.0,0.0,0.0,0.0,0.0,0.0,0.0,0.0,0.0,0.0,0.0,0.0,0.0,0.0,0.0,0.0,0.0,0.0,0.0,0.0,0.0,0.0,0.0,0.0,0.0,0.0,0.0,0.0,0.0,0.0,0.0,0.0,0.0,0.0,0.0,0.0,0.0,0.0,0.0,0.0,0.0,0.0,0.0,0.0,0.0,0.0,0.0,0.0,0.0,0.0,0.0,0.0,0.0,0.0,0.0,0.0,0.0,0.0,0.0,0.0,0.0,0.0,0.0,0.0,0.0,0.0,0.0,0.0,-1.4324,-1.433,-1.4299,-1.4242,-1.4229,-1.4229,0.0,0.0,0.0,0.0,0.0,0.0,0.0,0.0,0.0,0.0,0.0,0.0,0.0,0.0,0.0,0.0,0.0,0.0,0.0,0.0,0.0,0.0,0.0,0.0,0.0,0.0,0.0,0.0,0.0,0.0,0.0,0.0,0.0,0.0,0.0,0.0,0.0,0.0,0.0,0.0,0.0,0.0,0.0,0.0,0.0,0.0,0.0,0.0,0.0,0.0,0.0,0.0,0.0,0.0,0.0,0.0,0.0,0.0,0.0,0.0,0.0,0.0,0.0,0.0,0.0,0.0,0.0,0.0,0.0,0.0,0.0,0.0,0.0,0.0,0.0,0.0,0.0,0.0,0.0,0.0,0.0,0.0,0.0,0.0,0.0,0.0,0.0,0.0,0.0,0.0,0.0,0.0,0.0,0.0,0.0,0.0,0.0,0.0,0.0,0.0,0.0,0.0,0.0,0.0,0.0,0.0,0.0,0.0,-1.4387,-1.4387,-1.4393,-1.4411,-1.4348,-1.4286,0.0,0.0,0.0,0.0,0.0,0.0,0.0,0.0,0.0,0.0,0.0,0.0,0.0,0.0,0.0,0.0,0.0,0.0,0.0,0.0,0.0,0.0,0.0,0.0,0.0,0.0,0.0,0.0,0.0,0.0,0.0,0.0,0.0,0.0,0.0,0.0,0.0,0.0,0.0,0.0,0.0,0.0,0.0,0.0,0.0,0.0,0.0,0.0,0.0,0.0,0.0,0.0,0.0,0.0,0.0,0.0,0.0,0.0,0.0,0.0,0.0,0.0,0.0,0.0,0.0,0.0,0.0,0.0,0.0,0.0,0.0,0.0,0.0,0.0,0.0,0.0,0.0,0.0,0.0,0.0,0.0,0.0,0.0,0.0,0.0,0.0,0.0,0.0,0.0,0.0,0.0,0.0,0.0,0.0,0.0,0.0,0.0,0.0,0.0,0.0,0.0,0.0,0.0,0.0,0.0,0.0,0.0,0.0,0.0,-1.4467,-1.4428,-1.4411,-1.4417,-1.4381,-1.4387,0.0,0.0,0.0,0.0,0.0,0.0,0.0,0.0,0.0,0.0,0.0,0.0,0.0,0.0,0.0,0.0,0.0,0.0,0.0,0.0,0.0,0.0,0.0,0.0,0.0,0.0,0.0,0.0,0.0,0.0,0.0,0.0,0.0,0.0,0.0,0.0,0.0,0.0,0.0,0.0,0.0,0.0,0.0,0.0,0.0,0.0,0.0,0.0,0.0,0.0,0.0,0.0,0.0,0.0,0.0,0.0,0.0,0.0,0.0,0.0,0.0,0.0,0.0,0.0,0.0,0.0,0.0,0.0,0.0,0.0,0.0,0.0,0.0,0.0,0.0,0.0,0.0,0.0,0.0,0.0,0.0,0.0,0.0,0.0,0.0,0.0,0.0,0.0,0.0,0.0,0.0,0.0,0.0,0.0,0.0,0.0,0.0,0.0,0.0,0.0,0.0,0.0,0.0,0.0,0.0,0.0,0.0,0.0,0.0,-1.4577,0.0,-1.4462,-1.4462,-1.4464,-1.4434,0.0,0.0,0.0,0.0,0.0,0.0,0.0,0.0,0.0,0.0,0.0,0.0,0.0,0.0,0.0,0.0,0.0,0.0,0.0,0.0,0.0,0.0,0.0,0.0,0.0,0.0,0.0,0.0,0.0,0.0,0.0,0.0,0.0,0.0,0.0,0.0,0.0,0.0,0.0,0.0,0.0,0.0,0.0,0.0,0.0,0.0,0.0,0.0,0.0,0.0,0.0,0.0,0.0,0.0,0.0,0.0,0.0,0.0,0.0,0.0,0.0,0.0,0.0,0.0,0.0,0.0,0.0,0.0,0.0,0.0,0.0,0.0,0.0,0.0,0.0,0.0,0.0,0.0,0.0,0.0,0.0,0.0,0.0,0.0,0.0,0.0,0.0,0.0,0.0,0.0,0.0,0.0,0.0,0.0,0.0,0.0,0.0,0.0,0.0,0.0,0.0,0.0,0.0,0.0,0.0,0.0,0.0,0.0,-1.4774,-1.4744,-1.472,-1.4733,-1.4637,-1.4644,-1.4547,0.0,0.0,0.0,0.0,0.0,0.0,0.0,0.0,0.0,0.0,0.0,0.0,0.0,0.0,0.0,0.0,0.0,0.0,0.0,0.0,0.0,0.0,0.0,0.0,0.0,0.0,0.0,0.0,0.0,0.0,0.0,0.0,0.0,0.0,0.0,0.0,0.0,0.0,0.0,0.0,0.0,0.0,0.0,0.0,0.0,0.0,0.0,0.0,0.0,0.0,0.0,0.0,0.0,0.0,0.0,0.0,0.0,0.0,0.0,0.0,0.0,0.0,0.0,0.0,0.0,0.0,0.0,0.0,0.0,0.0,0.0,0.0,0.0,0.0,0.0,0.0,0.0,0.0,0.0,0.0,0.0,0.0,0.0,0.0,0.0,0.0,0.0,0.0,0.0,0.0,0.0,0.0,0.0,0.0,0.0,0.0,0.0,0.0,0.0,0.0,0.0,0.0,0.0,0.0,0.0,0.0,0.0,0.0,0.0,-1.6498,-1.6436,-1.6385,-1.6399,-1.6323,-1.6015,0.0,0.0,0.0,0.0,0.0,0.0,0.0,0.0,0.0,0.0,0.0,0.0,0.0,0.0,0.0,0.0,0.0,0.0,0.0,0.0,0.0,0.0,0.0,0.0,0.0,0.0,0.0,0.0,0.0,0.0,0.0,0.0,0.0,0.0,0.0,0.0,0.0,0.0,0.0,0.0,0.0,0.0,0.0,0.0,0.0,0.0,0.0,0.0,0.0,0.0,0.0,0.0,0.0,0.0,0.0,0.0,0.0,0.0,0.0,0.0,0.0,0.0,0.0,0.0,0.0,0.0,0.0,0.0,0.0,0.0,0.0,0.0,0.0,0.0,0.0,0.0,0.0,0.0,0.0,0.0,0.0,0.0,0.0,0.0,0.0,0.0,0.0,0.0,0.0,0.0,0.0,0.0,0.0,0.0,0.0,0.0,0.0,0.0,0.0,0.0,0.0,0.0,0.0,0.0,0.0,0.0,0.0,0.0,0.0,-1.919,-1.8554,-1.835,-1.8596,-1.8298,-1.7725,-1.6963,0.0,0.0,0.0,0.0,0.0,0.0,0.0,0.0,0.0,0.0,0.0,0.0,0.0,0.0,0.0,0.0,0.0,0.0,0.0,0.0,0.0,0.0,0.0,0.0,0.0,0.0,0.0,0.0,0.0,0.0,0.0,0.0,0.0,0.0,0.0,0.0,0.0,0.0,0.0,0.0,0.0,0.0,0.0,0.0,0.0,0.0,0.0,0.0,0.0,0.0,0.0,0.0,0.0,0.0,0.0,0.0,0.0,0.0,0.0,0.0,0.0,0.0,0.0,0.0,0.0,0.0,0.0,0.0,0.0,0.0,0.0,0.0,0.0,0.0,0.0,0.0,0.0,0.0,0.0,0.0,0.0,0.0,0.0,0.0,0.0,0.0,0.0,0.0,0.0,0.0,0.0,0.0,0.0,0.0,0.0,0.0,0.0,0.0,0.0,0.0,0.0,0.0,0.0,0.0,0.0,0.0,0.0,0.0,-2.2615,-2.1121,-2.0632,-2.1179,-2.0402,-1.9563,0.0,0.0,0.0,0.0,0.0,0.0,0.0,0.0,0.0,0.0,0.0,0.0,0.0,0.0,0.0,0.0,0.0,0.0,0.0,0.0,0.0,0.0,0.0,0.0,0.0,0.0,0.0,0.0,0.0,0.0,0.0,0.0,0.0,0.0,0.0,0.0,0.0,0.0,0.0,0.0,0.0,0.0,0.0,0.0,0.0,0.0,0.0,0.0,0.0,0.0,0.0,0.0,0.0,0.0,0.0,0.0,0.0,0.0,0.0,0.0,0.0,0.0,0.0,0.0,0.0,0.0,0.0,0.0,0.0,0.0,0.0,0.0,0.0,0.0,0.0,0.0,0.0,0.0,0.0,0.0,0.0,0.0,0.0,0.0,0.0,0.0,0.0,0.0,0.0,0.0,0.0,0.0,0.0,0.0,0.0,0.0,0.0,0.0,0.0,0.0,0.0,0.0,0.0,0.0,0.0,0.0,0.0,0.0,0.0,-2.5115,-2.5413,-2.4974,-2.3903,-2.2488,-2.1356,0.0,0.0,0.0,0.0,0.0,0.0,0.0,0.0,0.0,0.0,0.0,0.0,0.0,0.0,0.0,0.0,0.0,0.0,0.0,0.0,0.0,0.0,0.0,0.0,0.0,0.0,0.0,0.0,0.0,0.0,0.0,0.0,0.0,0.0,0.0,0.0,0.0,0.0,0.0,0.0,0.0,0.0,0.0,0.0,0.0,0.0,0.0,0.0,0.0,0.0,0.0,0.0,0.0,0.0,0.0,0.0,0.0,0.0,0.0,0.0,0.0,0.0,0.0,0.0,0.0,0.0,0.0,0.0,0.0,0.0,0.0,0.0,0.0,0.0,0.0,0.0,0.0,0.0,0.0,0.0,0.0,0.0,0.0,0.0,0.0,0.0,0.0,0.0,0.0,0.0,0.0,0.0,0.0,0.0,0.0,0.0,0.0,0.0,0.0,0.0,0.0,0.0,0.0,0.0,0.0,0.0,0.0,0.0,-2.4403,-2.6186,-2.7736,-2.8048,-2.7021,-2.5055,-2.3447,0.0,0.0,0.0,0.0,0.0,0.0,0.0,0.0,0.0,0.0,0.0,0.0,0.0,0.0,0.0,0.0,0.0,0.0,0.0,0.0,0.0,0.0,0.0,0.0,0.0,0.0,0.0,0.0,0.0,0.0,0.0,0.0,0.0,0.0,0.0,0.0,0.0,0.0,0.0,0.0,0.0,0.0,0.0,0.0,0.0,0.0,0.0,0.0,0.0,0.0,0.0,0.0,0.0,0.0,0.0,0.0,0.0,0.0,0.0,0.0,0.0,0.0,0.0,0.0,0.0,0.0,0.0,0.0,0.0,0.0,0.0,0.0,0.0,0.0,0.0,0.0,0.0,0.0,0.0,0.0,0.0,0.0,0.0,0.0,0.0,0.0,0.0,0.0,0.0,0.0,0.0,0.0,0.0,0.0,0.0,0.0,0.0,0.0,0.0,0.0,0.0,0.0,0.0,0.0,0.0,0.0,0.0,0.0,-2.5582,-2.647,-2.8776,-2.9972,-2.9848,-2.7487,-2.5466,0.0,0.0,0.0,0.0,0.0,0.0,0.0,0.0,0.0,0.0,0.0,0.0,0.0,0.0,0.0,0.0,0.0,0.0,0.0,0.0,0.0,0.0,0.0,0.0,0.0,0.0,0.0,0.0,0.0,0.0,0.0,0.0,0.0,0.0,0.0,0.0,0.0,0.0,0.0,0.0,0.0,0.0,0.0,0.0,0.0,0.0,0.0,0.0,0.0,0.0,0.0,0.0,0.0,0.0,0.0,0.0,0.0,0.0,0.0,0.0,0.0,0.0,0.0,0.0,0.0,0.0,0.0,0.0,0.0,0.0,0.0,0.0,0.0,0.0,0.0,0.0,0.0,0.0,0.0,0.0,0.0,0.0,0.0,0.0,0.0,0.0,0.0,0.0,0.0,0.0,0.0,0.0,0.0,0.0,0.0,0.0,0.0,0.0,0.0,0.0,0.0,0.0,0.0,0.0,0.0,0.0,0.0,0.0,-2.6795,-2.8221,-2.938,-2.9972,-2.9888,-2.7498,-2.5754,0.0,0.0,0.0,0.0,0.0,0.0,0.0,0.0,0.0,0.0,0.0,0.0,0.0,0.0,0.0,0.0,0.0,0.0,0.0,0.0,0.0,0.0,0.0,0.0,0.0,0.0,0.0,0.0,0.0,0.0,0.0,0.0,0.0,0.0,0.0,0.0,0.0,0.0,0.0,0.0,0.0,0.0,0.0,0.0,0.0,0.0,0.0,0.0,-2.2231,0.0,0.0,0.0,0.0,0.0,0.0,0.0,0.0,0.0,0.0,0.0,0.0,0.0,0.0,0.0,0.0,0.0,0.0,0.0,0.0,0.0,0.0,0.0,0.0,0.0,0.0,0.0,0.0,0.0,0.0,0.0,0.0,0.0,0.0,0.0,0.0,0.0,0.0,0.0,0.0,0.0,0.0,0.0,0.0,0.0,0.0,0.0,0.0,0.0,0.0,0.0,0.0,0.0,0.0,0.0,0.0,0.0,0.0,0.0,-2.8014,-2.9952,-3.0837,-3.1213,-3.1023,-2.9431,-2.7612,0.0,0.0,0.0,0.0,0.0,0.0,0.0,0.0,0.0,0.0,0.0,0.0,0.0,0.0,0.0,0.0,0.0,0.0,0.0,0.0,0.0,0.0,0.0,0.0,0.0,0.0,0.0,0.0,0.0,0.0,0.0,0.0,0.0,0.0,0.0,0.0,0.0,0.0,0.0,0.0,0.0,0.0,0.0,0.0,0.0,0.0,0.0,0.0,0.0,0.0,0.0,0.0,0.0,0.0,0.0,0.0,0.0,0.0,0.0,0.0,0.0,0.0,0.0,0.0,0.0,0.0,0.0,0.0,0.0,0.0,0.0,0.0,0.0,0.0,0.0,0.0,0.0,0.0,0.0,0.0,0.0,0.0,0.0,0.0,0.0,0.0,0.0,0.0,0.0,0.0,0.0,0.0,0.0,0.0,0.0,0.0,0.0,0.0,0.0,0.0,0.0,0.0,0.0,0.0,0.0,0.0,0.0,-2.7181,-2.9206,-3.1533,-3.2345,-3.2641,-3.2422,-3.1497,-2.9564,-2.6527,0.0,0.0,0.0,0.0,0.0,0.0,0.0,0.0,0.0,0.0,0.0,0.0,0.0,0.0,0.0,0.0,0.0,0.0,0.0,0.0,0.0,0.0,0.0,0.0,0.0,0.0,0.0,0.0,0.0,0.0,0.0,0.0,0.0,0.0,0.0,0.0,0.0,0.0,-1.9381,-1.9983,0.0,0.0,0.0,0.0,0.0,0.0,0.0,0.0,-2.3268,0.0,0.0,0.0,0.0,0.0,0.0,0.0,0.0,0.0,0.0,0.0,0.0,0.0,0.0,0.0,0.0,0.0,0.0,0.0,0.0,0.0,0.0,0.0,0.0,0.0,0.0,0.0,0.0,0.0,0.0,0.0,0.0,0.0,0.0,0.0,0.0,0.0,0.0,0.0,0.0,0.0,0.0,0.0,0.0,0.0,0.0,0.0,0.0,0.0,0.0,0.0,0.0,0.0,0.0,0.0,0.0,-2.6442,-2.8171,-3.0201,-3.2582,-3.2743,-3.2713,-3.2534,-3.1051,-2.9279,-2.7361,0.0,0.0,0.0,0.0,0.0,0.0,0.0,0.0,0.0,0.0,0.0,0.0,0.0,0.0,0.0,0.0,0.0,0.0,0.0,0.0,0.0,0.0,0.0,0.0,0.0,0.0,0.0,0.0,0.0,0.0,0.0,0.0,0.0,0.0,0.0,0.0,0.0,0.0,0.0,-2.1706,-2.1738,0.0,0.0,0.0,0.0,0.0,0.0,0.0,0.0,-2.3583,0.0,0.0,0.0,0.0,0.0,0.0,0.0,0.0,0.0,0.0,0.0,0.0,0.0,0.0,0.0,0.0,0.0,0.0,0.0,0.0,0.0,0.0,0.0,0.0,0.0,0.0,0.0,0.0,0.0,0.0,0.0,0.0,0.0,0.0,0.0,0.0,0.0,0.0,0.0,0.0,0.0,0.0,0.0,0.0,0.0,0.0,0.0,0.0,0.0,0.0,0.0,0.0,0.0,0.0,0.0,-2.8113,-3.0234,-3.2296,-3.4264,-3.4295,-3.418,-3.4035,-3.2316,-3.039,0.0,0.0,0.0,0.0,0.0,0.0,0.0,0.0,0.0,0.0,0.0,0.0,0.0,0.0,0.0,0.0,0.0,0.0,0.0,0.0,0.0,0.0,0.0,0.0,0.0,0.0,0.0,0.0,0.0,0.0,0.0,0.0,0.0,0.0,0.0,0.0,0.0,0.0,0.0,0.0,-2.2836,-2.2966,-2.4736,0.0,0.0,0.0,0.0,0.0,0.0,-2.5593,-2.5208,0.0,0.0,0.0,0.0,0.0,0.0,0.0,0.0,0.0,0.0,0.0,0.0,0.0,0.0,0.0,0.0,0.0,0.0,0.0,0.0,0.0,0.0,0.0,0.0,0.0,0.0,0.0,0.0,0.0,0.0,0.0,0.0,0.0,0.0,0.0,0.0,0.0,0.0,0.0,0.0,0.0,0.0,0.0,0.0,0.0,0.0,0.0,0.0,0.0,0.0,0.0,0.0,0.0,0.0,0.0,-2.9474,-3.1955,-3.4027,-3.5646,-3.565,-3.557,-3.5415,-3.3353,-3.1104,0.0,0.0,0.0,0.0,0.0,0.0,0.0,0.0,0.0,0.0,0.0,0.0,0.0,0.0,0.0,0.0,0.0,0.0,0.0,0.0,0.0,0.0,0.0,0.0,0.0,0.0,0.0,0.0,0.0,0.0,0.0,0.0,0.0,0.0,0.0,0.0,0.0,0.0,0.0,0.0,0.0,-2.4158,-2.6533,-2.4977,0.0,0.0,0.0,0.0,-2.6922,-2.7312,0.0,0.0,0.0,0.0,0.0,0.0,0.0,0.0,0.0,0.0,0.0,0.0,0.0,0.0,0.0,0.0,0.0,0.0,0.0,0.0,0.0,0.0,0.0,0.0,0.0,0.0,0.0,0.0,0.0,0.0,0.0,0.0,0.0,0.0,0.0,0.0,0.0,0.0,0.0,0.0,0.0,0.0,0.0,0.0,0.0,0.0,0.0,0.0,0.0,0.0,0.0,0.0,0.0,0.0,0.0,0.0,-2.9469,-3.1991,-3.4121,-3.5755,-3.5732,-3.565,-3.5523,-3.232,-2.9725,0.0,0.0,0.0,0.0,0.0,0.0,0.0,0.0,0.0,0.0,0.0,0.0,0.0,0.0,0.0,0.0,0.0,0.0,0.0,0.0,0.0,0.0,0.0,0.0,0.0,0.0,0.0,0.0,0.0,0.0,0.0,0.0,0.0,0.0,0.0,0.0,0.0,0.0,0.0,0.0,0.0,-2.481,-2.6631,-2.5979,-2.5085,0.0,0.0,-2.6933,-2.7916,-2.8695,0.0,0.0,0.0,0.0,0.0,0.0,0.0,0.0,0.0,0.0,0.0,0.0,0.0,0.0,0.0,0.0,0.0,0.0,0.0,0.0,0.0,0.0,0.0,0.0,0.0,0.0,0.0,0.0,0.0,0.0,0.0,0.0,0.0,0.0,0.0,0.0,0.0,0.0,0.0,0.0,0.0,0.0,0.0,0.0,0.0,0.0,0.0,0.0,0.0,0.0,0.0,0.0,0.0,0.0,0.0,-2.8126,-3.0273,-3.3234,-3.5137,-3.5852,-3.5846,-3.5787,-3.5753,-3.2324,-2.9659,0.0,0.0,0.0,0.0,0.0,0.0,0.0,0.0,0.0,0.0,0.0,0.0,0.0,0.0,0.0,0.0,0.0,0.0,0.0,0.0,0.0,0.0,0.0,0.0,0.0,0.0,0.0,0.0,0.0,0.0,0.0,0.0,0.0,0.0,0.0,0.0,0.0,0.0,0.0,0.0,0.0,0.0,-2.8143,-2.8062,0.0,0.0,0.0,-2.869,-2.9552,0.0,0.0,0.0,0.0,0.0,0.0,0.0,0.0,0.0,0.0,0.0,0.0,0.0,0.0,0.0,0.0,0.0,0.0,0.0,0.0,0.0,0.0,0.0,0.0,0.0,0.0,0.0,0.0,0.0,0.0,0.0,0.0,0.0,0.0,0.0,0.0,0.0,0.0,0.0,0.0,0.0,0.0,0.0,0.0,0.0,0.0,0.0,0.0,0.0,0.0,0.0,0.0,0.0,0.0,0.0,0.0,0.0,-3.0818,-3.4155,-3.5889,-3.5889,-3.5889,-3.5889,-3.583,-3.2895,0.0,0.0,0.0,0.0,0.0,0.0,0.0,0.0,0.0,0.0,0.0,0.0,0.0,0.0,0.0,0.0,0.0,0.0,0.0,0.0,0.0,0.0,0.0,0.0,0.0,0.0,0.0,-2.0294,0.0,0.0,0.0,0.0,0.0,0.0,0.0,0.0,0.0,0.0,0.0,0.0,0.0,0.0,-2.7853,-2.9585,-2.981,-3.0137,0.0,0.0,-3.0214,-3.1286,-3.2167,-3.1836,0.0,0.0,0.0,0.0,0.0,0.0,0.0,0.0,0.0,0.0,0.0,0.0,0.0,0.0,0.0,0.0,0.0,0.0,0.0,0.0,0.0,0.0,0.0,0.0,0.0,0.0,0.0,0.0,0.0,0.0,0.0,0.0,0.0,0.0,0.0,0.0,0.0,0.0,0.0,0.0,0.0,0.0,0.0,0.0,0.0,0.0,0.0,0.0,0.0,0.0,0.0,0.0,0.0,0.0,0.0,-3.0838,-3.4155,-3.5889,-3.5889,-3.5889,-3.5889,-3.5869,-3.4074,-3.1903,0.0,0.0,0.0,0.0,0.0,0.0,0.0,0.0,0.0,0.0,0.0,0.0,0.0,0.0,0.0,0.0,0.0,0.0,0.0,0.0,0.0,0.0,0.0,0.0,0.0,0.0,0.0,0.0,0.0,0.0,0.0,0.0,0.0,0.0,0.0,0.0,0.0,0.0,0.0,0.0,0.0,-2.8749,-3.0472,-3.0716,-3.1037,0.0,0.0,-3.1286,-3.2966,-3.3882,-3.357,-3.1013,0.0,0.0,0.0,0.0,0.0,0.0,0.0,0.0,0.0,0.0,0.0,0.0,0.0,0.0,0.0,0.0,0.0,0.0,0.0,0.0,0.0,0.0,0.0,0.0,0.0,0.0,0.0,0.0,0.0,0.0,0.0,0.0,0.0,0.0,0.0,0.0,0.0,0.0,0.0,0.0,0.0,0.0,0.0,0.0,0.0,0.0,0.0,0.0,0.0,0.0,0.0,0.0,0.0,-2.905,-3.0799,-3.4174,-3.5889,-3.5889,-3.5889,-3.5889,-3.5889,-3.4216,-3.2355,0.0,0.0,0.0,0.0,0.0,0.0,0.0,0.0,0.0,0.0,0.0,0.0,0.0,0.0,0.0,0.0,0.0,0.0,0.0,0.0,0.0,0.0,0.0,0.0,0.0,0.0,0.0,0.0,-2.5687,-2.6096,-2.4538,0.0,0.0,0.0,0.0,0.0,0.0,0.0,0.0,0.0,0.0,-2.981,-3.203,-3.2786,0.0,0.0,-3.3356,-3.32,-3.3375,-3.3648,-3.2986,-3.0414,-2.8539,0.0,0.0,0.0,0.0,0.0,0.0,0.0,0.0,0.0,0.0,0.0,0.0,0.0,0.0,0.0,0.0,0.0,0.0,0.0,0.0,0.0,0.0,0.0,0.0,0.0,0.0,0.0,0.0,0.0,0.0,0.0,0.0,0.0,0.0,0.0,0.0,0.0,0.0,0.0,0.0,0.0,0.0,0.0,0.0,0.0,0.0,0.0,0.0,0.0,0.0,0.0,0.0,-2.9046,-3.0799,-3.4155,-3.5889,-3.5889,-3.5889,-3.5889,-3.585,-3.4709,-3.3282,0.0,0.0,0.0,0.0,0.0,0.0,0.0,0.0,0.0,0.0,0.0,0.0,0.0,0.0,0.0,0.0,0.0,0.0,0.0,0.0,0.0,0.0,0.0,0.0,0.0,0.0,0.0,0.0,-2.6595,-2.6556,-2.4257,0.0,0.0,0.0,0.0,0.0,0.0,0.0,0.0,0.0,0.0,-3.1295,-3.3073,-3.3857,-3.4233,-3.4233,-3.3804,-3.3356,-3.3064,-3.2791,-3.2012,-3.018,0.0,0.0,0.0,0.0,0.0,0.0,0.0,0.0,0.0,0.0,0.0,0.0,0.0,0.0,0.0,0.0,0.0,0.0,0.0,0.0,0.0,0.0,0.0,0.0,0.0,0.0,0.0,0.0,0.0,0.0,-2.1698,0.0,0.0,0.0,0.0,0.0,0.0,0.0,0.0,0.0,0.0,0.0,0.0,0.0,0.0,0.0,0.0,0.0,0.0,0.0,0.0,0.0,0.0,-2.9085,-3.0818,-3.4174,-3.5889,-3.5889,-3.5889,-3.5889,-3.5889,-3.585,-3.5007,-3.3237,0.0,0.0,0.0,0.0,0.0,0.0,0.0,0.0,0.0,0.0,0.0,0.0,0.0,0.0,0.0,0.0,0.0,0.0,0.0,0.0,0.0,0.0,0.0,0.0,0.0,0.0,-2.4608,-2.5231,-2.5095,0.0,0.0,0.0,0.0,0.0,0.0,0.0,0.0,0.0,0.0,-3.1095,-3.3243,-3.3336,-3.3395,-3.3434,-3.3434,-3.2031,-3.1193,-3.2036,-3.1427,-3.0818,0.0,0.0,0.0,0.0,0.0,0.0,0.0,0.0,0.0,0.0,0.0,0.0,0.0,0.0,0.0,0.0,0.0,0.0,0.0,0.0,0.0,0.0,0.0,0.0,0.0,0.0,0.0,-2.5329,-2.4822,0.0,0.0,0.0,0.0,0.0,0.0,0.0,0.0,0.0,0.0,0.0,-2.9931,-2.9917,0.0,0.0,0.0,0.0,0.0,0.0,0.0,0.0,0.0,0.0,0.0,0.0,-2.9927,-3.17,-3.4447,-3.5889,-3.5889,-3.5889,-3.5889,-3.5889,-3.5889,-3.5085,-3.3354,0.0,0.0,0.0,0.0,0.0,0.0,0.0,0.0,0.0,0.0,0.0,0.0,0.0,0.0,0.0,0.0,0.0,0.0,0.0,0.0,0.0,0.0,0.0,0.0,0.0,-2.6381,0.0,0.0,0.0,0.0,0.0,0.0,0.0,0.0,0.0,0.0,0.0,-2.8535,-3.0526,-3.1286,-3.1851,-3.2465,-3.2523,-3.2732,0.0,0.0,0.0,0.0,0.0,0.0,0.0,0.0,0.0,0.0,0.0,0.0,0.0,0.0,-2.6741,-2.5863,-2.6158,-2.6553,-2.656,0.0,0.0,0.0,0.0,0.0,0.0,0.0,0.0,0.0,0.0,0.0,0.0,0.0,0.0,-2.7974,0.0,-2.7156,0.0,0.0,0.0,0.0,0.0,0.0,0.0,0.0,-3.0817,-3.1865,-3.2148,-3.2425,-3.2108,0.0,-3.1286,-2.9985,0.0,0.0,0.0,0.0,0.0,0.0,0.0,0.0,-3.0804,-3.2582,-3.5363,-3.6805,-3.681,-3.6805,-3.6785,-3.6805,-3.6805,-3.6273,-3.5137,-3.319,-3.1334,0.0,0.0,0.0,0.0,0.0,0.0,0.0,0.0,0.0,0.0,0.0,0.0,0.0,0.0,0.0,0.0,0.0,0.0,0.0,0.0,0.0,0.0,0.0,-2.7024,0.0,0.0,0.0,0.0,0.0,0.0,0.0,0.0,0.0,-2.6848,-2.8193,-2.9732,-3.1408,-3.168,-3.1583,-3.1232,0.0,0.0,0.0,0.0,0.0,0.0,0.0,-2.9513,-2.9557,-2.979,-3.0185,-3.0751,-3.0411,-3.0127,-3.0431,0.0,0.0,-2.8633,-2.8808,-2.9223,-2.9207,-2.9209,-2.9189,-2.921,-2.9189,-2.9175,0.0,0.0,0.0,0.0,0.0,0.0,0.0,0.0,-3.0998,-3.1008,0.0,-3.0112,0.0,0.0,0.0,0.0,0.0,-3.0111,0.0,0.0,-3.471,-3.549,-3.4808,-3.5552,-3.5521,-3.4736,-3.4695,-3.4291,-3.3356,-3.018,0.0,0.0,0.0,0.0,0.0,0.0,-3.1758,-3.358,-3.6791,-3.85,-3.8466,-3.848,-3.848,-3.848,-3.848,-3.8441,-3.8383,-3.6014,-3.4689,-3.4553,-2.9902,0.0,0.0,0.0,0.0,0.0,0.0,0.0,0.0,0.0,0.0,0.0,0.0,0.0,0.0,0.0,0.0,0.0,0.0,0.0,0.0,-2.6985,0.0,0.0,0.0,0.0,0.0,0.0,0.0,0.0,0.0,0.0,-2.7199,-2.924,-3.0799,-3.0857,0.0,0.0,0.0,0.0,-3.244,-3.002,-2.9572,-2.9591,-2.9674,-2.963,-3.0161,-3.1783,0.0,0.0,-3.3427,-3.2065,-3.1311,-3.2087,-3.291,-3.2949,-3.1309,-3.1092,-3.1133,-3.1133,-3.1172,-3.1075,-3.1094,-3.1231,-3.1157,-3.566,0.0,0.0,0.0,0.0,-3.2893,-3.3634,-3.4482,-3.5095,-3.5026,-3.4431,-3.4169,0.0,0.0,0.0,0.0,0.0,0.0,-3.4043,-3.4936,-3.6231,-3.703,-3.7386,-3.7634,-3.7637,-3.7391,-3.7383,-3.7272,-3.6999,-3.6045,-3.3453,-2.9396,0.0,0.0,0.0,0.0,-3.3804,-3.605,-3.7706,-3.8519,-3.8513,-3.8519,-3.8519,-3.8519,-3.8519,-3.8519,-3.85,-3.7773,-3.6818,-3.5552,-3.4111,0.0,0.0,0.0,0.0,0.0,0.0,0.0,0.0,0.0,0.0,0.0,0.0,0.0,0.0,0.0,0.0,0.0,0.0,0.0,-2.7725,-2.8948,-2.8544,0.0,0.0,0.0,0.0,0.0,0.0,0.0,0.0,0.0,-3.0531,-3.0706,-3.1037,0.0,0.0,-3.1057,-2.9669,-3.0667,-3.1505,-3.1369,-3.0843,0.0,0.0,-3.1758,-3.1529,-3.2006,-3.3349,-3.4312,-3.4319,-3.442,-3.4602,-3.4842,-3.5096,-3.5073,-3.4666,-3.453,-3.451,-3.4549,-3.4546,-3.4527,-3.4546,-3.453,-3.4476,-4.0103,-3.8054,-3.5836,-3.5115,-3.5432,-3.5563,-3.6128,-3.6952,-3.7487,-3.7422,-3.6929,-3.6927,-3.6177,-3.4857,-3.4031,0.0,0.0,0.0,-3.6161,-3.7015,-3.7498,-3.801,-3.8502,-3.8862,-3.902,-3.9052,-3.937,-3.9532,-3.9513,-3.9182,-3.7272,-3.3921,0.0,0.0,-3.3103,-3.4291,-3.5816,-3.7668,-3.8915,-3.9532,-3.9526,-3.9532,-3.9552,-3.9532,-3.9532,-3.9532,-3.9532,-3.9201,-3.8539,-3.7487,-3.6454,-3.4506,0.0,0.0,0.0,0.0,0.0,0.0,0.0,0.0,0.0,0.0,0.0,-2.4323,0.0,0.0,0.0,0.0,-2.829,-2.9186,-2.9693,-2.9771,0.0,0.0,0.0,0.0,0.0,0.0,0.0,-2.7686,-2.9537,-3.1115,-3.1958,-3.1641,-3.1641,-3.2504,-3.2167,-3.1388,-3.0175,0.0,-3.2382,-3.2596,-3.244,-3.2791,-3.4155,-3.4233,-3.4218,-3.4603,-3.5474,-3.6189,-3.6235,-3.6668,-3.6983,-3.7028,-3.7028,-3.7028,-3.7028,-3.7028,-3.6774,-3.6147,-3.601,-3.601,-3.601,-3.601,-3.5999,-4.4001,-4.3682,-3.9694,-3.8383,-3.8811,-3.8052,-3.8168,-3.8889,-3.8909,-3.8903,-3.8897,-3.8881,-3.8429,-3.7571,-3.684,0.0,-3.7508,-3.7508,-3.7951,-3.87,-3.8707,-3.8697,-3.8755,-3.9524,-3.9896,-3.9916,-4.0714,-4.111,-4.1052,-4.0273,-3.9493,-3.8694,-3.7175,-3.5908,-3.5051,-3.6512,-3.7765,-3.8706,-4.0292,-4.1091,-4.1091,-4.111,-4.111,-4.1091,-4.111,-4.1091,-4.1071,-4.0331,-3.9902,-3.9825,-3.7603,-3.622,-3.5869,0.0,0.0,0.0,0.0,0.0,0.0,0.0,0.0,0.0,0.0,0.0,0.0,0.0,0.0,0.0,-3.1252,0.0,-3.2211,-3.0024,0.0,0.0,0.0,-2.7024,-2.9357,-2.9713,-3.0117,-3.0896,0.0,0.0,-3.2382,0.0,-3.2835,-3.3687,-3.3629,-3.2947,-3.1422,-3.3278,-3.4544,-3.3882,-3.4408,-3.5168,-3.5986,-3.6668,-3.7278,-3.7956,-3.8507,-3.8361,-3.8339,-3.8381,-3.8486,-3.8492,-3.859,-3.8551,-3.859,-3.8473,-3.8102,-3.656,-3.6205,-3.6127,-3.603,-3.601,-3.6013,-4.756,-4.7411,-4.5748,-4.402,-4.2395,-4.2169,-4.2202,-4.2383,-4.2377,-4.237,-4.239,-4.2396,-4.1941,-4.1153,-4.0959,-4.0613,-4.0174,-4.0184,-4.0285,-4.0476,-4.0472,-4.0472,-4.0486,-4.0694,-4.0792,-4.0812,-4.0994,-4.111,-4.1091,-4.0877,-4.0701,-4.0506,-4.0682,-3.9708,-3.7681,-3.7993,-3.8948,-4.0467,-4.0896,-4.111,-4.111,-4.111,-4.111,-4.111,-4.111,-4.111,-4.111,-4.0916,-4.0799,-4.0779,-4.0195,-3.8948,-3.698,-3.3902,0.0,0.0,0.0,0.0,0.0,0.0,0.0,0.0,0.0,-2.5469,-2.5699,0.0,-2.9128,0.0,-3.2635,-3.3746,-3.3161,-3.2518,0.0,0.0,-2.9942,-2.9825,-3.0429,-3.168,-3.2557,-3.2752,-3.3902,-3.5012,-3.5869,-3.5986,-3.6298,-3.7116,-3.5558,-3.4389,-3.4642,-3.5733,-3.6512,-3.6376,-3.698,-3.7642,-3.7837,-3.8043,-3.8283,-3.8463,-3.8536,-3.851,-3.8518,-3.8544,-3.857,-3.8609,-3.8609,-3.8609,-3.8648,-3.8609,-3.8512,-3.8024,-3.7458,-3.6774,-3.6147,-3.603,-3.603,-4.8806,-4.8748,-4.828,-4.7235,-4.5839,-4.4676,-4.4169,-4.4157,-4.378,-4.3617,-4.3617,-4.3611,-4.3344,-4.2947,-4.2927,-4.2674,-4.2226,-4.2212,-4.2217,-4.2198,-4.2208,-4.2222,-4.2212,-4.2208,-4.2202,-4.2221,-4.2202,-4.2221,-4.2221,-4.2202,-4.2202,-4.2221,-4.2669,-4.2182,-4.0838,-4.076,-4.1247,-4.2202,-4.2221,-4.2202,-4.2221,-4.2221,-4.1851,-4.111,-4.0721,-4.0156,-3.9396,-3.8987,-3.8792,-3.8792,-3.8772,-3.8149,-3.6668,-3.4213,-3.1583,0.0,0.0,0.0,0.0,0.0,0.0,0.0,0.0,0.0,0.0,0.0,-3.0862,-3.1349,-3.3336,-3.4272,-3.3473,-3.338,-3.3298,-3.3103,-3.3083,-3.3375,-3.4155,-3.509,-3.5675,-3.5675,-3.6493,-3.7233,-3.7701,-3.7779,-3.809,-3.8948,-3.7837,-3.6941,-3.7058,-3.7506,-3.7915,-3.8305,-3.8772,-3.924,-3.9571,-3.9655,-3.9661,-3.9672,-3.9667,-3.9661,-3.9669,-3.9699,-3.9725,-3.9722,-3.9725,-3.9705,-3.9725,-3.9702,-3.9605,-3.9156,-3.8746,-3.8141,-3.734,-3.7145,-3.7145,-4.9118,-4.9118,-4.9138,-4.9138,-4.8923,-4.6566,-4.5501,-4.5365,-4.4598,-4.4201,-4.4085,-4.4085,-4.3994,-4.376,-4.376,-4.3715,-4.3617,-4.3604,-4.3604,-4.3604,-4.3602,-4.3602,-4.3617,-4.3604,-4.3617,-4.3617,-4.3617,-4.3617,-4.3617,-4.3617,-4.3617,-4.3617,-4.3714,-4.3753,-4.3773,-4.3877,-4.3819,-4.3604,-4.3507,-4.3429,-4.3429,-4.3227,-4.2416,-4.0994,-3.998,-3.8753,-3.7272,-3.6376,-3.5889,-3.5908,-3.6006,-3.6103,-3.6181,-3.3921,-3.2245,0.0,-2.9109,0.0,0.0,0.0,0.0,0.0,0.0,0.0,0.0,-3.246,-3.264,-3.2737,-3.4077,-3.47,-3.4096,-3.4038,-3.4642,-3.6025,-3.624,-3.6844,-3.8285,-3.8519,-3.8539,-3.8636,-3.8675,-3.8694,-3.885,-3.8831,-3.9162,-3.9825,-3.9864,-3.9493,-3.9006,-3.887,-3.9143,-3.9883,-3.998,-4.0195,-4.0779,-4.1013,-4.1,-4.1056,-4.0974,-4.11,-4.1012,-4.1023,-4.1069,-4.1049,-4.0971,-4.103,-4.1108,-4.1049,-4.0795,-4.0112,-3.9917,-3.9585,-3.8746,-3.8453,-3.8609,-5.0813,-5.0813,-5.0833,-5.0833,-5.0716,-4.9527,-4.8677,-4.8061,-4.7891,-4.7423,-4.6761,-4.6768,-4.5969,-4.4683,-4.4663,-4.4286,-4.3624,-4.3617,-4.3604,-4.3604,-4.3602,-4.3612,-4.3602,-4.3611,-4.3617,-4.3617,-4.3617,-4.3617,-4.3617,-4.3617,-4.3617,-4.3617,-4.4306,-4.4656,-4.4695,0.0,0.0,0.0,-4.2896,-4.2552,-4.2494,-4.1208,-4.037,-4.0019,-3.85,0.0,-3.7194,-3.6376,-3.5889,-3.5908,-3.6571,0.0,0.0,0.0,0.0,0.0,0.0,0.0,0.0,0.0,0.0,0.0,-3.3205,-3.3341,-3.32,-3.4389,-3.548,-3.6162,-3.6532,-3.6941,-3.7487,-3.7545,-3.7662,-3.7954,-3.8013,-3.8149,-3.848,-3.8539,-3.8753,-3.9474,-3.9552,-3.9825,-4.0429,-4.0623,-4.0643,-4.076,-4.0857,-4.0799,-4.0604,-4.0506,-4.0662,-4.0818,-4.0799,-4.0877,-4.1091,-4.1103,-4.1109,-4.112,-4.1115,-4.1109,-4.1113,-4.1101,-4.1108,-4.1108,-4.1108,-4.1108,-4.1108,-4.1108,-4.1049,-4.0873,-4.0834,-4.0405,-3.8944,-3.8609,-3.8609,-5.13,0.0,-5.13,-5.13,0.0,-5.0833,-5.0404,-4.9983,-4.9157,-4.8553,-4.8144,-4.8125,-4.7657,-4.68,-4.6371,-4.5942,-4.5514,-4.5092,-4.4884,-4.4884,-4.489,-4.4877,-4.4877,-4.4878,-4.4883,-4.4883,-4.489,-4.489,-4.4871,-4.4871,-4.489,-4.489,-4.5338,-4.5533,-4.5553,-4.5981,-4.5748,-4.489,-4.4462,-4.4228,-4.4189,-4.339,-4.2552,-4.1675,0.0,0.0,0.0,0.0,0.0,0.0,0.0,0.0,0.0,0.0,0.0,-3.6512,-3.5324,-3.4837,-3.5246,-3.5655,-3.6298,-3.7141,-3.7584,-3.7097,-3.5421,-3.6844,-3.7818,-3.7837,-3.7837,-3.8207,-3.9026,-3.9143,-3.9318,-3.9727,-3.9786,-3.9786,-3.9786,-3.9786,-3.9961,-4.0331,-4.0448,-4.0623,-4.1052,-4.111,-4.111,-4.111,-4.111,-4.113,-4.111,-4.111,-4.111,-4.1097,-4.1103,-4.1103,-4.1109,-4.112,-4.1125,-4.1106,-4.11,-4.1113,-4.1113,-4.1101,-4.1108,-4.1108,-4.1108,-4.1108,-4.1108,-4.1108,-4.1108,-4.1108,-4.1108,-4.0893,-3.9976,-3.9839,-3.9819,-5.13,-5.13,-5.13,-5.13,-5.13,-5.13,-5.13,-5.1203,0.0,0.0,0.0,-4.9021,-4.8943,-4.8748,-4.8027,-4.7735,-4.7657,-4.6819,-4.6429,-4.641,-4.6274,-4.6196,-4.6196,-4.6196,-4.6196,-4.6196,-4.6196,-4.6196,-4.6196,-4.6196,-4.6196,-4.6196,-4.6196,-4.6196,-4.6196,-4.6196,-4.6196,-4.6196,-4.604,-4.5981,-4.5962,-4.567,-4.4812,-4.3383,-4.2396,-4.1208,-3.9864,-3.8948,-3.8519,-3.8519,-3.8656,-3.8792,-3.8928,-3.8422,-3.8168,-3.8285,-3.7662,-3.7837,-3.9084,-3.9182,-3.9727,-4.1033,-4.111,-4.0195,-3.8032,-3.9201,-3.9747,-3.9006,-3.8967,-3.926,-3.9961,-4.0019,-4.0331,-4.1033,-4.111,-4.1091,-4.1091,-4.111,-4.1033,-4.111,-4.1071,-4.111,-4.111,-4.111,-4.111,-4.113,-4.1266,-4.1403,-4.1461,-4.1325,-4.1103,-4.1109,-4.127,-4.1354,-4.1364,-4.1583,-4.1525,-4.1725,-4.1655,-4.1566,-4.1546,-4.1417,-4.1342,-4.142,-4.1244,-4.1108,-4.1108,-4.1108,-4.1108,-4.1108,-4.1108,-4.1108,-4.1108,-4.1088,-4.103,-5.13,-5.13,-5.13,-5.13,-5.13,-5.13,-5.13,-5.1281,-5.1028,-5.0541,-4.982,-4.9839,-4.9449,-4.8787,-4.867,-4.8612,-4.8573,-4.7715,-4.7306,-4.7267,-4.6527,-4.6196,-4.6196,-4.6196,-4.6196,-4.6196,-4.6196,-4.6196,-4.6196,-4.6196,-4.6196,-4.6196,-4.6196,-4.6196,-4.6196,-4.6196,-4.6196,-4.6196,-4.5455,-4.5085,-4.5066,-4.3624,-4.274,-4.2435,-4.1052,-4.0058,-3.9805,-3.9026,-3.8519,-3.8539,-3.9201,-3.9941,-4.0701,-4.1266,-4.1929,-4.2624,-4.2585,-4.2312,-4.1786,-4.1747,-4.1559,-4.1149,-4.111,-4.0916,-4.0604,-4.076,-4.0877,-4.074,-4.0662,-4.076,-4.0916,-4.0877,-4.0935,-4.1071,-4.111,-4.111,-4.111,-4.111,-4.111,-4.111,-4.111,-4.1149,-4.1169,-4.1188,-4.1266,-4.1266,-4.1792,-4.2377,-4.2708,-4.2,-4.1212,-4.1212,-4.1749,-4.2149,-4.2271,-4.2861,-4.3099,-4.3357,-4.3228,-4.3115,-4.3115,-4.263,-4.224,-4.222,-4.1713,-4.1303,-4.1225,-4.1108,-4.1264,-4.1303,-4.1322,-4.1283,-4.1303,-4.1264,-4.1166,-5.13,-5.13,-5.13,-5.13,-5.13,-5.13,-5.13,-5.13,-5.13,-5.1086,-5.0735,-5.0716,-5.0502,-5.0131,-4.9664,-4.9449,-4.941,-4.8592,-4.8202,-4.8164,-4.7793,-4.7606,-4.7567,-4.7138,-4.6897,-4.6865,-4.641,-4.6196,-4.6196,-4.6196,-4.6196,-4.6196,-4.6196,-4.6196,-4.6196,-4.6196,-4.6196,-4.6176,-4.5806,-4.5611,-4.5592,-4.4832,-4.4423,-4.4403,-4.3643,-4.3273,-4.3254,-4.2883,-4.2669,-4.2689,-4.3059,-4.3468,-4.3838,-4.378,-4.3897,-4.4247,-4.3858,-4.3429,-4.3033,-4.302,-4.2857,-4.2494,-4.2474,-4.2455,-4.2455,-4.1617,-4.111,-4.111,-4.111,-4.111,-4.111,-4.111,-4.111,-4.111,-4.111,-4.111,-4.111,-4.111,-4.111,-4.1149,-4.15,-4.1753,-4.1753,-4.2163,-4.2455,-4.2494,-4.2818,-4.3195,-4.3565,-4.3019,-4.251,-4.2549,-4.2846,-4.3071,-4.3123,-4.3404,-4.3677,-4.3697,-4.37,-4.3704,-4.3684,-4.3294,-4.3157,-4.3099,-4.2728,-4.2552,-4.2494,-4.2513,-4.2513,-4.2494,-4.2513,-4.2513,-4.2494,-4.2181,-4.1654,-5.13,-5.13,-5.13,-5.13,-5.13,-5.13,-5.13,-5.13,-5.13,-5.13,-5.13,-5.13,-5.13,-5.1222,-5.0599,-5.0307,-5.019,-4.9449,-4.906,-4.906,-4.8872,-4.8794,-4.8736,-4.8093,-4.7801,-4.7723,-4.7099,-4.6683,-4.6527,-4.6488,-4.6391,-4.6215,-4.6196,-4.6196,-4.6196,-4.6196,-4.6196,-4.6196,-4.6196,-4.6196,-4.6196,-4.6196,-4.6196,-4.6196,-4.6176,-4.6196,-4.6196,-4.6196,-4.6196,-4.6196,-4.6196,-4.6196,-4.6176,-4.5572,-4.5183,-4.5124,-4.4559,-4.4091,-4.3897,-4.3695,-4.3617,-4.3617,-4.3617,-4.3598,-4.35,-4.2435,-4.1656,-4.1656,-4.1753,-4.1714,-4.1753,-4.1734,-4.1675,-4.1675,-4.1656,-4.1753,-4.1675,-4.1656,-4.1675,-4.1734,-4.2221,-4.2611,-4.2708,-4.3169,-4.3598,-4.3799,-4.3897,-4.3942,-4.4118,-4.422,-4.4256,-4.4241,-4.4124,-4.3997,-4.4016,-4.425,-4.4348,-4.4289,-4.4348,-4.4445,-4.4387,-4.4231,-4.3997,-4.3957,-4.3762,-4.3567,-4.3645,-4.3645,-4.3587,-4.3509,-4.3489,-4.3587,-4.3509,-4.3118,-4.2298,-5.132,-5.13,-5.1339,-5.13,-5.13,-5.13,-5.13,-5.13,-5.13,-5.13,-5.13,-5.13,-5.13,-5.13,-5.1203,-5.1145,-5.1086,-5.0268,-4.9898,-4.98,-4.9138,-4.8806,-4.8884,-4.8729,-4.869,-4.8651,-4.8534,-4.8047,-4.7404,-4.7384,-4.6995,-4.6293,-4.6196,-4.6215,-4.6196,-4.6196,-4.6196,-4.6196,-4.6196,-4.6196,-4.6196,-4.6196,-4.6196,-4.6196,-4.6196,-4.6196,-4.6196,-4.6196,-4.6196,-4.6196,-4.6196,-4.6196,-4.6196,-4.6118,-4.6059,-4.604,-4.5981,-4.5631,-4.4832,-4.4052,-4.3676,-4.3617,-4.3695,-4.3695,-4.3695,-4.35,-4.3364,-4.3351,-4.3344,-4.3254,-4.3344,-4.3286,-4.3208,-4.3156,-4.3215,-4.3371,-4.3254,-4.3364,-4.3364,-4.3364,-4.3351,-4.3468,-4.3507,-4.3682,-4.4014,-4.4702,-4.4793,-4.4994,-4.552,-4.5694,-4.5743,-4.5772,-4.541,-4.493,-4.4953,-4.5578,-4.5734,-4.5909,-4.5987,-4.5851,-4.5656,-4.5285,-4.4894,-4.4836,-4.4348,-4.3997,-4.3899,-4.3704,-4.3821,-4.4075,-4.4016,-4.3801,-4.3723,-4.3665,-4.3021,-5.2528,-5.208,-5.206,-5.1768,-5.1339,-5.13,-5.13,-5.13,-5.13,-5.13,-5.13,-5.13,-5.13,-5.13,-5.13,-5.13,-5.1281,-5.093,-5.0774,-5.0755,-5.0424,-5.0268,-5.0229,-4.9722,-4.9508,-4.9449,-4.904,-4.8612,-4.8339,-4.8261,-4.7832,-4.7053,-4.6975,-4.6722,-4.6254,-4.6196,-4.6196,-4.6196,-4.6196,-4.6196,-4.6196,-4.6196,-4.6196,-4.6196,-4.6196,-4.6196,-4.6196,-4.6196,-4.6196,-4.6196,-4.6196,-4.6196,-4.6196,-4.6196,-4.6196,-4.6196,-4.6196,-4.6059,-4.5689,-4.5338,-4.5144,-4.5124,-4.5124,-4.5124,-4.5124,-4.5144,-4.5124,-4.5027,-4.4208,-4.3617,-4.3637,-4.3617,-4.3617,-4.3604,-4.3611,-4.3643,-4.3604,-4.3668,-4.3649,-4.3643,-4.4052,-4.4377,-4.4442,-4.4818,-4.5253,-4.5624,-4.5669,-4.583,-4.6162,-4.6231,-4.6279,-4.6245,-4.5961,-4.5812,-4.5773,-4.6007,-4.6261,-4.63,-4.63,-4.63,-4.6222,-4.6085,-4.5773,-4.5753,-4.5363,-4.5129,-4.5324,-4.5246,-4.5246,-4.5168,-4.5187,-4.5109,-4.4602,-4.4484,-4.3899,-5.3541,-5.2976,-5.2703,-5.2236,-5.1651,-5.1398,-5.13,-5.13,-5.13,-5.13,-5.13,-5.13,-5.13,-5.13,-5.13,-5.13,-5.13,-5.13,-5.13,-5.13,-5.13,-5.13,-5.1222,-5.0696,-5.0346,-5.024,-4.98,-4.9372,-4.9138,-4.8865,-4.8456,-4.793,-4.7852,-4.754,-4.6975,-4.6917,-4.6897,-4.6917,-4.6917,-4.68,-4.6624,-4.6546,-4.6449,-4.6235,-4.6196,-4.6196,-4.6196,-4.6196,-4.6196,-4.6196,-4.6196,-4.6196,-4.6196,-4.6196,-4.6196,-4.6196,-4.6196,-4.6196,-4.6196,-4.6196,-4.6196,-4.6196,-4.6196,-4.6196,-4.6196,-4.6203,-4.6203,-4.6066,-4.504,-4.4377,-4.4325,-4.4306,-4.4306,-4.4306,-4.4306,-4.4312,-4.4376,-4.4367,-4.4431,-4.4382,-4.4928,-4.5253,-4.5337,-4.5733,-4.6108,-4.6128,-4.6192,-4.6211,-4.6236,-4.6264,-4.6288,-4.6288,-4.6277,-4.628,-4.63,-4.628,-4.63,-4.63,-4.63,-4.63,-4.63,-4.628,-4.628,-4.6046,-4.6241,-4.6241,-4.5968,-4.6124,-4.6222,-4.628,-4.6222,-4.6027,-4.55,-4.5382,-4.5109,-5.3892,-5.3716,-5.2937,-5.2567,-5.245,-5.1651,-5.13,-5.13,-5.13,-5.13,-5.13,-5.13,-5.13,-5.13,-5.13,-5.13,-5.13,-5.13,-5.13,-5.13,-5.13,-5.13,-5.13,-5.1261,-5.1222,-5.1125,-5.1028,-5.0638,-4.9937,-4.9235,-4.8787,-4.8748,-4.8729,-4.8709,-4.8553,-4.8495,-4.8631,-4.8495,-4.8475,-4.8241,-4.756,-4.7462,-4.7072,-4.6429,-4.6215,-4.6196,-4.6196,-4.6196,-4.6196,-4.6196,-4.6196,-4.6196,-4.6196,-4.6196,-4.6196,-4.6196,-4.6196,-4.6196,-4.6196,-4.6196,-4.6196,-4.6196,-4.6196,-4.6196,-4.6196,-4.6209,-4.6196,-4.6203,-4.602,-4.5897,-4.5898,-4.5754,-4.5852,-4.5891,-4.5982,-4.5955,-4.5994,-4.5816,-4.605,-4.5972,-4.5952,-4.5991,-4.6089,-4.6167,-4.6211,-4.6211,-4.626,-4.6284,-4.6284,-4.6292,-4.6296,-4.63,-4.63,-4.63,-4.63,-4.63,-4.63,-4.63,-4.63,-4.63,-4.63,-4.63,-4.63,-4.63,-4.63,-4.63,-4.63,-4.63,-4.628,-4.63,-4.63,-4.6105,-4.5948,-4.6144,-4.5948,-5.5236,-5.4593,-5.319,-5.2606,-5.2508,-5.1671,-5.13,-5.13,-5.13,-5.13,-5.13,-5.13,-5.13,-5.13,-5.13,-5.13,-5.13,-5.13,-5.13,-5.13,-5.13,-5.13,-5.13,-5.13,-5.13,-5.13,-5.13,-5.1145,-5.0872,-5.0521,-5.0112,-4.9644,-4.9547,-4.9333,-4.8884,-4.8806,-4.8806,-4.8806,-4.8806,-4.8631,-4.8358,-4.8319,-4.8164,-4.7832,-4.6761,-4.6196,-4.6196,-4.6196,-4.6196,-4.6196,-4.6196,-4.6196,-4.6196,-4.6196,-4.6196,-4.6196,-4.6196,-4.6196,-4.6196,-4.6196,-4.6196,-4.6196,-4.6196,-4.6196,-4.6196,-4.6203,-4.6209,-4.6203,-4.6209,-4.6209,-4.6215,-4.6209,-4.6209,-4.6215,-4.6245,-4.625,-4.6275,-4.6264,-4.6269,-4.626,-4.626,-4.6279,-4.626,-4.6264,-4.6269,-4.6269,-4.6292,-4.6296,-4.6296,-4.63,-4.63,-4.63,-4.63,-4.63,-4.63,-4.63,-4.63,-4.63,-4.63,-4.63,-4.63,-4.63,-4.63,-4.63,-4.63,-4.63,-4.63,-4.63,-4.63,-4.63,-4.63,-4.63,-4.628,-4.63,-4.63,-5.6152,-5.5411,-5.3736,-5.3015,-5.2879,-5.1787,-5.13,-5.13,-5.13,-5.13,-5.13,-5.13,-5.13,-5.13,-5.13,-5.13,-5.13,-5.13,-5.13,-5.13,-5.13,-5.13,-5.13,-5.13,-5.13,-5.13,-5.13,-5.13,-5.13,-5.13,-5.0989,-5.0463,-5.0404,-5.0151,-4.9683,-4.9605,-4.9625,-4.9605,-4.9605,-4.9508,-4.9255,-4.9177,-4.904,-4.867,-4.7637,-4.6897,-4.6624,-4.6352,-4.6196,-4.6196,-4.6196,-4.6196,-4.6196,-4.6196,-4.6196,-4.6196,-4.6196,-4.6196,-4.6196,-4.6196,-4.6196,-4.6196,-4.6196,-4.6203,-4.6203,-4.6209,-4.6203,-4.6215,-4.6226,-4.6231,-4.6236,-4.624,-4.6216,-4.6211,-4.626,-4.6303,-4.6303,-4.6296,-4.6296,-4.6292,-4.6288,-4.6288,-4.6292,-4.6296,-4.63,-4.63,-4.63,-4.63,-4.63,-4.63,-4.63,-4.63,-4.63,-4.63,-4.63,-4.63,-4.63,-4.63,-4.63,-4.63,-4.63,-4.63,-4.63,-4.63,-4.63,-4.63,-4.63,-4.63,-4.63,-4.63,-4.63,-4.63,-4.63,-4.63,-4.63,-5.6483,-5.6171,-5.4613,-5.3814,-5.3541,-5.2002,-5.13,-5.13,-5.13,-5.13,-5.13,-5.13,-5.13,-5.13,-5.13,-5.13,-5.13,-5.13,-5.13,-5.13,-5.13,-5.13,-5.13,-5.13,-5.13,-5.13,-5.13,-5.13,-5.13,-5.13,-5.1242,-5.1261,-5.1183,-5.1106,-5.1222,-5.1047,-5.1145,-5.1086,-5.1047,-5.0755,-5.0112,-5.0014,-4.9703,-4.906,-4.8787,-4.8339,-4.7579,-4.6741,-4.6313,-4.6274,-4.6215,-4.6196,-4.6196,-4.6196,-4.6196,-4.6196,-4.6196,-4.6196,-4.6196,-4.6196,-4.6196,-4.6196,-4.6196,-4.6203,-4.6203,-4.6215,-4.6226,-4.6279,-4.6288,-4.6296,-4.6277,-4.6277,-4.6273,-4.6216,-4.6279,-4.6308,-4.6288,-4.6296,-4.63,-4.63,-4.63,-4.63,-4.63,-4.63,-4.63,-4.63,-4.63,-4.63,-4.63,-4.63,-4.63,-4.63,-4.63,-4.63,-4.63,-4.63,-4.63,-4.63,-4.63,-4.63,-4.63,-4.63,-4.63,-4.63,-4.63,-4.63,-4.63,-4.63,-4.63,-4.63,-4.63,-4.63,-4.63,-4.63,-4.63,-5.6483,-5.6269,-5.4632,-5.3892,-5.3677,-5.2041,-5.13,-5.13,-5.13,-5.13,-5.13,-5.13,-5.13,-5.13,-5.13,-5.13,-5.13,-5.13,-5.13,-5.13,-5.13,-5.13,-5.13,-5.13,-5.13,-5.13,-5.13,-5.13,-5.13,-5.13,-5.13,-5.13,-5.13,-5.13,-5.13,-5.13,-5.13,-5.13,-5.13,-5.1145,-5.0911,-5.0891,-5.0755,-5.0502,-4.9956,-4.9469,-4.9157,-4.7852,-4.715,-4.7092,-4.6527,-4.6196,-4.6196,-4.6196,-4.6196,-4.6196,-4.6196,-4.6196,-4.6196,-4.6196,-4.6196,-4.6196,-4.6196,-4.6209,-4.6203,-4.6209,-4.6245,-4.6279,-4.6288,-4.6292,-4.63,-4.63,-4.6277,-4.6273,-4.6292,-4.6296,-4.6296,-4.63,-4.63,-4.63,-4.63,-4.63,-4.63,-4.63,-4.63,-4.63,-4.63,-4.63,-4.63,-4.63,-4.63,-4.63,-4.63,-4.63,-4.63,-4.63,-4.63,-4.63,-4.63,-4.63,-4.63,-4.63,-4.63,-4.63,-4.63,-4.63,-4.63,-4.63,-4.63,-4.63,-4.63,-4.63,-4.63,-4.63,-4.63,-5.6308,-5.586,-5.4496,-5.3697,-5.3288,-5.1865,-5.13,-5.13,-5.13,-5.13,-5.13,-5.13,-5.13,-5.13,-5.13,-5.13,-5.13,-5.13,-5.13,-5.13,-5.13,-5.13,-5.13,-5.13,-5.13,-5.13,-5.13,-5.13,-5.13,-5.13,-5.13,-5.13,-5.13,-5.13,-5.13,-5.13,-5.13,-5.13,-5.13,-5.13,-5.13,-5.13,-5.13,-5.1222,-5.0755,-5.0502,-5.0385,-4.9138,-4.83,-4.791,-4.7131,-4.6566,-4.6254,-4.6196,-4.6196,-4.6196,-4.6196,-4.6196,-4.6196,-4.6196,-4.6196,-4.6196,-4.6196,-4.6203,-4.6203,-4.6209,-4.6226,-4.6299,-4.6288,-4.6292,-4.63,-4.63,-4.63,-4.63,-4.63,-4.63,-4.63,-4.63,-4.63,-4.63,-4.63,-4.63,-4.63,-4.63,-4.63,-4.63,-4.63,-4.63,-4.63,-4.63,-4.63,-4.63,-4.63,-4.63,-4.63,-4.63,-4.63,-4.63,-4.63,-4.63,-4.63,-4.63,-4.63,-4.63,-4.63,-4.63,-4.63,-4.63,-4.63,-4.63,-4.63,-4.63,-4.63,-4.63,-4.63,-5.5937,-5.5119,-5.4203,-5.3346,-5.2606,-5.169,-5.13,-5.13,-5.13,-5.13,-5.13,-5.13,-5.13,-5.13,-5.13,-5.13,-5.13,-5.13,-5.13,-5.13,-5.13,-5.13,-5.13,-5.13,-5.13,-5.13,-5.13,-5.13,-5.13,-5.13,-5.13,-5.13,-5.13,-5.13,-5.13,-5.13,-5.13,-5.13,-5.13,-5.13,-5.13,-5.13,-5.13,-5.13,-5.1242,-5.1183,-5.1028,-5.0365,-4.9586,-4.8826,-4.7949,-4.7209,-4.6488,-4.6274,-4.6352,-4.6254,-4.6196,-4.6196,-4.6196,-4.6196,-4.6196,-4.6196,-4.6196,-4.6209,-4.6203,-4.6201,-4.6231,-4.6284,-4.6296,-4.63,-4.63,-4.63,-4.63,-4.63,-4.63,-4.63,-4.63,-4.63,-4.63,-4.63,-4.63,-4.63,-4.63,-4.63,-4.63,-4.63,-4.63,-4.63,-4.63,-4.63,-4.63,-4.63,-4.63,-4.63,-4.63,-4.63,-4.63,-4.63,-4.63,-4.63,-4.63,-4.63,-4.63,-4.63,-4.63,-4.63,-4.63,-4.63,-4.63,-4.63,-4.63,-4.63,-4.63,-4.63,-4.63,-5.5411,-5.5041,-5.358,-5.282,-5.2489,-5.1671,-5.13,-5.13,-5.13,-5.13,-5.13,-5.13,-5.13,-5.13,-5.13,-5.13,-5.13,-5.13,-5.13,-5.13,-5.13,-5.13,-5.13,-5.13,-5.13,-5.13,-5.13,-5.13,-5.13,-5.13,-5.13,-5.13,-5.13,-5.13,-5.13,-5.13,-5.13,-5.13,-5.13,-5.13,-5.13,-5.13,-5.13,-5.13,-5.13,-5.13,-5.13,-5.1086,-5.0248,-4.8923,-4.8612,-4.8066,-4.7267,-4.715,-4.6897,-4.6352,-4.6254,-4.6215,-4.6215,-4.6196,-4.6196,-4.6196,-4.6196,-4.6209,-4.6201,-4.6206,-4.6236,-4.6292,-4.63,-4.63,-4.63,-4.63,-4.63,-4.63,-4.63,-4.63,-4.63,-4.63,-4.63,-4.63,-4.63,-4.63,-4.63,-4.63,-4.63,-4.63,-4.63,-4.63,-4.63,-4.63,-4.63,-4.63,-4.63,-4.63,-4.63,-4.63,-4.63,-4.63,-4.63,-4.63,-4.63,-4.63,-4.63,-4.63,-4.63,-4.63,-4.63,-4.63,-4.63,-4.63,-4.63,-4.63,-4.63,-4.63,-4.63,-5.4983,-5.4535,-5.3171,-5.2391,-5.2021,-5.1515,-5.13,-5.13,-5.13,-5.13,-5.13,-5.13,-5.13,-5.13,-5.13,-5.13,-5.13,-5.13,-5.13,-5.13,-5.13,-5.13,-5.13,-5.13,-5.13,-5.13,-5.13,-5.13,-5.13,-5.13,-5.13,-5.13,-5.13,-5.13,-5.13,-5.13,-5.13,-5.13,-5.13,-5.13,-5.13,-5.13,-5.13,-5.13,-5.13,-5.13,-5.13,-5.13,-5.0657,-4.9625,-4.9274,-4.8904,-4.8144,-4.8047,-4.7637,-4.6819,-4.6741,-4.6624,-4.6274,-4.6196,-4.6196,-4.6196,-4.6196,-4.6209,-4.6215,-4.6201,-4.6236,-4.6288,-4.6296,-4.63,-4.63,-4.63,-4.63,-4.63,-4.63,-4.63,-4.63,-4.63,-4.63,-4.63,-4.63,-4.63,-4.63,-4.63,-4.63,-4.63,-4.63,-4.63,-4.63,-4.63,-4.63,-4.63,-4.63,-4.63,-4.63,-4.63,-4.63,-4.63,-4.63,-4.63,-4.63,-4.63,-4.63,-4.63,-4.63,-4.63,-4.63,-4.63,-4.63,-4.63,-4.63,-4.63,-4.63,-4.63,-4.63,-5.4554,-5.3677,-5.284,-5.2021,-5.1398,-5.13,-5.13,-5.13,-5.13,-5.13,-5.13,-5.13,-5.13,-5.13,-5.13,-5.13,-5.13,-5.13,-5.13,-5.13,-5.13,-5.13,-5.13,-5.13,-5.13,-5.13,-5.13,-5.13,-5.13,-5.13,-5.13,-5.13,-5.13,-5.13,-5.13,-5.13,-5.13,-5.13,-5.13,-5.13,-5.13,-5.13,-5.13,-5.13,-5.13,-5.13,-5.13,-5.1261,-5.0891,-5.017,-5.0131,-4.9722,-4.906,-4.8923,-4.8495,-4.7832,-4.7579,-4.7287,-4.6553,-4.6456,-4.63,-4.6261,-4.6203,-4.6209,-4.6209,-4.6201,-4.6236,-4.6288,-4.6296,-4.63,-4.63,-4.63,-4.63,-4.63,-4.63,-4.63,-4.63,-4.63,-4.63,-4.63,-4.63,-4.63,-4.63,-4.63,-4.63,-4.63,-4.63,-4.63,-4.63,-4.63,-4.63,-4.63,-4.63,-4.63,-4.63,-4.63,-4.63,-4.63,-4.63,-4.63,-4.63,-4.63,-4.63,-4.63,-4.63,-4.63,-4.63,-4.63,-4.63,-4.63,-4.63,-4.63,-4.63,-4.63,-4.63,-5.3677,-5.2801,-5.1924,-5.1476,-5.132,-5.13,-5.13,-5.13,-5.13,-5.13,-5.13,-5.13,-5.13,-5.13,-5.13,-5.13,-5.13,-5.13,-5.13,-5.13,-5.13,-5.13,-5.13,-5.13,-5.13,-5.13,-5.13,-5.13,-5.13,-5.13,-5.13,-5.13,-5.13,-5.13,-5.13,-5.13,-5.13,-5.13,-5.13,-5.13,-5.13,-5.13,-5.13,-5.13,-5.13,-5.13,-5.13,-5.13,-5.1203,-5.1067,-5.093,-5.0521,-4.9937,-4.9761,-4.9352,-4.8748,-4.8495,-4.8132,-4.7405,-4.7132,-4.6898,-4.6372,-4.6235,-4.6209,-4.6201,-4.6206,-4.624,-4.6273,-4.63,-4.63,-4.63,-4.63,-4.63,-4.63,-4.63,-4.63,-4.63,-4.63,-4.63,-4.63,-4.63,-4.63,-4.63,-4.63,-4.63,-4.63,-4.63,-4.63,-4.63,-4.63,-4.63,-4.63,-4.63,-4.63,-4.63,-4.63,-4.63,-4.63,-4.63,-4.63,-4.63,-4.63,-4.63,-4.63,-4.63,-4.63,-4.63,-4.63,-4.63,-4.63,-4.63,-4.63,-4.63,-4.63,-4.63,-5.3015,-5.2528,-5.1671,-5.13,-5.13,-5.13,-5.13,-5.13,-5.13,-5.13,-5.13,-5.13,-5.13,-5.13,-5.13,-5.13,-5.13,-5.13,-5.13,-5.13,-5.13,-5.13,-5.13,-5.13,-5.13,-5.13,-5.13,-5.13,-5.13,-5.13,-5.13,-5.13,-5.13,-5.13,-5.13,-5.13,-5.13,-5.13,-5.13,-5.13,-5.13,-5.13,-5.13,-5.13,-5.13,-5.13,-5.13,-5.13,-5.13,-5.13,-5.1281,-5.1125,-5.0735,-5.0599,-5.017,-4.9547,-4.9352,-4.895,-4.8321,-4.7723,-4.7294,-4.6858,-4.6488,-4.6284,-4.625,-4.6255,-4.6264,-4.6296,-4.63,-4.63,-4.63,-4.63,-4.63,-4.63,-4.63,-4.63,-4.63,-4.63,-4.63,-4.63,-4.63,-4.63,-4.63,-4.63,-4.63,-4.63,-4.63,-4.63,-4.63,-4.63,-4.63,-4.63,-4.63,-4.63,-4.63,-4.63,-4.63,-4.63,-4.63,-4.63,-4.63,-4.63,-4.63,-4.63,-4.63,-4.63,-4.63,-4.63,-4.63,-4.63,-4.63,-4.63,-4.63,-4.63,-4.63,-5.2528,-5.2353,-5.1612,-5.13,-5.13,-5.13,-5.13,-5.13,-5.13,-5.13,-5.13,-5.13,-5.13,-5.13,-5.13,-5.13,-5.13,-5.13,-5.13,-5.13,-5.13,-5.13,-5.13,-5.13,-5.13,-5.13,-5.13,-5.13,-5.13,-5.13,-5.13,-5.13,-5.13,-5.13,-5.13,-5.13,-5.13,-5.13,-5.13,-5.13,-5.13,-5.13,-5.13,-5.13,-5.13,-5.13,-5.13,-5.13,-5.13,-5.13,-5.13,-5.13,-5.13,-5.1261,-5.1028,-5.0229,-5.0217,-4.9795,-4.9114,-4.8457,-4.7995,-4.7752,-4.6933,-4.6509,-4.6533,-4.6401,-4.6288,-4.6296,-4.63,-4.63,-4.63,-4.63,-4.63,-4.63,-4.63,-4.63,-4.63,-4.63,-4.63,-4.63,-4.63,-4.63,-4.63,-4.63,-4.63,-4.63,-4.63,-4.63,-4.63,-4.63,-4.63,-4.63,-4.63,-4.63,-4.63,-4.63,-4.63,-4.63,-4.63,-4.63,-4.63,-4.63,-4.63,-4.63,-4.63,-4.63,-4.63,-4.63,-4.63,-4.63,-4.63,-4.63,-4.63,-4.63,-4.63,-5.2177,-5.1515,-5.1359,-5.13,-5.13,-5.13,-5.13,-5.13,-5.13,-5.13,-5.13,-5.13,-5.13,-5.13,-5.13,-5.13,-5.13,-5.13,-5.13,-5.13,-5.13,-5.13,-5.13,-5.13,-5.13,-5.13,-5.13,-5.13,-5.13,-5.13,-5.13,-5.13,-5.13,-5.13,-5.13,-5.13,-5.13,-5.13,-5.13,-5.13,-5.13,-5.13,-5.13,-5.13,-5.13,-5.13,-5.13,-5.13,-5.13,-5.13,-5.13,-5.13,-5.13,-5.13,-5.1183,-5.1055,-5.0945,-5.0589,-4.9965,-4.9703,-4.9245,-4.8621,-4.7762,-4.7333,-4.7162,-4.6733,-4.6468,-4.6296,-4.63,-4.63,-4.63,-4.63,-4.63,-4.63,-4.63,-4.63,-4.63,-4.63,-4.63,-4.63,-4.63,-4.63,-4.63,-4.63,-4.63,-4.63,-4.63,-4.63,-4.63,-4.63,-4.63,-4.63,-4.63,-4.63,-4.63,-4.63,-4.63,-4.63,-4.63,-4.63,-4.63,-4.63,-4.63,-4.63,-4.63,-4.63,-4.63,-4.63,-4.63,-4.63,-4.63,-4.63,-4.63,-4.63,-4.63,-5.169,-5.132,-5.13,-5.13,-5.13,-5.13,-5.13,-5.13,-5.13,-5.13,-5.13,-5.13,-5.13,-5.13,-5.13,-5.13,-5.13,-5.13,-5.13,-5.13,-5.13,-5.13,-5.13,-5.13,-5.13,-5.13,-5.13,-5.13,-5.13,-5.13,-5.13,-5.13,-5.13,-5.13,-5.13,-5.13,-5.13,-5.13,-5.13,-5.13,-5.13,-5.13,-5.13,-5.13,-5.13,-5.13,-5.13,-5.13,-5.13,-5.13,-5.13,-5.13,-5.13,-5.1308,-5.1296,-5.1296,-5.131,-5.1206,-5.0717,-5.044,-4.9835,-4.9473,-4.8654,-4.8224,-4.7971,-4.7502,-4.678,-4.6417,-4.63,-4.63,-4.63,-4.63,-4.63,-4.63,-4.63,-4.63,-4.63,-4.63,-4.63,-4.63,-4.63,-4.63,-4.63,-4.63,-4.63,-4.63,-4.63,-4.63,-4.63,-4.63,-4.63,-4.63,-4.63,-4.63,-4.63,-4.63,-4.63,-4.63,-4.63,-4.63,-4.63,-4.63,-4.63,-4.63,-4.63,-4.63,-4.63,-4.63,-4.63,-4.63,-4.63,-4.63,-4.63,-4.63,-4.63,-5.13,-5.13,-5.13,-5.13,-5.13,-5.13,-5.13,-5.13,-5.13,-5.13,-5.13,-5.13,-5.13,-5.13,-5.13,-5.13,-5.13,-5.13,-5.13,-5.13,-5.13,-5.13,-5.13,-5.13,-5.13,-5.13,-5.13,-5.13,-5.13,-5.13,-5.13,-5.13,-5.13,-5.13,-5.13,-5.13,-5.13,-5.13,-5.13,-5.13,-5.13,-5.13,-5.13,-5.13,-5.13,-5.13,-5.13,-5.13,-5.13,-5.13,-5.13,-5.13,-5.1308,-5.1303,-5.1317,-5.1323,-5.1304,-5.1355,-5.1196,-5.0855,-5.0449,-5.0317,-4.954,-4.9169,-4.8759,-4.815,-4.7276,-4.671,-4.6339,-4.63,-4.63,-4.63,-4.63,-4.63,-4.63,-4.63,-4.63,-4.63,-4.63,-4.63,-4.63,-4.63,-4.63,-4.63,-4.63,-4.63,-4.63,-4.63,-4.63,-4.63,-4.63,-4.63,-4.63,-4.63,-4.63,-4.63,-4.63,-4.63,-4.63,-4.63,-4.63,-4.63,-4.63,-4.63,-4.63,-4.63,-4.63,-4.63,-4.63,-4.63,-4.63,-4.63,-4.63,-4.63,-4.63,-5.13,-5.13,-5.13,-5.13,-5.13,-5.13,-5.13,-5.13,-5.13,-5.13,-5.13,-5.13,-5.13,-5.13,-5.13,-5.13,-5.13,-5.13,-5.13,-5.13,-5.13,-5.13,-5.13,-5.13,-5.13,-5.13,-5.13,-5.13,-5.13,-5.13,-5.13,-5.13,-5.13,-5.13,-5.13,-5.13,-5.13,-5.13,-5.13,-5.13,-5.13,-5.13,-5.13,-5.13,-5.13,-5.13,-5.13,-5.13,-5.13,-5.13,-5.13,-5.1308,-5.1303,-5.131,-5.1349,-5.1366,-5.1391,-5.1396,-5.1381,-5.1191,-5.1078,-5.0945,-5.0399,-5.0048,-4.952,-4.8642,-4.7764,-4.749,-4.6827,-4.6358,-4.6319,-4.63,-4.63,-4.63,-4.63,-4.63,-4.63,-4.63,-4.63,-4.63,-4.63,-4.63,-4.63,-4.63,-4.63,-4.63,-4.63,-4.63,-4.63,-4.63,-4.63,-4.63,-4.63,-4.63,-4.63,-4.63,-4.63,-4.63,-4.63,-4.63,-4.63,-4.63,-4.63,-4.63,-4.63,-4.63,-4.63,-4.63,-4.63,-4.63,-4.63,-4.63,-4.63,-4.63,-4.63,-5.13,-5.13,-5.13,-5.13,-5.13,-5.13,-5.13,-5.13,-5.13,-5.13,-5.13,-5.13,-5.13,-5.13,-5.13,-5.13,-5.13,-5.13,-5.13,-5.13,-5.13,-5.13,-5.13,-5.13,-5.13,-5.13,-5.13,-5.13,-5.13,-5.13,-5.13,-5.13,-5.13,-5.13,-5.13,-5.13,-5.13,-5.13,-5.13,-5.13,-5.13,-5.13,-5.13,-5.13,-5.13,-5.13,-5.13,-5.13,-5.13,-5.13,-5.1308,-5.1303,-5.1317,-5.1349,-5.1386,-5.1396,-5.1386,-5.1386,-5.139,-5.1394,-5.1394,-5.1375,-5.1004,-5.0653,-5.0126,-4.9442,-4.8427,-4.7627,-4.7276,-4.6866,-4.6436,-4.63,-4.63,-4.63,-4.63,-4.63,-4.63,-4.63,-4.63,-4.63,-4.63,-4.63,-4.63,-4.63,-4.63,-4.63,-4.63,-4.63,-4.63,-4.63,-4.63,-4.63,-4.63,-4.63,-4.63,-4.63,-4.63,-4.63,-4.63,-4.63,-4.63,-4.63,-4.63,-4.63,-4.63,-4.63,-4.63,-4.63,-4.63,-4.63,-4.63,-4.63,-4.63,-4.63,-4.63,-5.13,-5.13,-5.13,-5.13,-5.13,-5.13,-5.13,-5.13,-5.13,-5.13,-5.13,-5.13,-5.13,-5.13,-5.13,-5.13,-5.13,-5.13,-5.13,-5.13,-5.13,-5.13,-5.13,-5.13,-5.13,-5.13,-5.13,-5.13,-5.13,-5.13,-5.13,-5.13,-5.13,-5.13,-5.13,-5.13,-5.13,-5.1308,-5.1308,-5.1316,-5.1316,-5.1296,-5.1308,-5.1308,-5.13,-5.13,-5.1308,-5.13,-5.13,-5.1323,-5.1303,-5.1317,-5.133,-5.1386,-5.1396,-5.1381,-5.139,-5.1394,-5.1394,-5.1394,-5.1394,-5.1394,-5.1375,-5.1063,-5.0594,-5.0262,-4.9794,-4.8486,-4.8037,-4.749,-4.6866,-4.6671,-4.6534,-4.6436,-4.63,-4.63,-4.63,-4.63,-4.63,-4.63,-4.63,-4.63,-4.63,-4.63,-4.63,-4.63,-4.63,-4.63,-4.63,-4.63,-4.63,-4.63,-4.63,-4.63,-4.63,-4.63,-4.63,-4.63,-4.63,-4.63,-4.63,-4.63,-4.63,-4.63,-4.63,-4.63,-4.63,-4.63,-4.63,-4.63,-4.63,-4.63,-4.63,-4.63,-4.63,-5.13,-5.13,-5.13,-5.13,-5.13,-5.13,-5.13,-5.13,-5.13,-5.13,-5.13,-5.13,-5.13,-5.13,-5.13,-5.13,-5.13,-5.13,-5.13,-5.13,-5.13,-5.13,-5.13,-5.13,-5.13,-5.13,-5.13,-5.13,-5.13,-5.13,-5.13,-5.13,-5.13,-5.13,-5.13,-5.13,-5.1308,-5.1303,-5.1303,-5.1336,-5.1356,-5.1336,-5.131,-5.1303,-5.1296,-5.1308,-5.131,-5.1316,-5.1335,-5.1362,-5.1343,-5.133,-5.1366,-5.1396,-5.1386,-5.139,-5.1394,-5.1394,-5.1394,-5.1394,-5.1394,-5.1394,-5.1375,-5.1355,-5.1082,-5.0457,-5.0008,-4.9677,-4.9032,-4.8369,-4.7822,-4.7451,-4.7022,-4.671,-4.6495,-4.63,-4.63,-4.63,-4.63,-4.63,-4.63,-4.63,-4.63,-4.63,-4.63,-4.63,-4.63,-4.63,-4.63,-4.63,-4.63,-4.63,-4.63,-4.63,-4.63,-4.63,-4.63,-4.63,-4.63,-4.63,-4.63,-4.63,-4.63,-4.63,-4.63,-4.63,-4.63,-4.63,-4.63,-4.63,-4.63,-4.63,-4.63,-4.63,-4.63,-5.13,-5.13,-5.13,-5.13,-5.13,-5.13,-5.13,-5.13,-5.13,-5.13,-5.13,-5.13,-5.13,-5.13,-5.13,-5.13,-5.13,-5.13,-5.13,-5.13,-5.13,-5.13,-5.13,-5.13,-5.13,-5.13,-5.13,-5.13,-5.13,-5.13,-5.13,-5.13,-5.13,-5.13,-5.13,-5.13,-5.1296,-5.131,-5.1317,-5.1343,-5.1388,-5.1388,-5.1369,-5.1362,-5.1362,-5.1356,-5.1343,-5.1362,-5.1382,-5.1394,-5.1361,-5.1391,-5.1396,-5.1386,-5.139,-5.1394,-5.1394,-5.1394,-5.1394,-5.1394,-5.1394,-5.1394,-5.1394,-5.1394,-5.1394,-5.1023,-5.0575,-5.0204,-4.9852,-4.9247,-4.8505,-4.792,-4.7373,-4.7042,-4.6788,-4.6573,-4.6417,-4.6475,-4.6319,-4.6339,-4.6319,-4.63,-4.63,-4.63,-4.63,-4.63,-4.63,-4.63,-4.63,-4.63,-4.63,-4.63,-4.63,-4.63,-4.63,-4.63,-4.63,-4.63,-4.63,-4.63,-4.63,-4.63,-4.63,-4.63,-4.63,-4.63,-4.63,-4.63,-4.63,-4.63,-4.63,-4.63,-4.63,-4.63,-4.63,-5.13,-5.13,-5.13,-5.13,-5.13,-5.13,-5.13,-5.13,-5.13,-5.13,-5.13,-5.13,-5.13,-5.13,-5.13,-5.13,-5.13,-5.13,-5.13,-5.13,-5.13,-5.13,-5.13,-5.13,-5.13,-5.13,-5.13,-5.13,-5.13,-5.13,-5.13,-5.13,-5.13,-5.13,-5.13,-5.1308,-5.1303,-5.1323,-5.133,-5.1355,-5.1386,-5.1386,-5.14,-5.14,-5.1394,-5.1394,-5.1375,-5.1375,-5.138,-5.1386,-5.1396,-5.1401,-5.1386,-5.139,-5.1394,-5.1394,-5.1394,-5.1394,-5.1394,-5.1394,-5.1394,-5.1394,-5.1394,-5.1394,-5.1394,-5.1394,-5.1004,-5.0692,-5.0477,-5.0126,-4.9286,-4.8818,-4.831,-4.8057,-4.7705,-4.7451,-4.7022,-4.6905,-4.6593,-4.6378,-4.6339,-4.63,-4.63,-4.63,-4.63,-4.63,-4.63,-4.63,-4.63,-4.63,-4.63,-4.63,-4.63,-4.63,-4.63,-4.63,-4.63,-4.63,-4.63,-4.63,-4.63,-4.63,-4.63,-4.63,-4.63,-4.63,-4.63,-4.63,-4.63,-4.63,-4.63,-4.63,-4.63,-4.63,-4.63,-5.13,-5.13,-5.13,-5.13,-5.13,-5.13,-5.13,-5.13,-5.13,-5.13,-5.13,-5.13,-5.13,-5.13,-5.13,-5.13,-5.13,-5.13,-5.13,-5.13,-5.13,-5.13,-5.13,-5.13,-5.13,-5.13,-5.13,-5.13,-5.13,-5.13,-5.13,-5.13,-5.13,-5.1308,-5.13,-5.1303,-5.133,-5.1391,-5.1396,-5.1401,-5.1386,-5.1401,-5.1396,-5.1396,-5.1386,-5.1391,-5.1391,-5.1386,-5.1391,-5.1386,-5.1401,-5.1386,-5.139,-5.1394,-5.1394,-5.1394,-5.1394,-5.1394,-5.1394,-5.1394,-5.1394,-5.1394,-5.1394,-5.1394,-5.1394,-5.1375,-5.1375,-5.1043,-5.1141,-5.0848,-5.0379,-4.9911,-4.9345,-4.8954,-4.8584,-4.8174,-4.7744,-4.7276,-4.6963,-4.6671,-4.6436,-4.63,-4.63,-4.63,-4.63,-4.63,-4.63,-4.63,-4.63,-4.63,-4.63,-4.63,-4.63,-4.63,-4.63,-4.63,-4.63,-4.63,-4.63,-4.63,-4.63,-4.63,-4.63,-4.63,-4.63,-4.63,-4.63,-4.63,-4.63,-4.63,-4.63,-4.63,-4.63,-4.63,-4.63,-5.13,-5.13,-5.13,-5.13,-5.13,-5.13,-5.13,-5.13,-5.13,-5.13,-5.13,-5.13,-5.13,-5.13,-5.13,-5.13,-5.13,-5.13,-5.13,-5.13,-5.13,-5.13,-5.13,-5.13,-5.13,-5.13,-5.13,-5.13,-5.13,-5.13,-5.13,-5.13,-5.1296,-5.1303,-5.1303,-5.131,-5.1349,-5.1391,-5.1401,-5.1381,-5.1394,-5.139,-5.139,-5.1386,-5.1401,-5.1381,-5.1386,-5.1401,-5.1386,-5.1394,-5.139,-5.139,-5.1394,-5.1394,-5.1394,-5.1394,-5.1394,-5.1394,-5.1394,-5.1394,-5.1394,-5.1394,-5.1394,-5.1394,-5.1394,-5.1394,-5.1394,-5.1394,-5.1394,-5.1141,-5.1023,-5.034,-4.9813,-4.9599,-4.9228,-4.8779,-4.831,-4.7783,-4.7373,-4.71,-4.6846,-4.6475,-4.6339,-4.63,-4.63,-4.63,-4.63,-4.63,-4.63,-4.63,-4.63,-4.63,-4.63,-4.63,-4.63,-4.63,-4.63,-4.63,-4.63,-4.63,-4.63,-4.63,-4.63,-4.63,-4.63,-4.63,-4.63,-4.63,-4.63,-4.63,-4.63,-4.63,-4.63,-4.63,-4.63,-5.13,-5.13,-5.13,-5.13,-5.13,-5.13,-5.13,-5.13,-5.13,-5.13,-5.13,-5.13,-5.13,-5.13,-5.13,-5.13,-5.13,-5.13,-5.13,-5.13,-5.13,-5.13,-5.13,-5.1292,-5.13,-5.13,-5.13,-5.13,-5.13,-5.13,-5.13,-5.1308,-5.1303,-5.131,-5.1317,-5.1349,-5.1361,-5.1401,-5.1386,-5.1386,-5.1394,-5.1394,-5.1394,-5.1394,-5.1394,-5.1394,-5.1394,-5.1394,-5.1394,-5.1394,-5.1394,-5.1394,-5.1394,-5.1394,-5.1394,-5.1394,-5.1394,-5.1394,-5.1394,-5.1394,-5.1394,-5.1394,-5.1394,-5.1394,-5.1394,-5.1394,-5.1394,-5.1394,-5.1394,-5.1394,-5.1258,-5.0594,-5.0496,-5.0262,-5.0126,-4.9677,-4.9169,-4.8662,-4.8076,-4.7783,-4.7237,-4.6827,-4.6339,-4.6319,-4.63,-4.63,-4.63,-4.63,-4.63,-4.63,-4.63,-4.63,-4.63,-4.63,-4.63,-4.63,-4.63,-4.63,-4.63,-4.63,-4.63,-4.63,-4.63,-4.63,-4.63,-4.63,-4.63,-4.63,-4.63,-4.63,-4.63,-4.63,-4.63,-4.63,-4.63,-5.13,-5.13,-5.13,-5.13,-5.13,-5.13,-5.13,-5.13,-5.13,-5.13,-5.13,-5.13,-5.13,-5.13,-5.13,-5.13,-5.1292,-5.1292,-5.1284,-5.1256,-5.121,-5.1228,-5.1226,-5.1237,-5.1181,-5.1248,-5.1256,-5.1248,-5.1292,-5.13,-5.13,-5.1308,-5.1323,-5.1336,-5.1375,-5.1366,-5.1401,-5.139,-5.139,-5.139,-5.1394,-5.1394,-5.1394,-5.1394,-5.1394,-5.1394,-5.1394,-5.1394,-5.1394,-5.1394,-5.1394,-5.1394,-5.1394,-5.1394,-5.1394,-5.1394,-5.1394,-5.1394,-5.1394,-5.1394,-5.1394,-5.1394,-5.1394,-5.1394,-5.1394,-5.1394,-5.1394,-5.1394,-5.1394,-5.1394,-5.1277,-5.1258,-5.1219,-5.116,-5.118,-5.075,-5.0243,-4.9677,-4.9029,-4.8466,-4.7783,-4.7217,-4.6495,-4.63,-4.63,-4.63,-4.63,-4.63,-4.63,-4.63,-4.63,-4.63,-4.63,-4.63,-4.63,-4.63,-4.63,-4.63,-4.63,-4.63,-4.63,-4.63,-4.63,-4.63,-4.63,-4.63,-4.63,-4.63,-4.63,-4.63,-4.63,-4.63,-4.63,-4.63,-4.63,-5.13,-5.13,-5.13,-5.13,-5.13,-5.13,-5.13,-5.13,-5.13,-5.13,-5.13,-5.13,-5.13,-5.13,-5.13,-5.13,-5.1256,-5.1201,-5.118,-5.1139,-5.1066,-5.0966,-5.0957,-5.0973,-5.0959,-5.0998,-5.1066,-5.1141,-5.1171,-5.123,-5.1292,-5.13,-5.1349,-5.1388,-5.14,-5.1396,-5.139,-5.1394,-5.1394,-5.1394,-5.1394,-5.1394,-5.1394,-5.1394,-5.1394,-5.1394,-5.1394,-5.1394,-5.1394,-5.1394,-5.1394,-5.1394,-5.1394,-5.1394,-5.1394,-5.1394,-5.1394,-5.1394,-5.1394,-5.1394,-5.1394,-5.1394,-5.1394,-5.1394,-5.1394,-5.1394,-5.1394,-5.1394,-5.1394,-5.1394,-5.1394,-5.1394,-5.1394,-5.1394,-5.1394,-5.118,-5.0711,-5.036,-4.9735,-4.9185,-4.8505,-4.7373,-4.6651,-4.63,-4.63,-4.63,-4.63,-4.63,-4.63,-4.63,-4.63,-4.63,-4.63,-4.63,-4.63,-4.63,-4.63,-4.63,-4.63,-4.63,-4.63,-4.63,-4.63,-4.63,-4.63,-4.63,-4.63,-4.63,-4.63,-4.63,-4.63,-4.63,-4.63,-4.63,-4.63,-5.13,-5.13,-5.13,-5.13,-5.13,-5.13,-5.13,-5.13,-5.13,-5.13,-5.13,-5.13,-5.13,-5.1273,-5.1239,-5.122,-5.1191,-5.1054,-5.0992,-5.0945,-5.084,-5.0843,-5.0817,-5.0801,-5.0839,-5.0858,-5.0883,-5.0992,-5.103,-5.115,-5.123,-5.1296,-5.1382,-5.1394,-5.1391,-5.1386,-5.139,-5.1394,-5.1394,-5.1394,-5.1394,-5.1394,-5.1394,-5.1394,-5.1394,-5.1394,-5.1394,-5.1394,-5.1394,-5.1394,-5.1394,-5.1394,-5.1394,-5.1394,-5.1394,-5.1394,-5.1394,-5.1394,-5.1394,-5.1394,-5.1394,-5.1394,-5.1394,-5.1394,-5.1394,-5.1394,-5.1394,-5.1394,-5.1394,-5.1394,-5.1394,-5.1394,-5.1394,-5.1394,-5.1394,-5.1394,-5.1141,-5.0906,-5.0418,-4.9887,-4.8915,-4.7705,-4.6963,-4.6573,-4.63,-4.63,-4.63,-4.63,-4.63,-4.63,-4.63,-4.63,-4.63,-4.63,-4.63,-4.63,-4.63,-4.63,-4.63,-4.63,-4.63,-4.63,-4.63,-4.63,-4.63,-4.63,-4.63,-4.63,-4.63,-4.63,-4.63,-4.63,-4.63,-4.63,-4.63,-5.13,-5.13,-5.13,-5.13,-5.13,-5.13,-5.13,-5.13,-5.1265,-5.1265,-5.1267,-5.1284,-5.1256,-5.1191,-5.1109,-5.1074,-5.1017,-5.0889,-5.0813,-5.0793,-5.0711,-5.0687,-5.0687,-5.0745,-5.0664,-5.0719,-5.0798,-5.0839,-5.0874,-5.0985,-5.1122,-5.1277,-5.133,-5.1369,-5.1396,-5.1386,-5.1394,-5.1394,-5.1394,-5.1394,-5.1394,-5.1394,-5.1394,-5.1394,-5.1394,-5.1394,-5.1394,-5.1394,-5.1394,-5.1394,-5.1394,-5.1394,-5.1394,-5.1394,-5.1394,-5.1394,-5.1394,-5.1394,-5.1394,-5.1394,-5.1394,-5.1394,-5.1394,-5.1394,-5.1394,-5.1394,-5.1394,-5.1394,-5.1394,-5.1394,-5.1394,-5.1394,-5.1394,-5.1394,-5.1394,-5.1394,-5.1297,-5.1063,-5.075,-5.0184,-4.9403,-4.8232,-4.7354,-4.6963,-4.6554,-4.6436,-4.63,-4.63,-4.63,-4.63,-4.63,-4.63,-4.63,-4.63,-4.63,-4.63,-4.63,-4.63,-4.63,-4.63,-4.63,-4.63,-4.63,-4.63,-4.63,-4.63,-4.63,-4.63,-4.63,-4.63,-4.63,-4.63,-4.63,-4.63,-4.63,-5.13,-5.13,-5.13,-5.13,-5.13,-5.13,-5.1242,-5.1156,-5.1142,-5.1132,-5.116,-5.1152,-5.1086,-5.0972,-5.0898,-5.0889,-5.0844,-5.0733,-5.0681,-5.0587,-5.0528,-5.0508,-5.0445,-5.0467,-5.0435,-5.047,-5.0558,-5.0702,-5.0781,-5.087,-5.0966,-5.1123,-5.1189,-5.125,-5.1396,-5.139,-5.1394,-5.1394,-5.1394,-5.1394,-5.1394,-5.1394,-5.1394,-5.1394,-5.1394,-5.1394,-5.1394,-5.1394,-5.1394,-5.1394,-5.1394,-5.1394,-5.1394,-5.1394,-5.1394,-5.1394,-5.1394,-5.1394,-5.1394,-5.1394,-5.1394,-5.1394,-5.1394,-5.1394,-5.1394,-5.1394,-5.1394,-5.1394,-5.1394,-5.1394,-5.1394,-5.1394,-5.1394,-5.1394,-5.1394,-5.1394,-5.1394,-5.1199,-5.0984,-5.0418,-4.9755,-4.8896,-4.7959,-4.7334,-4.6924,-4.6632,-4.6397,-4.63,-4.63,-4.63,-4.63,-4.63,-4.63,-4.63,-4.63,-4.63,-4.63,-4.63,-4.63,-4.63,-4.63,-4.63,-4.63,-4.63,-4.63,-4.63,-4.63,-4.63,-4.63,-4.63,-4.63,-4.63,-4.63,-4.63,-4.63,-5.13,-5.13,-5.13,-5.1256,-5.1201,-5.122,-5.1122,-5.0975,-5.0969,-5.0925,-5.0892,-5.0941,-5.0884,-5.0793,-5.0745,-5.0694,-5.0678,-5.0547,-5.0485,-5.0399,-5.0355,-5.0329,-5.0302,-5.0302,-5.0325,-5.034,-5.0421,-5.0542,-5.0678,-5.0728,-5.0825,-5.102,-5.1084,-5.1187,-5.1352,-5.139,-5.1394,-5.1394,-5.1394,-5.1394,-5.1394,-5.1394,-5.1394,-5.1394,-5.1394,-5.1394,-5.1394,-5.1394,-5.1394,-5.1394,-5.1394,-5.1394,-5.1394,-5.1394,-5.1394,-5.1394,-5.1394,-5.1394,-5.1394,-5.1394,-5.1394,-5.1394,-5.1394,-5.1394,-5.1394,-5.1394,-5.1394,-5.1394,-5.1394,-5.1394,-5.1394,-5.1394,-5.1394,-5.1394,-5.1394,-5.1394,-5.1394,-5.1316,-5.118,-5.0984,-5.0243,-4.9403,-4.8505,-4.7686,-4.7217,-4.6515,-4.6319,-4.6319,-4.6319,-4.63,-4.63,-4.63,-4.63,-4.63,-4.63,-4.63,-4.63,-4.63,-4.63,-4.63,-4.63,-4.63,-4.63,-4.63,-4.63,-4.63,-4.63,-4.63,-4.63,-4.63,-4.63,-4.63,-4.63,-4.63,-4.63,-5.13,-5.13,-5.1265,-5.1201,-5.1105,-5.1062,-5.0953,-5.0812,-5.0777,-5.0702,-5.0591,-5.0682,-5.0728,-5.0713,-5.0625,-5.0587,-5.0526,-5.0418,-5.0329,-5.0306,-5.0325,-5.0302,-5.0302,-5.0302,-5.0302,-5.0302,-5.0321,-5.0416,-5.0547,-5.0567,-5.0675,-5.0977,-5.1084,-5.115,-5.1322,-5.1386,-5.1362,-5.139,-5.1394,-5.1394,-5.1394,-5.1394,-5.1394,-5.1394,-5.1394,-5.1394,-5.1394,-5.1394,-5.1394,-5.1394,-5.1394,-5.1394,-5.1394,-5.1394,-5.1394,-5.1394,-5.1394,-5.1394,-5.1394,-5.1394,-5.1394,-5.1394,-5.1394,-5.1394,-5.1394,-5.1394,-5.1394,-5.1394,-5.1394,-5.1394,-5.1394,-5.1394,-5.1394,-5.1394,-5.1394,-5.1394,-5.1394,-5.1394,-5.1355,-5.1316,-5.0711,-4.9872,-4.9111,-4.8271,-4.7588,-4.6827,-4.6397,-4.6358,-4.6339,-4.6319,-4.63,-4.63,-4.63,-4.63,-4.63,-4.63,-4.63,-4.63,-4.63,-4.63,-4.63,-4.63,-4.63,-4.63,-4.63,-4.63,-4.63,-4.63,-4.63,-4.63,-4.63,-4.63,-4.63,-4.63,-4.63,-5.13,-5.1292,-5.1181,-5.1117,-5.1062,-5.0932,-5.0753,-5.0657,-5.0636,-5.0545,-5.0412,-5.0367,-5.0399,-5.0399,-5.0377,-5.0374,-5.0396,-5.0302,-5.0302,-5.0302,-5.0302,-5.0302,-5.0302,-5.0302,-5.0302,-5.0302,-5.0302,-5.0306,-5.0418,-5.0399,-5.0488,-5.0774,-5.079,-5.0927,-5.1203,-5.1278,-5.1316,-5.1362,-5.1394,-5.1394,-5.1394,-5.1394,-5.1394,-5.1394,-5.1394,-5.1394,-5.1394,-5.1394,-5.1394,-5.1394,-5.1394,-5.1394,-5.1394,-5.1394,-5.1394,-5.1394,-5.1394,-5.1394,-5.1394,-5.1394,-5.1394,-5.1394,-5.1394,-5.1394,-5.1394,-5.1394,-5.1394,-5.1394,-5.1394,-5.1394,-5.1394,-5.1394,-5.1394,-5.1394,-5.1394,-5.1394,-5.1394,-5.1394,-5.1375,-5.1375,-5.118,-5.0477,-4.9833,-4.9169,-4.8701,-4.7939,-4.7217,-4.7081,-4.6573,-4.6436,-4.6319,-4.63,-4.63,-4.63,-4.63,-4.63,-4.63,-4.63,-4.63,-4.63,-4.63,-4.63,-4.63,-4.63,-4.63,-4.63,-4.63,-4.63,-4.63,-4.63,-4.63,-4.63,-4.63,-4.63,-4.63]}]]